[[{"header":{"parameterUnit":"m.s-1","parameterCategory":1,"la1":31.0,"la2":29.5877,"lo1":-88.7671,"lo2":-86.6584,"dy":0.0162,"dx":0.0185,"nx":115,"ny":88,"refTime":"2024-04-18T18:00:00:Z","depth":0,"parameterNumber":2,"parameterNumberName":"U-component_of_WINDS"},"data":[0.0,0.0,0.0,0.0,0.0,0.0,0.0,0.0,0.0,0.0,0.0,0.0,0.0,0.0,0.0,0.0,0.0,0.0,0.0,0.0,0.0,0.0,0.0,0.0,0.0,0.0,0.0,0.0,0.0,0.0,0.0,0.0,0.0,0.0,0.0,0.0,0.0,0.0,0.0,0.0,0.0,0.0,0.0,0.0,0.0,0.0,0.0,0.0,0.0,0.0,0.0,0.0,0.0,0.0,0.0,0.0,0.0,0.0,0.0,0.0,0.0,0.0,0.0,0.0,0.0,0.0,0.0,0.0,0.0,0.0,0.0,0.0,0.0,0.0,0.0,0.0,0.0,0.0,0.0,0.0,0.0,0.0,0.0,0.0,0.0,0.0,0.0,0.0,0.0,0.0,0.0,0.0,0.0,0.0,0.0,0.0,0.0,0.0,0.0,0.0,0.0,0.0,0.0,0.0,0.0,0.0,0.0,0.0,0.0,0.0,0.0,0.0,0.0,0.0,0.0,0.0,0.0,0.0,0.0,0.0,0.0,0.0,0.0,0.0,0.0,0.0,0.0,0.0,0.0,0.0,0.0,0.0,0.0,0.0,0.0,0.0,0.0,0.0,0.0,0.0,0.0,0.0,0.0,0.0,0.0,0.0,0.0,0.0,0.0,0.0,0.0,0.0,0.0,0.0,0.0,0.0,0.0,0.0,0.0,0.0,0.0,0.0,0.0,0.0,0.0,0.0,0.0,0.0,0.0,0.0,0.0,0.0,0.0,0.0,0.0,0.0,0.0,0.0,0.0,0.0,0.0,0.0,0.0,0.0,0.0,0.0,0.0,0.0,0.0,0.0,0.0,0.0,0.0,0.0,0.0,0.0,0.0,0.0,0.0,0.0,0.0,0.0,0.0,0.0,0.0,0.0,0.0,0.0,0.0,0.0,0.0,0.0,0.0,0.0,0.0,0.0,0.0,0.0,0.0,0.0,0.0,0.0,0.0,0.0,0.0,0.0,0.0,0.0,0.0,0.0,0.0,0.0,0.0,0.0,0.0,0.0,0.0,0.0,0.0,0.0,0.0,0.0,0.0,0.0,0.0,0.0,0.0,0.0,0.0,0.0,0.0,0.0,0.0,0.0,0.0,0.0,0.0,0.0,0.0,0.0,0.0,0.0,0.0,0.0,0.0,0.0,0.0,0.0,0.0,0.0,0.0,0.0,0.0,0.0,0.0,0.0,0.0,0.0,0.0,0.0,0.0,0.0,0.0,0.0,0.0,0.0,0.0,0.0,0.0,0.0,0.0,0.0,0.0,0.0,0.0,0.0,0.0,0.0,0.0,0.0,0.0,0.0,0.0,0.0,0.0,0.0,0.0,0.0,0.0,0.0,0.0,0.0,0.0,0.0,0.0,0.0,0.0,0.0,0.0,0.0,0.0,0.0,0.0,0.0,0.0,0.0,0.0,0.0,0.0,0.0,0.0,0.0,0.0,0.0,0.0,0.0,0.0,0.0,0.0,0.0,0.0,0.0,0.0,0.0,0.0,0.0,0.0,0.0,0.0,0.0,0.0,0.0,0.0,0.0,0.0,0.0,0.0,0.0,0.0,0.0,0.0,0.0,0.0,0.0,0.0,0.0,0.0,0.0,0.0,0.0,0.0,0.0,0.0,0.0,0.0,0.0,0.0,0.0,0.0,0.0,0.0,0.0,0.0,0.0,0.0,0.0,0.0,0.0,0.0,0.0,0.0,0.0,0.0,0.0,0.0,0.0,0.0,0.0,0.0,0.0,0.0,0.0,0.0,0.0,0.0,0.0,0.0,0.0,0.0,0.0,0.0,0.0,0.0,0.0,0.0,0.0,0.0,0.0,0.0,0.0,0.0,0.0,0.0,0.0,0.0,0.0,0.0,0.0,0.0,0.0,0.0,0.0,0.0,0.0,0.0,0.0,0.0,0.0,0.0,0.0,0.0,0.0,0.0,0.0,0.0,0.0,0.0,0.0,0.0,0.0,0.0,0.0,0.0,0.0,0.0,0.0,0.0,0.0,0.0,0.0,0.0,0.0,0.0,0.0,0.0,0.0,0.0,0.0,0.0,0.0,0.0,0.0,0.0,0.0,0.0,0.0,0.0,0.0,0.0,0.0,0.0,0.0,0.0,0.0,0.0,0.0,0.0,0.0,0.0,0.0,0.0,0.0,0.0,0.0,0.0,0.0,0.0,0.0,0.0,0.0,0.0,0.0,0.0,0.0,0.0,0.0,0.0,0.0,0.0,0.0,0.0,0.0,0.0,0.0,0.0,0.0,0.0,0.0,0.0,0.0,0.0,0.0,0.0,0.0,0.0,0.0,0.0,0.0,0.0,0.0,0.0,0.0,0.0,0.0,0.0,0.0,0.0,0.0,0.0,0.0,0.0,0.0,0.0,0.0,0.0,0.0,0.0,0.0,0.0,0.0,0.0,0.0,0.0,0.0,0.0,0.0,0.0,0.0,0.0,0.0,0.0,0.0,0.0,0.0,0.0,0.0,0.0,0.0,0.0,0.0,0.0,0.0,0.0,0.0,0.0,0.0,0.0,0.0,0.0,0.0,0.0,0.0,0.0,0.0,0.0,0.0,0.0,0.0,0.0,0.0,0.0,0.0,0.0,0.0,0.0,0.0,0.0,0.0,0.0,0.0,0.0,0.0,0.0,0.0,0.0,0.0,0.0,0.0,0.0,0.0,0.0,0.0,0.0,0.0,0.0,0.0,0.0,0.0,0.0,0.0,0.0,0.0,0.0,0.0,0.0,0.0,0.0,0.0,0.0,0.0,0.0,0.0,0.0,0.0,0.0,0.0,0.0,0.0,0.0,0.0,0.0,0.0,0.0,0.0,0.0,0.0,0.0,0.0,0.0,0.0,0.0,0.0,0.0,0.0,0.0,0.0,0.0,0.0,0.0,0.0,0.0,0.0,0.0,0.0,0.0,0.0,0.0,0.0,0.0,0.0,0.0,0.0,0.0,0.0,0.0,0.0,0.0,0.0,0.0,0.0,0.0,0.0,0.0,0.0,0.0,0.0,0.0,0.0,0.0,0.0,0.0,0.0,0.0,0.0,0.0,0.0,0.0,0.0,0.0,0.0,0.0,0.0,0.0,0.0,0.0,0.0,0.0,0.0,0.0,0.0,0.0,0.0,0.0,0.0,0.0,0.0,0.0,0.0,0.0,0.0,0.0,0.0,0.0,0.0,0.0,0.0,0.0,0.0,0.0,0.0,0.0,0.0,0.0,0.0,0.0,0.0,0.0,0.0,0.0,0.0,0.0,0.0,0.0,0.0,0.0,0.0,0.0,0.0,0.0,0.0,0.0,0.0,0.0,0.0,0.0,0.0,0.0,0.0,0.0,0.0,0.0,0.0,0.0,0.0,0.0,0.0,0.0,0.0,0.0,0.0,0.0,0.0,0.0,0.0,0.0,0.0,0.0,0.0,0.0,0.0,0.0,0.0,0.0,0.0,0.0,0.0,0.0,0.0,0.0,0.0,0.0,0.0,0.0,0.0,0.0,0.0,0.0,0.0,0.0,0.0,0.0,0.0,0.0,0.0,0.0,0.0,0.0,0.0,0.0,0.0,0.0,0.0,0.0,0.0,0.0,0.0,0.0,0.0,0.0,0.0,0.0,0.0,0.0,0.0,0.0,0.0,0.0,0.0,0.0,0.0,0.0,0.0,0.0,0.0,0.0,0.0,0.0,0.0,0.0,0.0,0.0,0.0,0.0,0.0,0.0,0.0,0.0,0.0,0.0,0.0,0.0,0.0,0.0,0.0,0.0,0.0,0.0,0.0,0.0,0.0,0.0,0.0,0.0,0.0,0.0,0.0,0.0,0.0,0.0,0.0,0.0,0.0,0.0,0.0,0.0,0.0,0.0,0.0,0.0,0.0,0.0,0.0,0.0,0.0,0.0,0.0,0.0,0.0,0.0,0.0,0.0,0.0,0.0,0.0,0.0,0.0,0.0,0.0,0.0,0.0,0.0,0.0,0.0,0.0,0.0,0.0,0.0,0.0,0.0,0.0,0.0,0.0,0.0,0.0,0.0,0.0,0.0,0.0,0.0,0.0,0.0,0.0,0.0,0.0,0.0,0.0,0.0,0.0,0.0,0.0,0.0,0.0,0.0,0.0,0.0,0.0,0.0,0.0,0.0,0.0,0.0,0.0,0.0,0.0,0.0,0.0,0.0,0.0,0.0,0.0,0.0,0.0,0.0,0.0,0.0,0.0,0.0,0.0,0.0,0.0,0.0,0.0,0.0,0.0,0.0,0.0,5.5707,0.0,0.0,0.0,0.0,0.0,0.0,0.0,0.0,0.0,0.0,0.0,0.0,0.0,0.0,0.0,0.0,0.0,0.0,0.0,0.0,0.0,0.0,0.0,0.0,0.0,0.0,0.0,0.0,0.0,0.0,0.0,0.0,0.0,0.0,0.0,0.0,0.0,0.0,0.0,0.0,0.0,0.0,0.0,0.0,0.0,0.0,0.0,0.0,0.0,0.0,0.0,0.0,0.0,0.0,0.0,0.0,0.0,0.0,0.0,0.0,0.0,0.0,0.0,0.0,0.0,0.0,0.0,0.0,0.0,0.0,0.0,0.0,0.0,0.0,0.0,0.0,0.0,0.0,0.0,0.0,0.0,0.0,0.0,0.0,0.0,0.0,0.0,0.0,0.0,0.0,0.0,0.0,0.0,0.0,0.0,0.0,0.0,0.0,0.0,0.0,0.0,0.0,0.0,0.0,0.0,0.0,0.0,0.0,0.0,0.0,5.5707,5.5707,5.5707,5.5707,5.5707,0.0,0.0,0.0,0.0,0.0,0.0,0.0,0.0,0.0,0.0,0.0,0.0,0.0,0.0,0.0,0.0,0.0,0.0,0.0,0.0,0.0,0.0,0.0,0.0,0.0,0.0,0.0,0.0,0.0,0.0,0.0,0.0,0.0,0.0,0.0,0.0,0.0,0.0,0.0,0.0,0.0,0.0,0.0,0.0,0.0,0.0,0.0,0.0,0.0,0.0,0.0,0.0,0.0,0.0,0.0,0.0,0.0,0.0,0.0,0.0,0.0,0.0,0.0,0.0,0.0,0.0,0.0,0.0,0.0,0.0,0.0,0.0,0.0,0.0,0.0,0.0,0.0,0.0,0.0,0.0,0.0,0.0,0.0,0.0,0.0,0.0,0.0,0.0,0.0,0.0,0.0,0.0,0.0,0.0,0.0,0.0,0.0,0.0,0.0,0.0,0.0,0.0,0.0,0.0,0.0,0.0,0.0,0.0,0.0,0.0,0.0,0.0,5.5707,5.5707,5.5707,0.0,0.0,0.0,0.0,0.0,0.0,0.0,0.0,0.0,0.0,0.0,0.0,0.0,0.0,0.0,0.0,0.0,0.0,0.0,0.0,0.0,0.0,0.0,0.0,0.0,0.0,0.0,0.0,0.0,0.0,0.0,0.0,0.0,0.0,0.0,0.0,0.0,0.0,0.0,0.0,0.0,0.0,0.0,0.0,0.0,0.0,0.0,0.0,0.0,0.0,0.0,0.0,0.0,0.0,0.0,0.0,0.0,0.0,0.0,0.0,0.0,0.0,0.0,0.0,0.0,0.0,0.0,0.0,0.0,0.0,0.0,0.0,0.0,0.0,0.0,0.0,0.0,0.0,0.0,0.0,0.0,0.0,0.0,0.0,0.0,0.0,0.0,0.0,0.0,0.0,0.0,0.0,0.0,0.0,0.0,0.0,0.0,0.0,0.0,0.0,0.0,0.0,0.0,0.0,0.0,0.0,0.0,0.0,0.0,0.0,5.5707,5.5707,5.5707,0.0,5.5707,0.0,0.0,0.0,0.0,0.0,0.0,0.0,0.0,0.0,0.0,0.0,0.0,0.0,0.0,0.0,0.0,0.0,0.0,0.0,0.0,0.0,0.0,0.0,0.0,0.0,0.0,0.0,0.0,0.0,0.0,0.0,0.0,0.0,0.0,0.0,0.0,0.0,0.0,0.0,0.0,0.0,0.0,0.0,0.0,0.0,0.0,0.0,0.0,0.0,0.0,0.0,0.0,0.0,0.0,0.0,0.0,0.0,0.0,0.0,0.0,0.0,0.0,0.0,0.0,0.0,0.0,0.0,0.0,0.0,0.0,0.0,0.0,0.0,0.0,0.0,0.0,0.0,0.0,0.0,0.0,0.0,0.0,0.0,0.0,0.0,0.0,0.0,0.0,0.0,0.0,0.0,0.0,0.0,0.0,0.0,0.0,0.0,0.0,0.0,0.0,0.0,0.0,0.0,0.0,0.0,0.0,0.0,0.0,0.0,0.0,5.5707,5.5707,5.5707,5.5707,0.0,0.0,0.0,0.0,0.0,0.0,0.0,0.0,0.0,0.0,0.0,0.0,0.0,0.0,0.0,0.0,0.0,0.0,0.0,0.0,0.0,0.0,0.0,0.0,0.0,0.0,0.0,0.0,0.0,0.0,0.0,0.0,0.0,0.0,0.0,0.0,0.0,0.0,0.0,0.0,0.0,0.0,0.0,0.0,0.0,0.0,0.0,0.0,0.0,0.0,0.0,0.0,0.0,0.0,0.0,0.0,0.0,0.0,0.0,0.0,0.0,0.0,0.0,0.0,0.0,0.0,0.0,0.0,0.0,0.0,0.0,0.0,0.0,0.0,0.0,0.0,0.0,0.0,0.0,0.0,0.0,0.0,0.0,0.0,0.0,0.0,0.0,0.0,0.0,0.0,0.0,0.0,0.0,0.0,0.0,0.0,0.0,0.0,0.0,0.0,0.0,0.0,0.0,0.0,0.0,0.0,0.0,0.0,0.0,0.0,5.5707,5.5707,5.5707,5.5707,5.5707,5.5707,0.0,0.0,0.0,0.0,0.0,0.0,0.0,0.0,0.0,0.0,0.0,0.0,0.0,0.0,0.0,0.0,0.0,0.0,0.0,0.0,0.0,0.0,0.0,0.0,0.0,0.0,0.0,0.0,0.0,0.0,0.0,0.0,0.0,0.0,0.0,0.0,0.0,0.0,0.0,0.0,0.0,0.0,0.0,0.0,0.0,0.0,0.0,0.0,0.0,0.0,0.0,0.0,0.0,0.0,0.0,0.0,0.0,0.0,0.0,0.0,0.0,0.0,0.0,0.0,0.0,0.0,0.0,0.0,0.0,0.0,0.0,0.0,0.0,0.0,0.0,0.0,0.0,0.0,0.0,0.0,0.0,0.0,0.0,0.0,0.0,0.0,0.0,0.0,0.0,0.0,0.0,0.0,0.0,0.0,0.0,0.0,0.0,0.0,0.0,0.0,0.0,0.0,0.0,0.0,0.0,0.0,0.0,0.0,5.5707,5.5707,5.5707,5.5707,5.5707,5.5707,0.0,0.0,0.0,0.0,0.0,0.0,0.0,0.0,0.0,0.0,0.0,0.0,0.0,0.0,0.0,0.0,0.0,0.0,0.0,0.0,0.0,0.0,0.0,0.0,0.0,0.0,0.0,0.0,0.0,0.0,0.0,0.0,0.0,0.0,0.0,0.0,0.0,0.0,0.0,0.0,0.0,0.0,0.0,0.0,0.0,0.0,0.0,0.0,0.0,0.0,0.0,0.0,0.0,0.0,0.0,0.0,0.0,0.0,0.0,0.0,0.0,0.0,0.0,0.0,0.0,0.0,0.0,0.0,0.0,0.0,0.0,0.0,0.0,0.0,0.0,0.0,0.0,0.0,0.0,0.0,0.0,0.0,0.0,0.0,0.0,0.0,0.0,0.0,0.0,0.0,0.0,0.0,0.0,0.0,0.0,0.0,0.0,0.0,0.0,0.0,0.0,0.0,0.0,0.0,0.0,0.0,0.0,0.0,0.0,5.5707,5.5707,5.5707,5.5707,5.5707,5.5707,0.0,0.0,0.0,0.0,0.0,0.0,0.0,0.0,0.0,0.0,0.0,0.0,0.0,0.0,0.0,0.0,0.0,0.0,0.0,0.0,0.0,0.0,0.0,0.0,0.0,0.0,0.0,0.0,0.0,0.0,0.0,0.0,0.0,0.0,0.0,0.0,0.0,0.0,0.0,0.0,0.0,0.0,0.0,0.0,0.0,0.0,0.0,0.0,0.0,0.0,0.0,0.0,0.0,0.0,0.0,0.0,0.0,0.0,0.0,0.0,0.0,0.0,0.0,0.0,0.0,0.0,0.0,0.0,0.0,0.0,0.0,0.0,0.0,0.0,0.0,0.0,0.0,0.0,0.0,0.0,0.0,0.0,0.0,0.0,0.0,0.0,0.0,0.0,0.0,0.0,0.0,0.0,0.0,0.0,0.0,0.0,0.0,0.0,0.0,0.0,0.0,0.0,0.0,0.0,0.0,0.0,0.0,0.0,0.0,5.5707,0.0,5.5707,5.5707,5.5707,5.5707,0.0,0.0,0.0,0.0,0.0,0.0,0.0,0.0,0.0,0.0,0.0,0.0,0.0,0.0,0.0,0.0,0.0,0.0,0.0,0.0,0.0,0.0,0.0,0.0,0.0,0.0,0.0,0.0,0.0,0.0,0.0,0.0,0.0,0.0,0.0,0.0,0.0,0.0,0.0,0.0,0.0,0.0,0.0,0.0,0.0,0.0,0.0,0.0,0.0,0.0,0.0,0.0,0.0,0.0,0.0,0.0,0.0,0.0,0.0,0.0,0.0,0.0,0.0,0.0,0.0,0.0,0.0,0.0,0.0,0.0,0.0,0.0,0.0,0.0,0.0,0.0,0.0,0.0,0.0,0.0,0.0,0.0,0.0,0.0,0.0,0.0,0.0,0.0,0.0,0.0,0.0,0.0,0.0,0.0,0.0,0.0,0.0,0.0,0.0,0.0,0.0,0.0,0.0,0.0,0.0,0.0,0.0,0.0,5.5743,5.5746,5.5708,5.5708,5.5707,5.5708,5.5707,0.0,0.0,0.0,0.0,0.0,0.0,0.0,0.0,0.0,0.0,0.0,0.0,0.0,0.0,0.0,0.0,0.0,0.0,0.0,0.0,0.0,0.0,0.0,0.0,0.0,0.0,0.0,0.0,0.0,0.0,0.0,0.0,0.0,0.0,0.0,0.0,0.0,0.0,0.0,0.0,0.0,0.0,0.0,0.0,0.0,0.0,0.0,0.0,0.0,0.0,0.0,0.0,0.0,0.0,0.0,0.0,0.0,0.0,0.0,0.0,0.0,0.0,0.0,0.0,0.0,0.0,0.0,0.0,0.0,0.0,0.0,0.0,0.0,0.0,0.0,0.0,0.0,0.0,0.0,0.0,0.0,0.0,0.0,0.0,0.0,0.0,0.0,0.0,0.0,0.0,0.0,0.0,0.0,0.0,0.0,0.0,0.0,0.0,0.0,0.0,0.0,0.0,0.0,0.0,0.0,0.0,0.0,0.0,0.0,5.747,5.632,5.6018,5.6519,5.6018,5.5707,0.0,0.0,0.0,0.0,0.0,0.0,0.0,0.0,0.0,0.0,0.0,0.0,0.0,0.0,0.0,0.0,0.0,0.0,0.0,0.0,0.0,0.0,0.0,0.0,0.0,0.0,0.0,0.0,0.0,0.0,0.0,0.0,0.0,0.0,0.0,0.0,0.0,0.0,0.0,0.0,0.0,0.0,0.0,0.0,0.0,0.0,0.0,0.0,0.0,0.0,0.0,0.0,0.0,0.0,0.0,0.0,0.0,0.0,0.0,0.0,0.0,0.0,0.0,0.0,0.0,0.0,0.0,0.0,0.0,0.0,0.0,0.0,0.0,0.0,0.0,0.0,0.0,0.0,0.0,0.0,0.0,0.0,0.0,0.0,0.0,0.0,0.0,0.0,0.0,0.0,0.0,0.0,0.0,0.0,0.0,0.0,0.0,0.0,0.0,0.0,0.0,0.0,0.0,0.0,0.0,0.0,0.0,0.0,0.0,6.0084,5.8474,5.786,5.8403,5.79,5.7131,5.6209,0.0,0.0,0.0,0.0,0.0,0.0,0.0,0.0,0.0,0.0,0.0,0.0,0.0,0.0,0.0,0.0,0.0,0.0,0.0,0.0,0.0,0.0,0.0,0.0,0.0,0.0,0.0,0.0,0.0,0.0,0.0,0.0,0.0,0.0,0.0,0.0,0.0,0.0,0.0,0.0,0.0,0.0,0.0,0.0,0.0,0.0,0.0,0.0,0.0,0.0,0.0,0.0,0.0,0.0,0.0,0.0,0.0,0.0,0.0,0.0,0.0,0.0,0.0,0.0,0.0,0.0,0.0,0.0,0.0,0.0,0.0,0.0,0.0,0.0,0.0,0.0,0.0,0.0,0.0,0.0,0.0,0.0,0.0,0.0,0.0,0.0,0.0,0.0,0.0,0.0,0.0,0.0,0.0,0.0,0.0,0.0,0.0,0.0,0.0,0.0,0.0,0.0,0.0,0.0,0.0,0.0,0.0,0.0,6.3429,6.2012,6.1129,6.0938,6.0824,5.9668,0.0,0.0,0.0,0.0,0.0,0.0,0.0,0.0,0.0,0.0,0.0,0.0,0.0,0.0,0.0,0.0,0.0,0.0,0.0,0.0,0.0,0.0,0.0,0.0,0.0,0.0,0.0,0.0,0.0,0.0,0.0,0.0,0.0,0.0,0.0,0.0,0.0,0.0,0.0,0.0,0.0,0.0,0.0,0.0,0.0,0.0,0.0,0.0,0.0,0.0,0.0,0.0,0.0,0.0,0.0,0.0,0.0,0.0,0.0,0.0,0.0,0.0,0.0,0.0,0.0,0.0,0.0,0.0,0.0,0.0,0.0,0.0,0.0,0.0,0.0,0.0,0.0,0.0,0.0,0.0,0.0,0.0,0.0,0.0,0.0,0.0,0.0,0.0,0.0,0.0,0.0,0.0,0.0,0.0,0.0,0.0,0.0,0.0,0.0,0.0,0.0,0.0,0.0,0.0,0.0,0.0,0.0,0.0,0.0,6.5166,6.601,6.5239,6.274,6.1476,6.0207,0.0,0.0,0.0,0.0,0.0,0.0,0.0,0.0,0.0,0.0,0.0,0.0,0.0,0.0,0.0,0.0,0.0,0.0,0.0,0.0,0.0,0.0,0.0,0.0,0.0,0.0,0.0,0.0,0.0,0.0,0.0,0.0,0.0,0.0,0.0,0.0,0.0,0.0,0.0,0.0,0.0,0.0,0.0,0.0,0.0,0.0,0.0,0.0,0.0,0.0,0.0,0.0,0.0,0.0,0.0,0.0,0.0,0.0,0.0,0.0,0.0,0.0,0.0,0.0,0.0,0.0,0.0,0.0,0.0,0.0,0.0,0.0,0.0,0.0,0.0,0.0,0.0,0.0,0.0,0.0,0.0,0.0,0.0,0.0,0.0,0.0,0.0,0.0,0.0,0.0,0.0,0.0,0.0,0.0,0.0,0.0,0.0,0.0,0.0,0.0,0.0,0.0,0.0,0.0,0.0,0.0,0.0,0.0,6.4874,6.59,6.8242,6.8356,6.6045,6.4014,6.2207,0.0,0.0,0.0,0.0,0.0,0.0,0.0,0.0,0.0,0.0,0.0,0.0,0.0,0.0,0.0,0.0,0.0,0.0,0.0,0.0,0.0,0.0,0.0,0.0,0.0,0.0,0.0,0.0,0.0,0.0,0.0,0.0,0.0,0.0,0.0,0.0,0.0,0.0,0.0,0.0,0.0,0.0,0.0,0.0,0.0,0.0,0.0,0.0,0.0,0.0,0.0,0.0,0.0,0.0,0.0,0.0,0.0,0.0,0.0,0.0,0.0,0.0,0.0,0.0,0.0,0.0,0.0,0.0,0.0,0.0,0.0,0.0,0.0,0.0,0.0,0.0,0.0,0.0,0.0,0.0,0.0,0.0,0.0,0.0,0.0,0.0,0.0,0.0,0.0,0.0,0.0,0.0,0.0,0.0,0.0,0.0,0.0,0.0,0.0,0.0,0.0,0.0,0.0,0.0,0.0,0.0,0.0,0.0,6.5982,6.6208,6.9246,7.055,6.9781,6.7284,6.4786,0.0,0.0,0.0,0.0,0.0,0.0,0.0,0.0,0.0,0.0,0.0,0.0,0.0,0.0,0.0,0.0,0.0,0.0,0.0,0.0,0.0,0.0,0.0,0.0,0.0,0.0,0.0,0.0,0.0,0.0,0.0,0.0,0.0,0.0,0.0,0.0,0.0,0.0,0.0,0.0,0.0,0.0,0.0,0.0,0.0,0.0,0.0,0.0,0.0,0.0,0.0,0.0,0.0,0.0,0.0,0.0,0.0,0.0,0.0,0.0,0.0,0.0,0.0,0.0,0.0,0.0,0.0,0.0,0.0,0.0,0.0,0.0,0.0,0.0,0.0,0.0,0.0,0.0,0.0,0.0,0.0,0.0,0.0,0.0,0.0,0.0,0.0,0.0,0.0,0.0,0.0,0.0,0.0,0.0,0.0,0.0,0.0,0.0,0.0,0.0,0.0,0.0,0.0,0.0,0.0,0.0,0.0,0.0,6.6545,6.7854,6.9856,7.0821,7.0631,6.7555,6.5323,0.0,0.0,0.0,0.0,0.0,0.0,0.0,0.0,0.0,0.0,0.0,0.0,0.0,0.0,0.0,0.0,0.0,0.0,0.0,0.0,0.0,0.0,0.0,0.0,0.0,0.0,0.0,0.0,0.0,0.0,0.0,0.0,0.0,0.0,0.0,0.0,0.0,0.0,0.0,0.0,0.0,0.0,0.0,0.0,0.0,0.0,0.0,0.0,5.7283,0.0,0.0,0.0,0.0,0.0,0.0,0.0,0.0,0.0,0.0,0.0,0.0,0.0,0.0,0.0,0.0,0.0,0.0,0.0,0.0,0.0,0.0,0.0,0.0,0.0,0.0,0.0,0.0,0.0,0.0,0.0,0.0,0.0,0.0,0.0,0.0,0.0,0.0,0.0,0.0,0.0,0.0,0.0,0.0,0.0,0.0,0.0,0.0,0.0,0.0,0.0,0.0,0.0,0.0,0.0,0.0,0.0,0.0,0.0,6.6705,6.8353,7.005,7.0897,7.0821,6.8398,6.6473,0.0,0.0,0.0,0.0,0.0,0.0,0.0,0.0,0.0,0.0,0.0,0.0,0.0,0.0,0.0,0.0,0.0,0.0,0.0,0.0,0.0,0.0,0.0,0.0,0.0,0.0,0.0,0.0,0.0,0.0,0.0,0.0,0.0,0.0,0.0,0.0,0.0,0.0,0.0,0.0,0.0,0.0,0.0,0.0,0.0,0.0,0.0,0.0,0.0,0.0,0.0,0.0,0.0,0.0,0.0,0.0,0.0,0.0,0.0,0.0,0.0,0.0,0.0,0.0,0.0,0.0,0.0,0.0,0.0,0.0,0.0,0.0,0.0,0.0,0.0,0.0,0.0,0.0,0.0,0.0,0.0,0.0,0.0,0.0,0.0,0.0,0.0,0.0,0.0,0.0,0.0,0.0,0.0,0.0,0.0,0.0,0.0,0.0,0.0,0.0,0.0,0.0,0.0,0.0,0.0,0.0,0.0,6.5285,6.6938,6.8739,7.0166,7.0897,7.0862,6.9278,6.7583,6.5941,0.0,0.0,0.0,0.0,0.0,0.0,0.0,0.0,0.0,0.0,0.0,0.0,0.0,0.0,0.0,0.0,0.0,0.0,0.0,0.0,0.0,0.0,0.0,0.0,0.0,0.0,0.0,0.0,0.0,0.0,0.0,0.0,0.0,0.0,0.0,0.0,0.0,0.0,5.6718,5.6506,0.0,0.0,0.0,0.0,0.0,0.0,0.0,0.0,5.6978,0.0,0.0,0.0,0.0,0.0,0.0,0.0,0.0,0.0,0.0,0.0,0.0,0.0,0.0,0.0,0.0,0.0,0.0,0.0,0.0,0.0,0.0,0.0,0.0,0.0,0.0,0.0,0.0,0.0,0.0,0.0,0.0,0.0,0.0,0.0,0.0,0.0,0.0,0.0,0.0,0.0,0.0,0.0,0.0,0.0,0.0,0.0,0.0,0.0,0.0,0.0,0.0,0.0,0.0,0.0,0.0,6.5436,6.6439,6.8055,7.0397,7.0743,7.0897,7.086,6.9278,6.7625,6.5937,0.0,0.0,0.0,0.0,0.0,0.0,0.0,0.0,0.0,0.0,0.0,0.0,0.0,0.0,0.0,0.0,0.0,0.0,0.0,0.0,0.0,0.0,0.0,0.0,0.0,0.0,0.0,0.0,0.0,0.0,0.0,0.0,0.0,0.0,0.0,0.0,0.0,0.0,0.0,5.6666,5.6466,0.0,0.0,0.0,0.0,0.0,0.0,0.0,0.0,5.7474,0.0,0.0,0.0,0.0,0.0,0.0,0.0,0.0,0.0,0.0,0.0,0.0,0.0,0.0,0.0,0.0,0.0,0.0,0.0,0.0,0.0,0.0,0.0,0.0,0.0,0.0,0.0,0.0,0.0,0.0,0.0,0.0,0.0,0.0,0.0,0.0,0.0,0.0,0.0,0.0,0.0,0.0,0.0,0.0,0.0,0.0,0.0,0.0,0.0,0.0,0.0,0.0,0.0,0.0,0.0,6.7127,6.8438,7.009,7.2164,7.2241,7.2241,7.2205,7.0585,6.8707,0.0,0.0,0.0,0.0,0.0,0.0,0.0,0.0,0.0,0.0,0.0,0.0,0.0,0.0,0.0,0.0,0.0,0.0,0.0,0.0,0.0,0.0,0.0,0.0,0.0,0.0,0.0,0.0,0.0,0.0,0.0,0.0,0.0,0.0,0.0,0.0,0.0,0.0,0.0,0.0,5.7207,5.7212,5.7875,0.0,0.0,0.0,0.0,0.0,0.0,5.7462,5.7352,0.0,0.0,0.0,0.0,0.0,0.0,0.0,0.0,0.0,0.0,0.0,0.0,0.0,0.0,0.0,0.0,0.0,0.0,0.0,0.0,0.0,0.0,0.0,0.0,0.0,0.0,0.0,0.0,0.0,0.0,0.0,0.0,0.0,0.0,0.0,0.0,0.0,0.0,0.0,0.0,0.0,0.0,0.0,0.0,0.0,0.0,0.0,0.0,0.0,0.0,0.0,0.0,0.0,0.0,0.0,6.8353,7.0204,7.1897,7.343,7.3507,7.3507,7.3469,7.1474,6.9436,0.0,0.0,0.0,0.0,0.0,0.0,0.0,0.0,0.0,0.0,0.0,0.0,0.0,0.0,0.0,0.0,0.0,0.0,0.0,0.0,0.0,0.0,0.0,0.0,0.0,0.0,0.0,0.0,0.0,0.0,0.0,0.0,0.0,0.0,0.0,0.0,0.0,0.0,0.0,0.0,0.0,5.8036,5.8544,5.8089,0.0,0.0,0.0,0.0,5.7468,5.7746,0.0,0.0,0.0,0.0,0.0,0.0,0.0,0.0,0.0,0.0,0.0,0.0,0.0,0.0,0.0,0.0,0.0,0.0,0.0,0.0,0.0,0.0,0.0,0.0,0.0,0.0,0.0,0.0,0.0,0.0,0.0,0.0,0.0,0.0,0.0,0.0,0.0,0.0,0.0,0.0,0.0,0.0,0.0,0.0,0.0,0.0,0.0,0.0,0.0,0.0,0.0,0.0,0.0,0.0,0.0,0.0,6.8431,7.0821,7.2514,7.343,7.3507,7.3507,7.343,7.0393,6.8547,0.0,0.0,0.0,0.0,0.0,0.0,0.0,0.0,0.0,0.0,0.0,0.0,0.0,0.0,0.0,0.0,0.0,0.0,0.0,0.0,0.0,0.0,0.0,0.0,0.0,0.0,0.0,0.0,0.0,0.0,0.0,0.0,0.0,0.0,0.0,0.0,0.0,0.0,0.0,0.0,0.0,5.8392,5.8366,5.8461,5.8175,0.0,0.0,5.9305,5.8315,6.0053,0.0,0.0,0.0,0.0,0.0,0.0,0.0,0.0,0.0,0.0,0.0,0.0,0.0,0.0,0.0,0.0,0.0,0.0,0.0,0.0,0.0,0.0,0.0,0.0,0.0,0.0,0.0,0.0,0.0,0.0,0.0,0.0,0.0,0.0,0.0,0.0,0.0,0.0,0.0,0.0,0.0,0.0,0.0,0.0,0.0,0.0,0.0,0.0,0.0,0.0,0.0,0.0,0.0,0.0,0.0,6.9015,6.9896,7.2822,7.4513,7.4895,7.4934,7.4895,7.4894,7.1587,6.9587,0.0,0.0,0.0,0.0,0.0,0.0,0.0,0.0,0.0,0.0,0.0,0.0,0.0,0.0,0.0,0.0,0.0,0.0,0.0,0.0,0.0,0.0,0.0,0.0,0.0,0.0,0.0,0.0,0.0,0.0,0.0,0.0,0.0,0.0,0.0,0.0,0.0,0.0,0.0,0.0,0.0,0.0,5.9254,5.9308,0.0,0.0,0.0,5.9386,5.8467,0.0,0.0,0.0,0.0,0.0,0.0,0.0,0.0,0.0,0.0,0.0,0.0,0.0,0.0,0.0,0.0,0.0,0.0,0.0,0.0,0.0,0.0,0.0,0.0,0.0,0.0,0.0,0.0,0.0,0.0,0.0,0.0,0.0,0.0,0.0,0.0,0.0,0.0,0.0,0.0,0.0,0.0,0.0,0.0,0.0,0.0,0.0,0.0,0.0,0.0,0.0,0.0,0.0,0.0,0.0,0.0,0.0,7.0977,7.4245,7.5976,7.5976,7.5976,7.5976,7.5938,7.3091,0.0,0.0,0.0,0.0,0.0,0.0,0.0,0.0,0.0,0.0,0.0,0.0,0.0,0.0,0.0,0.0,0.0,0.0,0.0,0.0,0.0,0.0,0.0,0.0,0.0,0.0,0.0,5.5984,0.0,0.0,0.0,0.0,0.0,0.0,0.0,0.0,0.0,0.0,0.0,0.0,0.0,0.0,6.016,5.9899,6.0014,6.0112,0.0,0.0,5.9654,5.9009,6.0512,6.0973,0.0,0.0,0.0,0.0,0.0,0.0,0.0,0.0,0.0,0.0,0.0,0.0,0.0,0.0,0.0,0.0,0.0,0.0,0.0,0.0,0.0,0.0,0.0,0.0,0.0,0.0,0.0,0.0,0.0,0.0,0.0,0.0,0.0,0.0,0.0,0.0,0.0,0.0,0.0,0.0,0.0,0.0,0.0,0.0,0.0,0.0,0.0,0.0,0.0,0.0,0.0,0.0,0.0,0.0,0.0,7.1014,7.4245,7.5976,7.5976,7.5976,7.5976,7.5976,7.4278,7.2509,0.0,0.0,0.0,0.0,0.0,0.0,0.0,0.0,0.0,0.0,0.0,0.0,0.0,0.0,0.0,0.0,0.0,0.0,0.0,0.0,0.0,0.0,0.0,0.0,0.0,0.0,0.0,0.0,0.0,0.0,0.0,0.0,0.0,0.0,0.0,0.0,0.0,0.0,0.0,0.0,0.0,6.061,5.9657,6.0328,6.1189,0.0,0.0,6.083,6.0666,6.2704,6.2971,5.8972,0.0,0.0,0.0,0.0,0.0,0.0,0.0,0.0,0.0,0.0,0.0,0.0,0.0,0.0,0.0,0.0,0.0,0.0,0.0,0.0,0.0,0.0,0.0,0.0,0.0,0.0,0.0,0.0,0.0,0.0,0.0,0.0,0.0,0.0,0.0,0.0,0.0,0.0,0.0,0.0,0.0,0.0,0.0,0.0,0.0,0.0,0.0,0.0,0.0,0.0,0.0,0.0,0.0,7.0897,7.0935,7.4282,7.5976,7.5976,7.5976,7.5976,7.5976,7.4355,7.2703,0.0,0.0,0.0,0.0,0.0,0.0,0.0,0.0,0.0,0.0,0.0,0.0,0.0,0.0,0.0,0.0,0.0,0.0,0.0,0.0,0.0,0.0,0.0,0.0,0.0,0.0,0.0,0.0,5.7591,5.7595,5.7062,0.0,0.0,0.0,0.0,0.0,0.0,0.0,0.0,0.0,0.0,6.1116,6.1865,6.2242,0.0,0.0,6.1849,6.1274,6.0163,6.1283,6.1358,5.8741,5.8103,0.0,0.0,0.0,0.0,0.0,0.0,0.0,0.0,0.0,0.0,0.0,0.0,0.0,0.0,0.0,0.0,0.0,0.0,0.0,0.0,0.0,0.0,0.0,0.0,0.0,0.0,0.0,0.0,0.0,0.0,0.0,0.0,0.0,0.0,0.0,0.0,0.0,0.0,0.0,0.0,0.0,0.0,0.0,0.0,0.0,0.0,0.0,0.0,0.0,0.0,0.0,0.0,7.0897,7.0897,7.4247,7.5976,7.5976,7.5976,7.5976,7.5976,7.4857,7.3434,0.0,0.0,0.0,0.0,0.0,0.0,0.0,0.0,0.0,0.0,0.0,0.0,0.0,0.0,0.0,0.0,0.0,0.0,0.0,0.0,0.0,0.0,0.0,0.0,0.0,0.0,0.0,0.0,5.7759,5.7673,5.7076,0.0,0.0,0.0,0.0,0.0,0.0,0.0,0.0,0.0,0.0,6.1821,6.2595,6.2607,6.2342,6.1803,6.1286,6.0637,5.9664,6.0012,5.9936,5.8507,0.0,0.0,0.0,0.0,0.0,0.0,0.0,0.0,0.0,0.0,0.0,0.0,0.0,0.0,0.0,0.0,0.0,0.0,0.0,0.0,0.0,0.0,0.0,0.0,0.0,0.0,0.0,0.0,0.0,0.0,6.0052,0.0,0.0,0.0,0.0,0.0,0.0,0.0,0.0,0.0,0.0,0.0,0.0,0.0,0.0,0.0,0.0,0.0,0.0,0.0,0.0,0.0,0.0,7.0888,7.0932,7.4257,7.5958,7.5956,7.5973,7.5963,7.5963,7.5938,7.5126,7.3421,0.0,0.0,0.0,0.0,0.0,0.0,0.0,0.0,0.0,0.0,0.0,0.0,0.0,0.0,0.0,0.0,0.0,0.0,0.0,0.0,0.0,0.0,0.0,0.0,0.0,0.0,5.5941,5.6507,5.7056,0.0,0.0,0.0,0.0,0.0,0.0,0.0,0.0,0.0,0.0,6.1211,6.2613,6.1113,6.0861,6.0908,6.0855,5.9494,5.8649,5.9399,5.951,5.9242,0.0,0.0,0.0,0.0,0.0,0.0,0.0,0.0,0.0,0.0,0.0,0.0,0.0,0.0,0.0,0.0,0.0,0.0,0.0,0.0,0.0,0.0,0.0,0.0,0.0,0.0,0.0,6.084,6.0899,0.0,0.0,0.0,0.0,0.0,0.0,0.0,0.0,0.0,0.0,0.0,6.6606,6.6801,0.0,0.0,0.0,0.0,0.0,0.0,0.0,0.0,0.0,0.0,0.0,0.0,7.0628,7.123,7.3628,7.4845,7.4892,7.521,7.5411,7.5413,7.5801,7.5006,7.295,0.0,0.0,0.0,0.0,0.0,0.0,0.0,0.0,0.0,0.0,0.0,0.0,0.0,0.0,0.0,0.0,0.0,0.0,0.0,0.0,0.0,0.0,0.0,0.0,0.0,5.6887,0.0,0.0,0.0,0.0,0.0,0.0,0.0,0.0,0.0,0.0,0.0,5.8709,5.9885,6.0013,6.0191,6.0712,6.0785,6.0794,0.0,0.0,0.0,0.0,0.0,0.0,0.0,0.0,0.0,0.0,0.0,0.0,0.0,0.0,5.7248,5.6717,5.7106,5.7492,5.7595,0.0,0.0,0.0,0.0,0.0,0.0,0.0,0.0,0.0,0.0,0.0,0.0,0.0,0.0,6.2818,0.0,6.3247,0.0,0.0,0.0,0.0,0.0,0.0,0.0,0.0,6.7391,6.8436,6.8628,6.8791,6.917,0.0,6.8883,6.7728,0.0,0.0,0.0,0.0,0.0,0.0,0.0,0.0,7.1242,7.1826,7.44,7.5764,7.5795,7.612,7.6185,7.5979,7.5872,7.508,7.3525,7.2193,7.0873,0.0,0.0,0.0,0.0,0.0,0.0,0.0,0.0,0.0,0.0,0.0,0.0,0.0,0.0,0.0,0.0,0.0,0.0,0.0,0.0,0.0,0.0,0.0,5.8444,0.0,0.0,0.0,0.0,0.0,0.0,0.0,0.0,0.0,5.8353,5.9047,6.003,6.1115,6.0806,6.0573,6.078,0.0,0.0,0.0,0.0,0.0,0.0,0.0,5.8432,5.7591,5.819,5.8769,5.8775,5.8997,5.9163,5.9184,0.0,0.0,5.778,5.7931,5.8273,5.8278,5.8508,5.8892,5.9395,5.9745,5.9972,0.0,0.0,0.0,0.0,0.0,0.0,0.0,0.0,6.625,6.5244,0.0,6.5508,0.0,0.0,0.0,0.0,0.0,6.764,0.0,0.0,7.2898,7.4449,7.2237,7.2073,7.2391,7.2717,6.9217,6.8108,6.9275,6.9366,0.0,0.0,0.0,0.0,0.0,0.0,7.2592,7.2791,7.6324,7.8341,7.8254,7.8341,7.8094,7.7527,7.6239,7.5413,7.5015,7.3572,7.2915,7.3288,7.0303,0.0,0.0,0.0,0.0,0.0,0.0,0.0,0.0,0.0,0.0,0.0,0.0,0.0,0.0,0.0,0.0,0.0,0.0,0.0,0.0,6.0829,0.0,0.0,0.0,0.0,0.0,0.0,0.0,0.0,0.0,0.0,5.8741,6.0515,6.2062,6.2019,0.0,0.0,0.0,0.0,6.1147,5.883,5.8429,5.8454,5.8501,5.9162,5.9895,6.0631,0.0,0.0,6.2065,6.1376,6.0882,6.09,6.2087,6.225,5.9095,5.8743,5.8765,5.8768,5.947,5.9701,5.9779,6.0713,6.1142,6.736,0.0,0.0,0.0,0.0,6.5705,6.6693,6.8695,6.8361,6.7813,6.721,6.7894,0.0,0.0,0.0,0.0,0.0,0.0,6.887,6.9348,7.1327,7.2318,7.2432,7.2406,7.25,7.2591,7.1514,7.1474,7.2388,7.2388,7.1012,6.8263,0.0,0.0,0.0,0.0,7.219,7.3919,7.5262,7.5907,7.5914,7.6361,7.672,7.6941,7.6564,7.5868,7.4812,7.5049,7.4122,7.1788,7.1883,0.0,0.0,0.0,0.0,0.0,0.0,0.0,0.0,0.0,0.0,0.0,0.0,0.0,0.0,0.0,0.0,0.0,0.0,0.0,5.9936,6.1508,6.1739,0.0,0.0,0.0,0.0,0.0,0.0,0.0,0.0,0.0,6.117,6.1096,6.1167,0.0,0.0,5.9852,5.91,5.971,6.0399,6.0902,6.0995,0.0,6.1765,6.2043,6.1892,6.0976,6.1522,6.2103,6.2114,6.2377,6.2568,6.2589,6.2986,6.2956,6.2214,6.2903,6.3626,6.3774,6.3937,6.4054,6.4091,6.4272,6.4243,6.9996,6.9049,6.8104,6.8068,6.8578,6.8131,6.9122,7.1041,7.0872,7.0292,6.9452,7.0394,6.9097,6.6256,6.6256,0.0,0.0,0.0,6.979,7.1085,7.1354,7.1843,7.247,7.2529,7.2694,7.2948,7.2658,7.3079,7.4151,7.3193,7.1934,7.0285,0.0,0.0,7.1577,7.24,7.3548,7.5014,7.6094,7.6604,7.6611,7.6722,7.6808,7.6849,7.6606,7.6025,7.5136,7.5414,7.4842,7.3124,7.2877,7.1882,0.0,0.0,0.0,0.0,0.0,0.0,0.0,0.0,0.0,0.0,0.0,6.289,6.1891,0.0,0.0,0.0,6.342,6.2594,6.2089,6.282,0.0,0.0,0.0,0.0,0.0,0.0,0.0,6.1569,6.2577,6.3123,6.2627,6.213,6.1926,6.2248,6.1444,6.0793,6.0779,0.0,6.2912,6.3955,6.409,6.427,6.4729,6.4819,6.4551,6.3948,6.4241,6.4586,6.4609,6.5029,6.5298,6.5319,6.5329,6.5425,6.5777,6.6726,6.6758,6.524,6.5168,6.536,6.5399,6.5653,6.5816,7.1347,7.112,6.8975,6.8872,7.0076,7.011,7.0961,7.2352,7.3078,7.2193,7.0307,7.2505,7.1509,6.8101,6.8068,0.0,7.0297,7.0293,7.1075,7.2492,7.2569,7.2609,7.2613,7.2646,7.3069,7.3791,7.3036,7.3479,7.4834,7.2812,7.2411,7.3747,7.3791,7.3632,7.3355,7.4801,7.5679,7.5826,7.7771,7.8905,7.9045,7.8509,7.7852,7.7125,7.6519,7.6099,7.5814,7.5165,7.5179,7.5955,7.3517,7.2472,7.3106,0.0,0.0,0.0,0.0,0.0,0.0,0.0,0.0,0.0,0.0,0.0,0.0,0.0,0.0,0.0,6.5941,0.0,6.5977,6.463,0.0,0.0,0.0,6.4129,6.5633,6.5194,6.4716,6.4521,0.0,0.0,6.3392,6.3469,6.3863,6.4777,6.4786,6.474,6.4775,6.6143,6.7346,6.7343,6.7356,6.7389,6.7386,6.7207,6.725,6.7799,6.841,6.8151,6.8143,6.8182,6.832,6.8159,6.835,6.856,6.9478,6.9473,6.8512,6.4889,6.4779,6.5243,6.5359,6.5902,6.6569,7.1861,7.1307,7.1358,7.0881,7.011,7.011,7.0297,7.069,7.0859,7.0617,7.018,7.1345,7.1675,7.1358,7.1354,7.1541,7.1941,7.1941,7.2129,7.2529,7.3123,7.3413,7.3441,7.403,7.4423,7.4584,7.4415,7.4841,7.5763,7.5245,7.4837,7.4617,7.4617,7.3967,7.2771,7.3097,7.3926,7.5117,7.5646,7.6522,7.7692,7.7601,7.747,7.7282,7.7102,7.6716,7.6066,7.6306,7.5794,7.4412,7.4881,7.4099,7.1615,7.0599,0.0,0.0,0.0,0.0,0.0,0.0,0.0,0.0,0.0,6.2757,6.1495,0.0,6.3463,0.0,6.6266,6.7548,6.6904,6.704,0.0,0.0,6.5506,6.5181,6.494,6.5875,6.5755,6.3832,6.458,6.5011,6.4357,6.4856,6.5839,6.7229,6.6394,6.5819,6.6457,6.8009,6.9301,6.9858,6.9975,6.998,6.9886,6.8898,6.8197,6.8349,6.8399,6.8401,6.8405,6.8396,6.8393,6.8378,6.8388,6.8751,6.9624,6.9704,6.9664,6.9164,6.9283,6.9202,6.8627,6.8642,6.8663,7.2789,7.2382,7.2455,7.1754,7.066,7.0987,7.1174,7.1171,7.1153,7.097,7.0653,7.0714,7.1231,7.1934,7.1975,7.2338,7.301,7.305,7.3233,7.3586,7.4034,7.4232,7.4247,7.4698,7.5105,7.5427,7.5439,7.5869,7.6599,7.6636,7.6408,7.5964,7.5968,7.516,7.359,7.2859,7.2951,7.3834,7.4545,7.5693,7.7244,7.7322,7.6955,7.6265,7.6221,7.5674,7.4548,7.4463,7.4023,7.3104,7.3576,7.3059,7.1231,7.0363,6.9373,0.0,0.0,0.0,0.0,0.0,0.0,0.0,0.0,0.0,0.0,0.0,6.4455,6.4474,6.6873,6.7894,6.6668,6.7002,6.7193,6.7049,6.703,6.7086,6.7363,6.7551,6.7289,6.6284,6.6667,6.6971,6.6896,6.7282,6.819,6.9863,6.9278,6.8857,6.938,7.0544,7.1678,7.2456,7.2584,7.2463,7.2121,7.0937,7.0085,7.0082,7.0094,7.0094,7.011,7.042,7.0691,7.063,7.0382,7.0384,7.1194,7.105,7.1091,7.1781,7.2051,7.1591,7.0512,7.0231,7.0108,7.3861,7.3784,7.3123,7.2415,7.1817,7.2522,7.2562,7.2176,7.2195,7.1847,7.1251,7.0578,7.0711,7.1457,7.1454,7.2232,7.3531,7.3637,7.4074,7.4724,7.4944,7.5061,7.5052,7.5178,7.5559,7.6253,7.6264,7.6595,7.7285,7.7322,7.7252,7.7138,7.7138,7.6412,7.4907,7.3512,7.2782,7.2819,7.4398,7.5896,7.7241,7.6995,7.6151,7.4834,7.4654,7.392,7.2565,7.1828,7.1644,7.203,7.1346,7.1072,7.1326,6.9859,6.8909,0.0,6.738,0.0,0.0,0.0,0.0,0.0,0.0,0.0,0.0,6.595,6.6002,6.6205,6.7548,6.7894,6.6631,6.6516,6.7148,6.8533,6.8732,6.9269,7.0503,6.9547,6.8909,6.9466,6.9058,6.897,6.9279,6.9744,7.0616,7.1792,7.2392,7.261,7.287,7.3366,7.4035,7.4899,7.5017,7.4643,7.3736,7.2976,7.2441,7.2364,7.2234,7.2361,7.2272,7.2858,7.3399,7.3313,7.2708,7.2587,7.3502,7.3014,7.2823,7.3624,7.3817,7.3278,7.1785,7.1309,7.1501,7.465,7.4654,7.4503,7.4357,7.4243,7.4393,7.2966,7.0557,7.0555,7.0851,7.1294,7.1128,7.1511,7.2235,7.2268,7.2459,7.2749,7.3421,7.3788,7.3964,7.5249,7.5873,7.5913,7.6555,7.6907,7.7071,7.7094,7.7138,7.7322,7.7322,7.6955,7.6346,7.6346,7.5865,7.4944,0.0,0.0,0.0,7.6014,7.6999,7.7215,7.5355,7.4221,7.3935,7.3303,0.0,7.2529,7.2338,7.2043,7.1511,7.1165,0.0,0.0,0.0,0.0,0.0,0.0,0.0,0.0,0.0,0.0,0.0,6.8105,6.7288,6.6893,6.628,6.646,6.7768,6.8241,6.8814,6.9819,6.9975,7.0096,7.0373,7.0435,7.0301,7.0023,7.0203,7.0008,6.8818,6.9706,6.9973,6.9085,7.0398,7.1812,7.2332,7.3979,7.5486,7.6141,7.5775,7.5883,7.6643,7.6727,7.62,7.47,7.4359,7.4013,7.3477,7.3247,7.3295,7.3378,7.3454,7.355,7.3649,7.3369,7.3576,7.4348,7.4317,7.4436,7.5319,7.5472,7.5013,7.3393,7.3014,7.3061,7.6074,0.0,7.6078,7.5858,0.0,7.5498,7.4364,7.2455,7.2028,7.1657,7.1251,7.0896,7.1147,7.1898,7.1898,7.2558,7.3696,7.4103,7.4735,7.5502,7.6306,7.6673,7.6717,7.7105,7.7542,7.7917,7.7913,7.8141,7.8512,7.8548,7.8336,7.7932,7.7936,7.7712,7.7345,7.7721,7.7306,7.6114,7.687,7.7684,7.8434,7.7345,7.6321,7.5502,7.4694,0.0,0.0,0.0,0.0,0.0,0.0,0.0,0.0,7.0999,0.0,7.0906,7.0639,7.0993,7.2068,7.1795,7.1949,7.2727,7.1997,7.0777,6.9098,6.9369,6.9991,7.0808,7.0549,7.0631,7.1402,7.1168,7.1056,7.1451,7.1134,7.1015,7.1447,7.1161,7.0941,7.0971,7.1268,7.1321,7.0968,7.1933,7.2983,7.3432,7.4877,7.6366,7.7114,7.729,7.7457,7.782,7.7881,7.7597,7.6746,7.6167,7.5859,7.5482,7.5374,7.5397,7.5376,7.573,7.5969,7.5949,7.5641,7.5542,7.5817,7.5665,7.5476,7.5861,7.5976,7.5782,7.4897,7.4742,7.4742,7.7322,7.7322,7.7322,7.6922,7.6309,7.6313,7.5854,7.5032,0.0,0.0,0.0,7.1225,7.1301,7.1927,7.1934,7.3032,7.4867,7.5201,7.6041,7.7322,7.7619,7.7729,7.7737,7.7766,7.8104,7.8776,7.8817,7.9143,7.9779,7.9816,7.9886,8.0,7.9992,8.0069,8.0257,8.0879,8.0214,7.8272,7.7867,7.8386,7.9727,7.9368,7.8483,7.7105,7.6306,7.5175,7.3751,7.3046,7.2639,7.2506,7.2798,7.2507,7.1477,7.1649,7.1535,7.0944,7.0858,7.1704,7.3645,7.3782,7.4443,7.5903,7.5341,7.3968,7.1708,7.2779,7.3498,7.3507,7.286,7.2441,7.2402,7.1787,7.1646,7.2363,7.1793,7.1946,7.3188,7.2423,7.213,7.321,7.3103,7.2977,7.3317,7.3894,7.4234,7.4771,7.5937,7.6976,7.7808,7.8427,7.8686,7.87,7.8719,7.8713,7.8598,7.7982,7.7559,7.7367,7.7411,7.7526,7.7599,7.8041,7.8432,7.8196,7.7909,7.7524,7.7442,7.6942,7.648,7.644,7.6438,7.6438,7.6438,7.6442,7.6328,7.7322,7.7322,7.7322,7.7212,7.7142,7.7138,7.6648,7.5902,7.5092,7.4599,7.437,7.4283,7.4313,7.4393,7.439,7.4577,7.4981,7.6335,7.7065,7.7395,7.8772,7.9445,7.9441,7.9441,7.9518,7.9633,7.9629,7.9665,7.9779,7.9816,8.0139,8.0755,8.0828,8.1158,8.1827,8.199,8.1843,8.1489,8.0178,7.9556,7.9771,7.7716,7.65,7.6273,7.5572,7.4658,7.3747,7.3641,7.3193,7.2536,7.1917,7.2082,7.3222,7.2612,7.267,7.383,7.3807,7.4043,7.4828,7.4888,7.52,7.5899,7.5896,7.5344,7.4279,7.3764,7.3503,7.3502,7.3432,7.3317,7.3317,7.314,7.3086,7.3264,7.3198,7.3257,7.3575,7.3902,7.396,7.3752,7.4714,7.4861,7.4047,7.5361,7.6059,7.5498,7.7141,7.9433,7.9977,7.9992,7.9679,7.9594,7.961,7.9625,7.9552,7.8904,7.8482,7.8327,7.8376,7.8468,7.8466,7.8585,7.8708,7.8567,7.846,7.8362,7.8319,7.8253,7.8021,7.7942,7.7946,7.798,7.7944,7.7988,7.7645,7.7322,7.7322,7.7322,7.7322,7.7322,7.7322,7.7115,7.6714,7.6366,7.569,7.4924,7.4875,7.4879,7.49,7.49,7.538,7.6257,7.6991,7.7807,7.8658,7.9445,7.9816,7.9816,7.9816,8.0032,8.0424,8.0424,8.0685,8.106,8.1093,8.1309,8.1636,8.164,8.1864,8.219,8.2186,8.2186,8.2186,8.1481,8.1078,8.1089,7.9988,7.94,7.94,7.8618,7.8031,7.7667,7.7238,7.6651,7.5836,7.5455,7.5175,7.4995,7.4562,7.4607,7.5192,7.5067,7.5173,7.5693,7.5656,7.5698,7.5976,7.5976,7.5857,7.546,7.5064,7.4835,7.4817,7.4434,7.4165,7.4124,7.3747,7.3686,7.4102,7.3778,7.3883,7.4725,7.5152,7.5425,7.5582,7.6227,7.6401,7.567,7.6553,7.7096,7.6407,7.8388,8.0113,8.0941,8.0773,8.0496,8.0496,8.0508,8.0512,8.0473,8.021,7.9942,7.9906,7.9904,7.9904,7.9902,7.9915,7.9904,7.9859,7.9544,7.9236,7.9188,7.8781,7.8559,7.8484,7.8484,7.8484,7.8484,7.8488,7.8228,7.7322,7.7322,7.7322,7.7322,7.7322,7.7322,7.7322,7.7322,7.7285,7.6598,7.5514,7.5451,7.5424,7.5446,7.5637,7.6408,7.7546,7.7986,7.8838,7.9996,8.0249,8.0363,8.0322,8.033,8.0653,8.1228,8.1269,8.1599,8.2113,8.2186,8.2186,8.2186,8.2186,8.2186,8.2186,8.2186,8.2186,8.2186,8.2186,8.2186,8.2186,8.2186,8.2186,8.215,8.1599,8.1195,8.1004,8.0388,7.9694,7.8944,7.8699,7.8002,7.6746,7.6123,7.5831,7.5821,7.5384,7.5493,7.6298,7.6354,7.6412,7.657,7.657,7.6568,7.6557,7.6553,7.6363,7.6016,7.5359,7.5011,7.4974,7.4703,7.4635,7.5157,7.4921,7.53,7.6335,7.6419,7.6622,7.7364,7.7271,7.7057,7.7442,7.7557,7.7748,7.8317,7.9144,8.0102,8.0892,8.1091,8.1091,8.1054,8.0939,8.086,8.1014,8.0821,8.0785,8.1014,8.1014,8.0937,8.0937,8.1014,8.105,8.0892,8.0535,8.014,8.0027,7.9619,7.9248,7.9252,7.929,7.9211,7.9252,7.9252,7.8917,7.7322,7.7322,7.7322,7.7322,7.7322,7.7322,7.7322,7.7322,7.7322,7.7241,7.7013,7.7082,7.7042,7.7171,7.781,7.8218,7.8585,7.998,8.0673,8.0938,8.164,8.1974,8.1901,8.1933,8.2007,8.2043,8.2043,8.2076,8.2186,8.2186,8.2186,8.2186,8.2186,8.2186,8.2186,8.2186,8.2186,8.2186,8.2186,8.2186,8.2186,8.2186,8.2186,8.2186,8.2117,8.1746,8.1077,8.093,8.051,7.9741,7.8999,7.8549,7.817,7.6283,7.5374,7.5992,7.4741,7.4656,7.6474,7.7162,7.7638,7.8195,7.8151,7.8135,7.8175,7.8209,7.7596,7.6438,7.5974,7.5938,7.594,7.6442,7.6834,7.6894,7.7409,7.812,7.803,7.7638,7.7482,7.8293,7.7339,7.6709,7.8215,7.8482,7.9058,8.0167,8.0033,8.0217,8.0892,8.1091,8.1091,8.0975,8.0514,8.0398,8.0823,8.0435,8.0475,8.0937,8.1091,8.1091,8.1091,8.1091,8.1091,8.105,8.1012,8.0852,8.089,8.086,8.0744,8.0477,8.0554,8.0744,8.0823,8.0708,8.0177,7.7766,7.7322,7.7322,7.7322,7.7322,7.7322,7.7322,7.7322,7.7322,7.7322,7.7322,7.7322,7.7322,7.7326,7.7693,7.8328,7.9331,7.9992,8.0832,8.1676,8.2043,8.2186,8.2186,8.2186,8.2186,8.2186,8.2186,8.2186,8.2186,8.2186,8.2186,8.2186,8.2186,8.2186,8.2186,8.2186,8.2186,8.2186,8.2186,8.2186,8.2186,8.2186,8.2186,8.2186,8.2186,8.2048,8.1746,8.1713,8.1334,8.0572,8.0213,7.9597,7.8655,7.764,7.6987,7.684,7.6435,7.6318,7.6673,7.7267,7.7544,7.747,7.7785,7.7973,7.7998,7.8273,7.8175,7.763,7.7478,7.748,7.7482,7.7792,7.8026,7.8034,7.8311,7.8499,7.8465,7.8698,7.8927,7.9198,7.9165,7.9169,7.9863,8.0017,8.0325,8.0975,8.0733,8.0814,8.1091,8.1091,8.1091,8.1054,8.0785,8.0746,8.0977,8.0862,8.0783,8.0975,8.1091,8.1091,8.1091,8.1091,8.1091,8.1091,8.1091,8.1091,8.105,8.1091,8.1091,8.1091,8.1091,8.1091,8.1091,8.1091,8.0669,7.8442,7.7693,7.7428,7.7322,7.7322,7.7322,7.7322,7.7322,7.7322,7.7322,7.7322,7.7322,7.7322,7.7358,7.7766,7.8765,8.0028,8.0363,8.1056,8.2113,8.2186,8.2186,8.2186,8.2186,8.2186,8.2186,8.2186,8.2186,8.2186,8.2186,8.2186,8.2186,8.2186,8.2186,8.2186,8.2186,8.2186,8.2186,8.2186,8.2186,8.2186,8.2186,8.2186,8.2186,8.2186,8.2186,8.2186,8.2186,8.1933,8.1338,8.1106,8.0475,7.9352,7.8852,7.8224,7.7443,7.7564,7.7596,7.7139,7.769,7.7941,7.7727,7.8206,7.8545,7.8642,7.8948,7.9204,7.9206,7.9213,7.9098,7.8523,7.8713,7.8869,7.8876,7.9029,7.9192,7.9277,7.9661,7.9842,8.0154,7.9988,8.0517,8.0746,8.1056,8.1441,8.1449,8.1647,8.1805,8.1801,8.1835,8.1827,8.1787,8.1825,8.1595,8.1244,8.1052,8.1091,8.1091,8.1091,8.1091,8.1091,8.1091,8.1091,8.1091,8.1091,8.1091,8.1091,8.1091,8.1091,8.1091,8.1091,8.1091,8.1091,8.1091,8.1091,7.9258,7.8479,7.7656,7.7322,7.7322,7.7322,7.7322,7.7322,7.7322,7.7322,7.7322,7.7322,7.7322,7.7469,7.8887,8.0102,8.0897,8.1562,8.197,8.2186,8.2186,8.2186,8.2186,8.2186,8.2186,8.2186,8.2186,8.2186,8.2186,8.2186,8.2186,8.2186,8.2186,8.2186,8.2186,8.2186,8.2186,8.2186,8.2186,8.2186,8.2186,8.2186,8.2186,8.2186,8.2186,8.2186,8.2186,8.2186,8.2154,8.2117,8.1448,8.0955,8.0735,7.9439,7.8258,7.7521,7.7403,7.7674,7.816,7.8688,7.9128,7.9703,8.0063,8.0765,8.0444,8.0613,8.0737,8.0898,8.0748,8.0208,7.9021,7.9361,7.9717,7.9779,8.0456,8.0785,8.0894,8.0217,8.0258,8.0552,7.9946,7.9712,8.0012,8.1281,8.2103,8.239,8.2911,8.3343,8.325,8.3305,8.3287,8.3285,8.321,8.2943,8.1516,8.1477,8.1398,8.1246,8.1364,8.1129,8.1091,8.1091,8.1091,8.1091,8.1091,8.1091,8.1091,8.1091,8.1091,8.1091,8.1091,8.1091,8.1091,8.1091,8.1091,7.9764,7.8593,7.8255,7.7807,7.7322,7.7322,7.7322,7.7322,7.7322,7.7322,7.7322,7.7322,7.7619,7.8181,7.9294,7.9959,8.0285,8.1052,8.1713,8.2154,8.2186,8.2186,8.2186,8.2186,8.2186,8.2186,8.2186,8.2186,8.2186,8.2186,8.2186,8.2186,8.2186,8.2186,8.2186,8.2186,8.2186,8.2186,8.2186,8.2186,8.2186,8.2186,8.2186,8.2186,8.2186,8.2186,8.2186,8.2186,8.2186,8.2186,8.1897,8.153,8.0967,7.996,7.9255,7.8926,7.8777,7.8652,7.8514,7.8568,7.8512,7.8412,7.9284,8.001,8.0024,8.0613,8.1091,8.1129,8.1091,8.0708,8.0439,8.0477,8.0635,8.0679,8.0906,8.1129,8.105,8.0812,8.0773,8.1012,8.0866,8.1133,8.1402,8.2402,8.3101,8.3149,8.3427,8.3609,8.3617,8.3591,8.3706,8.3593,8.3577,8.3409,8.2945,8.2714,8.2599,8.2101,8.187,8.1562,8.1447,8.1329,8.1329,8.1289,8.121,8.117,8.117,8.1091,8.1091,8.1091,8.1091,8.1091,8.1091,8.1091,8.1091,8.0384,7.9396,7.8809,7.8259,7.7733,7.7395,7.7322,7.7322,7.7322,7.7322,7.7322,7.7322,7.7807,7.8593,7.9184,7.9771,8.0212,8.1016,8.1672,8.2158,8.2186,8.2186,8.2186,8.2186,8.2186,8.2186,8.2186,8.2186,8.2186,8.2186,8.2186,8.2186,8.2186,8.2186,8.2186,8.2186,8.2186,8.2186,8.2186,8.2186,8.2186,8.2186,8.2186,8.2186,8.2186,8.2186,8.2186,8.2186,8.2186,8.2186,8.2186,8.1933,8.1379,8.0612,8.0171,8.0169,7.9822,7.9438,7.9087,7.9047,7.8902,7.85,7.9366,8.0035,8.0305,8.1073,8.1587,8.1823,8.1902,8.1904,8.1902,8.19,8.1787,8.1562,8.1487,8.1645,8.1882,8.1914,8.1945,8.2056,8.2364,8.2635,8.2828,8.3482,8.3911,8.4032,8.4182,8.4385,8.4394,8.4384,8.4384,8.4427,8.4498,8.4555,8.4403,8.4364,8.3714,8.3139,8.2732,8.2345,8.1995,8.1839,8.1677,8.156,8.1445,8.1327,8.121,8.1129,8.1091,8.1091,8.1091,8.1091,8.1091,8.1091,8.1091,8.1008,8.0673,7.9282,7.8662,7.8405,7.7733,7.7358,7.7322,7.7322,7.7322,7.7322,7.7355,7.7909,7.8516,7.8919,7.958,8.0824,8.1709,8.208,8.2186,8.2186,8.2186,8.2186,8.2186,8.2186,8.2186,8.2186,8.2186,8.2186,8.2186,8.2186,8.2186,8.2186,8.2186,8.2186,8.2186,8.2186,8.2186,8.2186,8.2186,8.2186,8.2186,8.2186,8.2186,8.2186,8.2186,8.2186,8.2186,8.2186,8.2186,8.2186,8.2186,8.2043,8.1415,8.1008,8.0901,8.0292,7.9867,7.9882,8.0204,8.0319,8.0289,8.1047,8.1488,8.1815,8.2186,8.2581,8.2924,8.315,8.3285,8.3291,8.3261,8.2986,8.2469,8.2315,8.2628,8.3214,8.3506,8.3559,8.3443,8.3522,8.3599,8.3789,8.4362,8.4869,8.5,8.5377,8.5743,8.5696,8.5654,8.5931,8.5931,8.5664,8.5476,8.5745,8.5938,8.498,8.414,8.3775,8.34,8.3125,8.2888,8.2629,8.2472,8.2333,8.2216,8.1558,8.1439,8.1244,8.1206,8.1168,8.1091,8.1091,8.1091,8.1091,8.1521,8.0971,8.0457,7.958,7.8626,7.8291,7.788,7.7326,7.7322,7.7322,7.742,7.7928,7.8351,7.8838,7.9686,8.0494,8.1085,8.1823,8.2186,8.219,8.2186,8.2186,8.2186,8.2186,8.2186,8.2186,8.2186,8.2186,8.2186,8.2186,8.2186,8.2186,8.2186,8.2186,8.2186,8.2186,8.2186,8.2186,8.2186,8.2186,8.2186,8.2186,8.2186,8.2186,8.2186,8.2186,8.2186,8.2186,8.2186,8.2186,8.2186,8.2186,8.2117,8.1966,8.1819,8.1746,8.1085,8.0612,8.0566,8.0296,8.0189,8.0228,8.0692,8.0997,8.1309,8.1738,8.2071,8.2263,8.2231,8.2353,8.2779,8.291,8.2997,8.3194,8.3206,8.3289,8.3656,8.3674,8.3601,8.3668,8.4134,8.4439,8.463,8.5205,8.5632,8.5642,8.5942,8.6091,8.6091,8.6091,8.6089,8.6089,8.6091,8.6091,8.6091,8.6091,8.5632,8.5016,8.4684,8.4393,8.4123,8.3921,8.3664,8.3346,8.3208,8.2832,8.2212,8.1904,8.1787,8.136,8.1244,8.1168,8.1129,8.1091,8.1091,8.1897,8.1456,8.1122,8.0461,7.9474,7.9217,7.8552,7.7851,7.7768,7.7613,7.7501,7.7862,7.8314,7.8687,7.9352,8.0163,8.093,8.1277,8.1644,8.2121,8.2186,8.2186,8.2186,8.2186,8.2186,8.2186,8.2186,8.2186,8.2186,8.2186,8.2186,8.2186,8.2186,8.2186,8.2186,8.2186,8.2186,8.2186,8.2186,8.2186,8.2186,8.2186,8.2186,8.2186,8.2186,8.2186,8.2186,8.2186,8.2186,8.2186,8.2186,8.2186,8.2186,8.2186,8.2186,8.208,8.1786,8.1452,8.1379,8.1056,8.0693,8.0771,8.1027,8.1406,8.1641,8.2024,8.223,8.2519,8.2663,8.2734,8.3117,8.3197,8.3475,8.4107,8.4123,8.4209,8.4398,8.4503,8.4554,8.4739,8.5055,8.5282,8.5512,8.5705,8.6089,8.6091,8.6091,8.6091,8.6091,8.6091,8.6091,8.6091,8.6091,8.6091,8.6091,8.6091,8.6091,8.5818,8.5549,8.5251,8.4988,8.4937,8.4765,8.4135,8.3834,8.3391,8.2814,8.2787,8.2676,8.2095,8.1516,8.14,8.14,8.1129,8.1091,8.2186,8.2117,8.1411,8.104,8.0787,8.0139,7.9404,7.8715,7.8653,7.8189,7.7594,7.7712,7.8006,7.8332,7.8288,7.9128,8.0494,8.0285,8.0693,8.1566,8.186,8.186,8.1986,8.2109,8.2186,8.2186,8.2186,8.2186,8.2186,8.2186,8.2186,8.2186,8.2186,8.2186,8.2186,8.2186,8.2186,8.2186,8.2186,8.2186,8.2186,8.2186,8.2186,8.2186,8.2186,8.2186,8.2186,8.2186,8.2186,8.2186,8.2186,8.2186,8.2186,8.2186,8.2186,8.2186,8.2186,8.2113,8.215,8.1966,8.1974,8.1933,8.1978,8.2435,8.2728,8.2759,8.2984,8.3468,8.3646,8.3844,8.3891,8.3944,8.4254,8.4921,8.4948,8.5227,8.5903,8.5972,8.578,8.5895,8.6053,8.6091,8.5976,8.6051,8.6089,8.6091,8.6091,8.6091,8.6091,8.6091,8.6091,8.6091,8.6091,8.6091,8.6091,8.6091,8.6091,8.6051,8.5893,8.578,8.563,8.5622,8.5613,8.4983,8.4473,8.4026,8.3692,8.3668,8.3328,8.2712,8.2249,8.1902,8.1631,8.1398,8.1091,8.2186,8.2154,8.197,8.1558,8.1048,8.0751,8.0208,7.9538,7.9487,7.9003,7.8485,7.8908,7.8874,7.863,7.8993,7.9547,7.9955,7.989,7.9926,8.0367,8.0436,8.0796,8.1383,8.1937,8.2186,8.2186,8.2186,8.2186,8.2186,8.2186,8.2186,8.2186,8.2186,8.2186,8.2186,8.2186,8.2186,8.2186,8.2186,8.2186,8.2186,8.2186,8.2186,8.2186,8.2186,8.2186,8.2186,8.2186,8.2186,8.2186,8.2186,8.2186,8.2186,8.2186,8.2186,8.2186,8.2186,8.2186,8.2186,8.2186,8.2186,8.2186,8.2186,8.2272,8.2435,8.2439,8.256,8.2713,8.2738,8.2965,8.3359,8.3498,8.3965,8.4958,8.5296,8.5717,8.6019,8.6091,8.6091,8.6091,8.6091,8.6091,8.6091,8.6091,8.6091,8.6091,8.6091,8.6091,8.6091,8.6091,8.6091,8.6091,8.6091,8.6091,8.6091,8.6091,8.6091,8.6091,8.6051,8.6012,8.5938,8.5933,8.5931,8.5735,8.5419,8.5004,8.4698,8.4551,8.3937,8.3403,8.2901,8.2516,8.2016,8.167,8.1285,8.2186,8.2186,8.2186,8.1933,8.1521,8.1485,8.1048,8.04,8.0268,7.9835,7.9322,7.958,7.9539,7.9151,7.9221,7.9515,7.9739,7.9445,7.9478,7.9816,7.9853,8.0311,8.1033,8.1815,8.2186,8.2186,8.219,8.2186,8.2186,8.2186,8.2186,8.2186,8.2186,8.2186,8.2186,8.2186,8.2186,8.2186,8.2186,8.2186,8.2186,8.2186,8.2186,8.2186,8.2186,8.2186,8.2186,8.2186,8.2186,8.2186,8.2186,8.2186,8.2186,8.2186,8.2186,8.2186,8.2186,8.2186,8.2186,8.2186,8.2186,8.2186,8.2186,8.2186,8.219,8.2186,8.2186,8.2235,8.219,8.2411,8.2707,8.3023,8.3542,8.4177,8.4877,8.5527,8.6004,8.6091,8.6091,8.6091,8.6091,8.6091,8.6091,8.6091,8.6091,8.6091,8.6091,8.6091,8.6091,8.6091,8.6091,8.6091,8.6091,8.6091,8.6091,8.6091,8.6091,8.6091,8.6091,8.6091,8.6091,8.6091,8.6089,8.6051,8.6089,8.5974,8.5551,8.5203,8.4935,8.436,8.3668,8.3014,8.2516,8.1985,8.1562,8.2186,8.2186,8.2186,8.2186,8.215,8.215,8.1746,8.1212,8.1098,8.067,8.0053,7.9951,7.9886,7.9739,7.9221,7.918,7.9739,7.9033,7.8997,7.9261,7.9518,7.9923,8.0511,8.1281,8.1738,8.1913,8.2072,8.2121,8.2154,8.2186,8.2186,8.2186,8.2186,8.2186,8.2186,8.2186,8.2186,8.2186,8.2186,8.2186,8.2186,8.2186,8.2186,8.2186,8.2186,8.2186,8.2186,8.2186,8.2186,8.2186,8.2186,8.2186,8.2186,8.2186,8.2186,8.2186,8.2186,8.2186,8.2186,8.2186,8.2186,8.2186,8.2186,8.2186,8.2186,8.2186,8.2186,8.2186,8.2186,8.2243,8.2324,8.2749,8.3118,8.3429,8.3873,8.4643,8.564,8.599,8.601,8.6091,8.6091,8.6091,8.6091,8.6091,8.6091,8.6091,8.6091,8.6091,8.6091,8.6091,8.6091,8.6091,8.6091,8.6091,8.6091,8.6091,8.6091,8.6091,8.6091,8.6091,8.6091,8.6091,8.6091,8.6091,8.6091,8.6091,8.5974,8.5743,8.5551,8.5243,8.4551,8.3706,8.2941,8.238,8.1924,8.2186,8.2186,8.2186,8.2186,8.2186,8.219,8.208,8.1929,8.1913,8.1432,8.0885,8.0756,8.0413,7.9849,7.9706,7.9665,7.9739,7.9033,7.8405,7.7876,7.8589,7.8889,7.9289,8.0023,8.069,8.1139,8.1281,8.1599,8.2039,8.2186,8.2186,8.2186,8.2186,8.2186,8.2186,8.2186,8.2186,8.2186,8.2186,8.2186,8.2186,8.2186,8.2186,8.2186,8.2186,8.2186,8.2186,8.2186,8.2186,8.2186,8.2186,8.2186,8.2186,8.2186,8.2186,8.2186,8.2186,8.2186,8.2186,8.2186,8.2186,8.2186,8.2186,8.2186,8.2186,8.2186,8.2186,8.2186,8.2186,8.2186,8.2227,8.2313,8.2647,8.3063,8.3302,8.3906,8.4977,8.5334,8.5572,8.5931,8.6091,8.6091,8.6091,8.6091,8.6091,8.6091,8.6091,8.6091,8.6091,8.6091,8.6091,8.6091,8.6091,8.6091,8.6091,8.6091,8.6091,8.6091,8.6091,8.6091,8.6091,8.6091,8.6091,8.6091,8.6091,8.6091,8.6091,8.6091,8.5859,8.5589,8.532,8.4476,8.3676,8.2999,8.224,8.2186,8.2186,8.2186,8.2186,8.2186,8.2186,8.2186,8.2186,8.2186,8.1966,8.1632,8.1546,8.1306,8.0905,8.0542,8.0359,8.0175,7.9515,7.8703,7.8214,7.8442,7.8355,7.8195,7.8926,7.9796,8.0857,8.1444,8.1819,8.2117,8.2186,8.2186,8.2186,8.2186,8.2186,8.2186,8.2186,8.2186,8.2186,8.2186,8.2186,8.2186,8.2186,8.2186,8.2186,8.2186,8.2186,8.2186,8.2186,8.2186,8.2186,8.2186,8.2186,8.2186,8.2186,8.2186,8.2186,8.2186,8.2186,8.2186,8.2186,8.2186,8.2186,8.2186,8.2186,8.2186,8.2186,8.2186,8.2186,8.2186,8.2186,8.2186,8.219,8.2439,8.2602,8.2729,8.3188,8.4062,8.4725,8.5376,8.5893,8.6091,8.6091,8.6091,8.6091,8.6091,8.6091,8.6091,8.6091,8.6091,8.6091,8.6091,8.6091,8.6091,8.6091,8.6091,8.6091,8.6091,8.6091,8.6091,8.6091,8.6091,8.6091,8.6091,8.6091,8.6091,8.6091,8.6091,8.6091,8.6091,8.5897,8.5553,8.5016,8.4364,8.3601,8.2805,8.2186,8.2186,8.2186,8.2186,8.2186,8.2186,8.2186,8.2186,8.2186,8.215,8.2186,8.2186,8.2035,8.197,8.1452,8.1154,8.0791,8.0359,7.9547,7.8887,7.8593,7.8315,7.8065,7.869,7.9547,8.0835,8.1484,8.1897,8.2117,8.2186,8.2186,8.2186,8.2186,8.2186,8.2186,8.2186,8.2186,8.2186,8.2186,8.2186,8.2186,8.2186,8.2186,8.2186,8.2186,8.2186,8.2186,8.2186,8.2186,8.2186,8.2186,8.2186,8.2186,8.2186,8.2186,8.2186,8.2186,8.2186,8.2186,8.2186,8.2186,8.2186,8.2186,8.2186,8.2186,8.2186,8.2186,8.2186,8.2186,8.2186,8.2186,8.2186,8.2186,8.2231,8.2227,8.2521,8.3244,8.4274,8.5109,8.5721,8.5982,8.6091,8.6091,8.6091,8.6091,8.6091,8.6091,8.6091,8.6091,8.6091,8.6091,8.6091,8.6091,8.6091,8.6091,8.6091,8.6091,8.6091,8.6091,8.6091,8.6091,8.6091,8.6091,8.6091,8.6091,8.6091,8.6091,8.6091,8.6091,8.6091,8.5897,8.5399,8.482,8.4164,8.3291,8.2186,8.2186,8.2186,8.2186,8.2186,8.2186,8.2186,8.2186,8.2186,8.2186,8.2186,8.2186,8.2186,8.2117,8.2117,8.1636,8.1158,8.0832,8.0355,7.9584,7.9111,7.8616,7.8612,7.9212,7.9822,8.01,8.0927,8.1676,8.208,8.2186,8.2186,8.2186,8.2186,8.2186,8.2186,8.2186,8.2186,8.2186,8.2186,8.2186,8.2186,8.2186,8.2186,8.2186,8.2186,8.2186,8.2186,8.2186,8.2186,8.2186,8.2186,8.2186,8.2186,8.2186,8.2186,8.2186,8.2186,8.2186,8.2186,8.2186,8.2186,8.2186,8.2186,8.2186,8.2186,8.2186,8.2186,8.2186,8.2186,8.2186,8.2186,8.2186,8.2186,8.2186,8.2231,8.2439,8.3096,8.3893,8.4608,8.5202,8.5655,8.6091,8.6091,8.6091,8.6091,8.6091,8.6091,8.6091,8.6091,8.6091,8.6091,8.6091,8.6091,8.6091,8.6091,8.6091,8.6091,8.6091,8.6091,8.6091,8.6091,8.6091,8.6091,8.5905,8.598,8.6091,8.6091,8.6089,8.6091,8.6091,8.5974,8.5818,8.516,8.4425,8.3468,8.2186,8.2186,8.2186,8.2186,8.2186,8.2186,8.2186,8.2186,8.2186,8.2186,8.2186,8.2186,8.2186,8.2186,8.2186,8.1933,8.1672,8.164,8.1162,8.0424,8.0024,7.9585,7.9373,8.0055,8.032,8.0658,8.124,8.175,8.2158,8.2186,8.2186,8.2186,8.2186,8.2186,8.2186,8.2186,8.2186,8.2186,8.2186,8.2186,8.2186,8.2186,8.2186,8.2186,8.2186,8.2186,8.2186,8.2186,8.2186,8.2186,8.2186,8.2186,8.2186,8.2186,8.2186,8.2186,8.2186,8.2186,8.2186,8.2186,8.2186,8.2186,8.2186,8.2186,8.2186,8.2186,8.2186,8.2186,8.2186,8.2186,8.2186,8.2186,8.2186,8.2186,8.2186,8.2353,8.28,8.3637,8.4205,8.4718,8.5478,8.5947,8.6091,8.6091,8.6091,8.6091,8.6091,8.6091,8.6091,8.6091,8.6091,8.6091,8.6091,8.6091,8.6091,8.6091,8.6091,8.6091,8.6091,8.6091,8.6091,8.6091,8.5758,8.5426,8.561,8.6053,8.6051,8.6051,8.6089,8.6091,8.6012,8.5857,8.5346,8.465,8.3729,8.2186,8.2186,8.2186,8.2186,8.2186,8.2186,8.2186,8.2186,8.2186,8.2186,8.2186,8.2186,8.2186,8.2186,8.2186,8.215,8.2186,8.2154,8.1786,8.1301,8.0934,8.0573,8.0417,8.0573,8.0923,8.096,8.1697,8.2186,8.219,8.2186,8.2186,8.2186,8.2186,8.2186,8.2186,8.2186,8.2186,8.2186,8.2186,8.2186,8.2186,8.2186,8.2186,8.2186,8.2186,8.2186,8.2186,8.2186,8.2186,8.2186,8.2186,8.2186,8.2186,8.2186,8.2186,8.2186,8.2186,8.2186,8.2186,8.2186,8.2186,8.2186,8.2186,8.2186,8.2186,8.2186,8.2186,8.2186,8.2186,8.2186,8.2186,8.2186,8.2186,8.2186,8.2186,8.2251,8.2565,8.3157,8.3895,8.4551,8.5345,8.5806,8.5967,8.6091,8.6091,8.6091,8.6091,8.6091,8.6091,8.6091,8.6091,8.6091,8.6091,8.6091,8.6091,8.6091,8.6091,8.6091,8.6091,8.6091,8.6091,8.6091,8.5681,8.5381,8.5721,8.6089,8.6051,8.5936,8.5861,8.5863,8.6015,8.5933,8.562,8.4992,8.4101,8.2186,8.2186,8.2186,8.2186,8.2186,8.2186,8.2186,8.2186,8.2186,8.2186,8.2186,8.2186,8.2186,8.2186,8.2186,8.2186,8.2186,8.2296,8.219,8.1856,8.1558,8.1244,8.089,8.0889,8.1179,8.1281,8.1856,8.2145,8.2186,8.2186,8.2186,8.2186,8.2186,8.2186,8.2186,8.2186,8.2186,8.2186,8.2186,8.2186,8.2186,8.2186,8.2186,8.2186,8.2186,8.2186,8.2186,8.2186,8.2186,8.2186,8.2186,8.2186,8.2186,8.2186,8.2186,8.2186,8.2186,8.2186,8.2186,8.2186,8.2186,8.2186,8.2186,8.2186,8.2186,8.2186,8.2186,8.2186,8.2186,8.2186,8.2186,8.2186,8.2186,8.2186,8.2186,8.2186,8.2348,8.2911,8.3614,8.4167,8.4923,8.549,8.5861,8.5984,8.6091,8.6091,8.6091,8.6091,8.6091,8.6091,8.6091,8.6091,8.6091,8.6091,8.6091,8.6091,8.6089,8.6089,8.5931,8.5931,8.5852,8.5773,8.5852,8.5664,8.5893,8.578,8.551,8.5435,8.5517,8.5747,8.6015,8.6091,8.6051,8.5267,8.4364,8.2186,8.2186,8.2186,8.2186,8.2186,8.2186,8.2186,8.2186,8.2186,8.2186,8.2186,8.2186,8.2186,8.2186,8.2186,8.2186,8.23,8.259,8.259,8.2594,8.2549,8.2455,8.197,8.2088,8.2215,8.1742,8.1978,8.215,8.2186,8.2186,8.2186,8.2186,8.2186,8.2186,8.2186,8.2186,8.2186,8.2186,8.2186,8.2186,8.2186,8.2186,8.2186,8.2186,8.2186,8.2186,8.2186,8.2186,8.2186,8.2186,8.2186,8.2186,8.2186,8.2186,8.2186,8.2186,8.2186,8.2186,8.2186,8.2186,8.2186,8.2186,8.2186,8.2186,8.2186,8.2186,8.2186,8.2186,8.2186,8.2186,8.2186,8.2186,8.2186,8.2186,8.2186,8.2186,8.2321,8.2847,8.345,8.3937,8.4469,8.512,8.5707,8.5962,8.6075,8.6091,8.6091,8.6091,8.6091,8.6091,8.6091,8.6091,8.6091,8.6091,8.6091,8.6091,8.6051,8.5931,8.5417,8.5415,8.5338,8.5336,8.531,8.5225,8.5099,8.4951,8.4889,8.5243,8.5668,8.5899,8.6091,8.6091,8.6051,8.5338,8.4368,8.2186,8.2186,8.2186,8.2186,8.2186,8.2186,8.2186,8.2186,8.2186,8.2186,8.2186,8.2186,8.2186,8.2186,8.2186,8.219,8.2231,8.2843,8.27,8.2888,8.332,8.3258,8.2692,8.2802,8.2875,8.2227,8.2145,8.2186,8.2186,8.2186,8.2186,8.2186,8.2186,8.2186,8.2186,8.2186,8.2186,8.2186,8.2186,8.2186,8.2186,8.2186,8.2186,8.2186,8.2186,8.2186,8.2186,8.2186,8.2186,8.2186,8.2186,8.2186,8.2186,8.2186,8.2186,8.2186,8.2186,8.2186,8.2186,8.2186,8.2186,8.2186,8.2186,8.2186,8.2186,8.2186,8.2186,8.2186,8.2186,8.2186,8.2186,8.2186,8.2186,8.2186,8.2186,8.2186,8.2235,8.2631,8.3224,8.394,8.4446,8.4947,8.5492,8.5898,8.6054,8.6083,8.6091,8.6091,8.6091,8.6091,8.6091,8.6091,8.6091,8.6091,8.6091,8.6089,8.6051,8.5737,8.5223,8.4757,8.4648,8.4617,8.4591,8.446,8.4435,8.4945,8.5352,8.5626,8.5859,8.5974,8.6091,8.6091,8.5891,8.5218,8.446,8.2186,8.2186,8.2186,8.2186,8.2186,8.2186,8.2186,8.2186,8.2186,8.2186,8.2186,8.2186,8.2186,8.2186,8.2186,8.2186,8.219,8.2264,8.23,8.2553,8.2941,8.3034,8.276,8.2818,8.2986,8.2296,8.2186,8.2186,8.2186,8.2186,8.2186,8.2186,8.2186,8.2186,8.2186,8.2186,8.2186,8.2186,8.2186,8.2186,8.2186,8.2186,8.2186,8.2186,8.2186,8.2186,8.2186,8.2186,8.2186,8.2186,8.2186,8.2186,8.2186,8.2186,8.2186,8.2186,8.2186,8.2186,8.2186,8.2186,8.2186,8.2186,8.2186,8.2186,8.2186,8.2186,8.2186,8.2186,8.2186,8.2186,8.2186,8.2186,8.2186,8.2186,8.2186,8.2186,8.2186,8.2231,8.2868,8.3809,8.4401,8.4798,8.531,8.5698,8.6043,8.6087,8.6091,8.6091,8.6091,8.6091,8.6091,8.6091,8.6091,8.6091,8.6091,8.6051,8.5936,8.5431,8.4844,8.4231,8.3775,8.3787,8.3761,8.4198,8.4332,8.5075,8.566,8.5703,8.5782,8.5974,8.6091,8.6091,8.5615,8.49,8.432,8.2186,8.2186,8.2186,8.2186,8.2186,8.2186,8.2186,8.2186,8.2186,8.2186,8.2186,8.2186,8.2186,8.2186,8.2186,8.2186,8.226,8.2765,8.2553,8.2778,8.3234,8.3241,8.2996,8.2805,8.299,8.2333,8.2186,8.2186,8.2186,8.2186,8.2186,8.2186,8.2186,8.2186,8.2186,8.2186,8.2186,8.2186,8.2186,8.2186,8.2186,8.2186,8.2186,8.2186,8.2186,8.2186,8.2186,8.2186,8.2186,8.2186,8.2186,8.2186,8.2186,8.2186,8.2186,8.2186,8.2186,8.2186,8.2186,8.2186,8.2186,8.2186,8.2186,8.2186,8.2186,8.2186,8.2186,8.2186,8.2186,8.2186,8.2186,8.2186,8.2186,8.2186,8.2186,8.2186,8.2186,8.2186,8.2426,8.3366,8.3934,8.4381,8.4974,8.5542,8.5844,8.6091,8.6091,8.6091,8.6091,8.6091,8.6091,8.6091,8.6091,8.6091,8.6091,8.5938,8.5784,8.5126,8.4466,8.3739,8.3091,8.284,8.2961,8.3514,8.419,8.4733,8.5198,8.5474,8.5745,8.6012,8.6089,8.6091,8.5455,8.4702,8.4132,8.2186,8.2186,8.2186,8.2186,8.2186,8.2186,8.2186,8.2186,8.2186,8.2186,8.2186,8.2186,8.2186,8.2186,8.2186,8.2186,8.2296,8.2627,8.2553,8.2847,8.3275,8.3299,8.2915,8.2785,8.299,8.237,8.2186,8.2186,8.2186,8.2186,8.2186,8.2186,8.2186,8.2186,8.2186,8.2186,8.2186,8.2186,8.2186,8.2186,8.2186,8.2186,8.2186,8.2186,8.2186,8.2186,8.2186,8.2186,8.2186,8.2186,8.2186,8.2186,8.2186,8.2186,8.2186,8.2186,8.2186,8.2186,8.2186,8.2186,8.2186,8.2186,8.2186,8.2186,8.2186,8.2186,8.2186,8.2186,8.2186,8.2186,8.2186,8.2186,8.2186,8.2186,8.2186,8.2186,8.2186,8.219,8.2435,8.2878,8.3507,8.4338,8.4961,8.5558,8.5861,8.6091,8.6091,8.6091,8.6091,8.6091,8.6091,8.6091,8.6091,8.6091,8.6091,8.5976,8.5668,8.4557,8.386,8.3087,8.2518,8.2226,8.2201,8.2767,8.3484,8.42,8.4775,8.5166,8.5589,8.6051,8.6089,8.6091,8.5773,8.5105,8.4249,8.2186,8.2186,8.2186,8.2186,8.2186,8.2186,8.2186,8.2186,8.2186,8.2186,8.2186,8.2186,8.2186,8.2186,8.2186,8.2186,8.2186,8.2296,8.226,8.2517,8.2957,8.2794,8.272,8.2765,8.2843,8.2333,8.2186,8.2186,8.2186,8.2186,8.2186,8.2186,8.2186,8.2186,8.2186,8.2186,8.2186,8.2186,8.2186,8.2186,8.2186,8.2186,8.2186,8.2186,8.2186,8.2186,8.2186,8.2186,8.2186,8.2186,8.2186,8.2186,8.2186,8.2186,8.2186,8.2186,8.2186,8.2186,8.2186,8.2186,8.2186,8.2186,8.2186,8.2186,8.2186,8.2186,8.2186,8.2186,8.2186,8.2186,8.2186,8.2186,8.2186,8.2186,8.2186,8.2186,8.2186,8.219,8.2398,8.2673,8.3544,8.4449,8.5056,8.5632,8.5937,8.6091,8.6091,8.6091,8.6091,8.6091,8.6091,8.6091,8.6091,8.6091,8.6091,8.5976,8.5517,8.4328,8.3326,8.2587,8.1971,8.1558,8.1726,8.2122,8.2697,8.3374,8.4172,8.4897,8.5397,8.5897,8.6051,8.6051,8.5814,8.5425,8.4516,8.2186,8.2186,8.2186,8.2186,8.2186,8.2186,8.2186,8.2186,8.2186,8.2186,8.2186,8.2186,8.2186,8.2186,8.2227,8.2227,8.219,8.2186,8.2186,8.2223,8.2553,8.2443,8.237,8.2443,8.248,8.226,8.2186,8.2186,8.2186,8.2186,8.2186,8.2186,8.2186,8.2186,8.2186,8.2186,8.2186,8.2186,8.2186,8.2186,8.2186,8.2186,8.2186,8.2186,8.2186,8.2186,8.2186,8.2186,8.2186,8.2186,8.2186,8.2186,8.2186,8.2186,8.2186,8.2186,8.2186,8.2186,8.2186,8.2186,8.2186,8.2186,8.2186,8.2186,8.2186,8.2186,8.2186,8.2186,8.2186,8.2186,8.2186,8.2186,8.2186,8.2186,8.2186,8.2186,8.2186,8.219,8.2337,8.2692,8.3349,8.4646,8.549,8.5719,8.5988,8.6091,8.6091,8.6091,8.6091,8.6091,8.6091,8.6091,8.6091,8.6091,8.6053,8.5938,8.5286,8.4059,8.3052,8.2194,8.1619,8.1166,8.121,8.1606,8.2039,8.2509,8.3301,8.4136,8.5166,8.5741,8.582,8.6012,8.5972,8.5455,8.4595,8.2186,8.2186,8.2186,8.2186,8.2186,8.2186,8.2186,8.2186,8.2186,8.2186,8.2186,8.2186,8.2186,8.226,8.248,8.2341,8.2264,8.2512,8.2296,8.226,8.2186,8.2223,8.2223,8.2186,8.226,8.2186,8.2186,8.2186,8.2186,8.2186,8.2186,8.2186,8.2186,8.2186,8.2186,8.2186,8.2186,8.2186,8.2186,8.2186,8.2186,8.2186,8.2186,8.2186,8.2186,8.2186,8.2186,8.2186,8.2186,8.2186,8.2186,8.2186,8.2186,8.2186,8.2186,8.2186,8.2186,8.2186,8.2186,8.2186,8.2186,8.2186,8.2186,8.2186,8.2186,8.2186,8.2186,8.2186,8.2186,8.2186,8.2186,8.2186,8.2186,8.2186,8.2186,8.2186,8.2186,8.219,8.2227,8.261,8.3398,8.4662,8.5788,8.5922,8.6083,8.6091,8.6091,8.6091,8.6091,8.6091,8.6091,8.6091,8.6091,8.6091,8.6015,8.5861,8.5016,8.3789,8.2976,8.2198,8.1504,8.1091,8.1091,8.1091,8.1562,8.2032,8.2572,8.3374,8.448,8.5166,8.5474,8.5705,8.6012,8.5575,8.49,8.2186,8.2186,8.2186,8.2186,8.2186,8.2186,8.2186,8.2186,8.2186,8.2186,8.2186,8.2186,8.2186,8.2337,8.2953,8.2806,8.237,8.2875,8.2659,8.237,8.2186,8.2186,8.2186,8.2186,8.2186,8.2186,8.2186,8.2186,8.2186,8.2186,8.2186,8.2186,8.2186,8.2186,8.2186,8.2186,8.2186,8.2186,8.2186,8.2186,8.2186,8.2186,8.2186,8.2186,8.2186,8.2186,8.2186,8.2186,8.2186,8.2186,8.2186,8.2186,8.2186,8.2186,8.2186,8.2186,8.2186,8.2186,8.2186,8.2186,8.2186,8.2186,8.2186,8.2186,8.2186,8.2186,8.2186,8.2186,8.2186,8.2186,8.2186,8.2186,8.2186,8.2186,8.2186,8.2186,8.2186,8.219,8.219,8.2658,8.3522,8.462,8.5748,8.6085,8.6091,8.6091,8.6091,8.6091,8.6091,8.6091,8.6091,8.6091,8.6091,8.6091,8.5976,8.5784,8.4942,8.3753,8.3257,8.256,8.1789,8.1091,8.1091,8.1129,8.1166,8.167,8.2639,8.3295,8.3868,8.4439,8.4937,8.5551,8.5938,8.6012,8.5459,8.2186,8.2186,8.2186,8.2186,8.2186,8.2186,8.2186,8.2186,8.2186,8.2186,8.2186,8.2186,8.215,8.2227,8.2439,8.2374,8.2337,8.2378,8.237,8.2227,8.2186,8.2186,8.2186,8.2186,8.2186,8.2186,8.2186,8.2186,8.2186,8.2186,8.2186,8.2186,8.2186,8.2186,8.2186,8.2186,8.2186,8.2186,8.2186,8.2186,8.2186,8.2186,8.2186,8.2186,8.2186,8.2186,8.2186,8.2186,8.2186,8.2186,8.2186,8.2186,8.2186,8.2186,8.2186,8.2186,8.2186,8.2186,8.2186,8.2186,8.2186,8.2186,8.2186,8.2186,8.2186,8.2186,8.2186,8.2186,8.2186,8.2186,8.2186,8.2186,8.2186,8.2186,8.2186,8.2186,8.2186,8.2186,8.2223,8.2666,8.3536,8.4542,8.5643,8.6091,8.6091,8.6091,8.6091,8.6091,8.6091,8.6091,8.6091,8.6091,8.6091,8.6091,8.5861,8.563,8.4749,8.3868,8.3374,8.2682,8.1635,8.1091,8.1091,8.1162,8.1271,8.2085,8.3135,8.3482,8.3289,8.3905,8.4403,8.5168,8.5784,8.5897,8.5577,8.2186,8.2186,8.2186,8.2186,8.2186,8.2186,8.2186,8.2186,8.2186,8.2186,8.2186,8.2186,8.2003,8.1778,8.2007,8.2043,8.1742,8.2113,8.2223,8.2223,8.2186,8.2186,8.2186,8.2186,8.2186,8.2186,8.2186,8.2186,8.2186,8.2186,8.2186,8.2186,8.2186,8.2186,8.2186,8.2186,8.2186,8.2186,8.2186,8.2186,8.2186,8.2186,8.2186,8.2186,8.2186,8.2186,8.2186,8.2186,8.2186,8.2186,8.2186,8.2186,8.2186,8.2186,8.2186,8.2186,8.2186,8.2186,8.2186,8.2186,8.2186,8.2186,8.2186,8.2186,8.2186,8.2186,8.2186,8.2186,8.2186,8.2186,8.2186,8.2186,8.2186,8.2186,8.2186,8.2186,8.2186,8.2186,8.2414,8.2736,8.3556,8.4539,8.5285,8.5788,8.6091,8.6091,8.6091,8.6091,8.6091,8.6091,8.6091,8.6091,8.6091,8.6091,8.5822,8.5553,8.4826,8.4099,8.3526,8.2716,8.1593,8.1091,8.1129,8.1233,8.1409,8.2113,8.2706,8.2518,8.2479,8.3095,8.3672,8.4247,8.5053,8.5859,8.5223,8.2186,8.2186,8.2186,8.2186,8.2186,8.2186,8.2227,8.2264,8.2264,8.2227,8.23,8.2313,8.1982,8.164,8.1782,8.1599,8.1485,8.1709,8.2039,8.215,8.2186,8.2186,8.2186,8.2186,8.2186,8.2186,8.2186,8.2186,8.2186,8.2186,8.2186,8.2186,8.2186,8.2186,8.2186,8.2186,8.2186,8.2186,8.2186,8.2186,8.2186,8.2186,8.2186,8.2186,8.2186,8.2186,8.2186,8.2186,8.2186,8.2186,8.2186,8.2186,8.2186,8.2186,8.2186,8.2186,8.2186,8.2186,8.2186,8.2186,8.2186,8.2186,8.2186,8.2186,8.2186,8.2186,8.2186,8.2186,8.2186,8.2186,8.2186,8.2186,8.2186,8.2186,8.2186,8.2186,8.2186,8.2295,8.2593,8.3002,8.3717,8.4654,8.5449,8.5954,8.6089,8.6091,8.6091,8.6091,8.6091,8.6091,8.6091,8.6091,8.6091,8.6091,8.6053,8.5707,8.5057,8.4369,8.3719,8.2678,8.1441,8.117,8.1131,8.1433,8.1739,8.15,8.1737,8.1858,8.2054,8.2131,8.267,8.321,8.4093,8.5128,8.5024,8.2186,8.2186,8.2186,8.2186,8.2186,8.2186,8.2553,8.3055,8.2443,8.2553,8.3002,8.2982,8.2545,8.1754,8.1232,8.0975,8.1122,8.1122,8.1632,8.2003,8.2186,8.2186,8.2186,8.2186,8.2186,8.2186,8.2186,8.2186,8.2186,8.2186,8.2186,8.2186,8.2186,8.2186,8.2186,8.2186,8.2186,8.2186,8.2186,8.2186,8.2186,8.2186,8.2186,8.2186,8.2186,8.2186,8.2186,8.2186,8.2186,8.2186,8.2186,8.2186,8.2186,8.2186,8.2186,8.2186,8.2186,8.2186,8.2186,8.2186,8.2186,8.2186,8.2186,8.2186,8.2186,8.2186,8.2186,8.2186,8.2186,8.2186,8.2186,8.2186,8.2186,8.2186,8.2186,8.2186,8.2186,8.2446,8.2728,8.3338,8.3944,8.4682,8.5487,8.5883,8.6054,8.6091,8.6091,8.6091,8.6091,8.6091,8.6091,8.6091,8.6091,8.6091,8.6091,8.5822,8.5211,8.4405,8.3676,8.256,8.1366,8.1208,8.117,8.1764,8.2076,8.1714,8.1587,8.2014,8.2093,8.1822,8.19,8.2518,8.3127,8.4085,8.4131,8.2186,8.2186,8.2186,8.2186,8.2186,8.2186,8.2443,8.2798,8.2769,8.2769,8.2761,8.246,8.1905,8.1122,8.0281,8.0355,8.0465,8.0469,8.1236,8.1897,8.2186,8.2186,8.2186,8.2186,8.2186,8.2186,8.2186,8.2186,8.2186,8.2186,8.2186,8.2186,8.2186,8.2186,8.2186,8.2186,8.2186,8.2186,8.2186,8.2186,8.2186,8.2186,8.2186,8.2186,8.2186,8.2186,8.2186,8.2186,8.2186,8.2186,8.2186,8.2186,8.2186,8.2186,8.2186,8.2186,8.2186,8.2186,8.2186,8.2186,8.2186,8.2186,8.2186,8.2186,8.2186,8.2186,8.2186,8.2186,8.2186,8.2186,8.2186,8.2186,8.2186,8.2186,8.2186,8.2186,8.2186,8.2291,8.2687,8.3246,8.3867,8.4528,8.5275,8.5868,8.5997,8.6091,8.6091,8.6091,8.6091,8.6091,8.6091,8.6091,8.6091,8.6091,8.6091,8.5822,8.5363,8.4518,8.3599,8.2558,8.1558,8.1285,8.1289,8.1606,8.1764,8.1604,8.1674,8.1864,8.1747,8.1398,8.1554,8.1864,8.2512,8.3121,8.3176,8.2117,8.2043,8.2043,8.1974,8.1901,8.186,8.1933,8.2133,8.2593,8.2569,8.1986,8.1232,8.0478,7.9895,7.9188,7.9482,7.9886,8.0322,8.113,8.1864,8.215,8.2186,8.2186,8.2186,8.2186,8.2186,8.2186,8.2186,8.2186,8.2186,8.2186,8.2186,8.2186,8.2186,8.2186,8.2186,8.2186,8.2186,8.2186,8.2186,8.2186,8.2186,8.2186,8.2186,8.2186,8.2186,8.2186,8.2186,8.2186,8.2186,8.2186,8.2186,8.2186,8.2186,8.2186,8.2186,8.2186,8.2186,8.2186,8.2186,8.2186,8.2186,8.2186,8.2186,8.2186,8.2186,8.2186,8.2186,8.2186,8.2186,8.2186,8.2186,8.2186,8.2186,8.2186,8.2186,8.2186,8.2235,8.2667,8.3204,8.3863,8.4505,8.5187,8.5824,8.5977,8.6071,8.6091,8.6091,8.6091,8.6091,8.6091,8.6091,8.6091,8.6091,8.6091,8.5822,8.544,8.4403,8.3443,8.252,8.175,8.1323,8.1091,8.1129,8.121,8.1289,8.1248,8.136,8.1168,8.1129,8.1283,8.1595,8.2178,8.2631,8.25,8.1819,8.1228,8.1228,8.0865,8.0363,8.0289,8.062,8.1093,8.0732,8.0703,8.0902,8.0494,8.0167,8.0718,7.9918,7.9955,8.0461,8.0649,8.1236,8.2076,8.2186,8.2186,8.2186,8.2186,8.2186,8.2186,8.2186,8.2186,8.2186,8.2186,8.2186,8.2186,8.2186,8.2186,8.2186,8.2186,8.2186,8.2186,8.2186,8.2186,8.2186,8.2186,8.2186,8.2186,8.2186,8.2186,8.2186,8.2186,8.2186,8.2186,8.2186,8.2186,8.2186,8.2186,8.2186,8.2186,8.2186,8.2186,8.2186,8.2186,8.2186,8.2186,8.2186,8.2186,8.2186,8.2186,8.2186,8.2186,8.2186,8.2186,8.2186,8.2186,8.2186,8.2186,8.2186,8.2186,8.2186,8.2367,8.2641,8.3318,8.4048,8.4858,8.57,8.6052,8.6054,8.6091,8.6091,8.6091,8.6091,8.6091,8.6091,8.6091,8.6091,8.6091,8.6091,8.5899,8.5438,8.4364,8.3289,8.2326,8.1595,8.1244,8.1091,8.1091,8.1091,8.117,8.1091,8.1091,8.1091,8.1091,8.1091,8.1362,8.1908,8.2255,8.2237]},{"header":{"parameterUnit":"m.s-1","parameterCategory":1,"la1":31.0,"la2":29.5877,"lo1":-88.7671,"lo2":-86.6584,"dy":0.0162,"dx":0.0185,"nx":115,"ny":88,"refTime":"2024-04-18T18:00:00:Z","depth":0,"parameterNumber":3,"parameterNumberName":"V-component_of_WINDS"},"data":[0.0,0.0,0.0,0.0,0.0,0.0,0.0,0.0,0.0,0.0,0.0,0.0,0.0,0.0,0.0,0.0,0.0,0.0,0.0,0.0,0.0,0.0,0.0,0.0,0.0,0.0,0.0,0.0,0.0,0.0,0.0,0.0,0.0,0.0,0.0,0.0,0.0,0.0,0.0,0.0,0.0,0.0,0.0,0.0,0.0,0.0,0.0,0.0,0.0,0.0,0.0,0.0,0.0,0.0,0.0,0.0,0.0,0.0,0.0,0.0,0.0,0.0,0.0,0.0,0.0,0.0,0.0,0.0,0.0,0.0,0.0,0.0,0.0,0.0,0.0,0.0,0.0,0.0,0.0,0.0,0.0,0.0,0.0,0.0,0.0,0.0,0.0,0.0,0.0,0.0,0.0,0.0,0.0,0.0,0.0,0.0,0.0,0.0,0.0,0.0,0.0,0.0,0.0,0.0,0.0,0.0,0.0,0.0,0.0,0.0,0.0,0.0,0.0,0.0,0.0,0.0,0.0,0.0,0.0,0.0,0.0,0.0,0.0,0.0,0.0,0.0,0.0,0.0,0.0,0.0,0.0,0.0,0.0,0.0,0.0,0.0,0.0,0.0,0.0,0.0,0.0,0.0,0.0,0.0,0.0,0.0,0.0,0.0,0.0,0.0,0.0,0.0,0.0,0.0,0.0,0.0,0.0,0.0,0.0,0.0,0.0,0.0,0.0,0.0,0.0,0.0,0.0,0.0,0.0,0.0,0.0,0.0,0.0,0.0,0.0,0.0,0.0,0.0,0.0,0.0,0.0,0.0,0.0,0.0,0.0,0.0,0.0,0.0,0.0,0.0,0.0,0.0,0.0,0.0,0.0,0.0,0.0,0.0,0.0,0.0,0.0,0.0,0.0,0.0,0.0,0.0,0.0,0.0,0.0,0.0,0.0,0.0,0.0,0.0,0.0,0.0,0.0,0.0,0.0,0.0,0.0,0.0,0.0,0.0,0.0,0.0,0.0,0.0,0.0,0.0,0.0,0.0,0.0,0.0,0.0,0.0,0.0,0.0,0.0,0.0,0.0,0.0,0.0,0.0,0.0,0.0,0.0,0.0,0.0,0.0,0.0,0.0,0.0,0.0,0.0,0.0,0.0,0.0,0.0,0.0,0.0,0.0,0.0,0.0,0.0,0.0,0.0,0.0,0.0,0.0,0.0,0.0,0.0,0.0,0.0,0.0,0.0,0.0,0.0,0.0,0.0,0.0,0.0,0.0,0.0,0.0,0.0,0.0,0.0,0.0,0.0,0.0,0.0,0.0,0.0,0.0,0.0,0.0,0.0,0.0,0.0,0.0,0.0,0.0,0.0,0.0,0.0,0.0,0.0,0.0,0.0,0.0,0.0,0.0,0.0,0.0,0.0,0.0,0.0,0.0,0.0,0.0,0.0,0.0,0.0,0.0,0.0,0.0,0.0,0.0,0.0,0.0,0.0,0.0,0.0,0.0,0.0,0.0,0.0,0.0,0.0,0.0,0.0,0.0,0.0,0.0,0.0,0.0,0.0,0.0,0.0,0.0,0.0,0.0,0.0,0.0,0.0,0.0,0.0,0.0,0.0,0.0,0.0,0.0,0.0,0.0,0.0,0.0,0.0,0.0,0.0,0.0,0.0,0.0,0.0,0.0,0.0,0.0,0.0,0.0,0.0,0.0,0.0,0.0,0.0,0.0,0.0,0.0,0.0,0.0,0.0,0.0,0.0,0.0,0.0,0.0,0.0,0.0,0.0,0.0,0.0,0.0,0.0,0.0,0.0,0.0,0.0,0.0,0.0,0.0,0.0,0.0,0.0,0.0,0.0,0.0,0.0,0.0,0.0,0.0,0.0,0.0,0.0,0.0,0.0,0.0,0.0,0.0,0.0,0.0,0.0,0.0,0.0,0.0,0.0,0.0,0.0,0.0,0.0,0.0,0.0,0.0,0.0,0.0,0.0,0.0,0.0,0.0,0.0,0.0,0.0,0.0,0.0,0.0,0.0,0.0,0.0,0.0,0.0,0.0,0.0,0.0,0.0,0.0,0.0,0.0,0.0,0.0,0.0,0.0,0.0,0.0,0.0,0.0,0.0,0.0,0.0,0.0,0.0,0.0,0.0,0.0,0.0,0.0,0.0,0.0,0.0,0.0,0.0,0.0,0.0,0.0,0.0,0.0,0.0,0.0,0.0,0.0,0.0,0.0,0.0,0.0,0.0,0.0,0.0,0.0,0.0,0.0,0.0,0.0,0.0,0.0,0.0,0.0,0.0,0.0,0.0,0.0,0.0,0.0,0.0,0.0,0.0,0.0,0.0,0.0,0.0,0.0,0.0,0.0,0.0,0.0,0.0,0.0,0.0,0.0,0.0,0.0,0.0,0.0,0.0,0.0,0.0,0.0,0.0,0.0,0.0,0.0,0.0,0.0,0.0,0.0,0.0,0.0,0.0,0.0,0.0,0.0,0.0,0.0,0.0,0.0,0.0,0.0,0.0,0.0,0.0,0.0,0.0,0.0,0.0,0.0,0.0,0.0,0.0,0.0,0.0,0.0,0.0,0.0,0.0,0.0,0.0,0.0,0.0,0.0,0.0,0.0,0.0,0.0,0.0,0.0,0.0,0.0,0.0,0.0,0.0,0.0,0.0,0.0,0.0,0.0,0.0,0.0,0.0,0.0,0.0,0.0,0.0,0.0,0.0,0.0,0.0,0.0,0.0,0.0,0.0,0.0,0.0,0.0,0.0,0.0,0.0,0.0,0.0,0.0,0.0,0.0,0.0,0.0,0.0,0.0,0.0,0.0,0.0,0.0,0.0,0.0,0.0,0.0,0.0,0.0,0.0,0.0,0.0,0.0,0.0,0.0,0.0,0.0,0.0,0.0,0.0,0.0,0.0,0.0,0.0,0.0,0.0,0.0,0.0,0.0,0.0,0.0,0.0,0.0,0.0,0.0,0.0,0.0,0.0,0.0,0.0,0.0,0.0,0.0,0.0,0.0,0.0,0.0,0.0,0.0,0.0,0.0,0.0,0.0,0.0,0.0,0.0,0.0,0.0,0.0,0.0,0.0,0.0,0.0,0.0,0.0,0.0,0.0,0.0,0.0,0.0,0.0,0.0,0.0,0.0,0.0,0.0,0.0,0.0,0.0,0.0,0.0,0.0,0.0,0.0,0.0,0.0,0.0,0.0,0.0,0.0,0.0,0.0,0.0,0.0,0.0,0.0,0.0,0.0,0.0,0.0,0.0,0.0,0.0,0.0,0.0,0.0,0.0,0.0,0.0,0.0,0.0,0.0,0.0,0.0,0.0,0.0,0.0,0.0,0.0,0.0,0.0,0.0,0.0,0.0,0.0,0.0,0.0,0.0,0.0,0.0,0.0,0.0,0.0,0.0,0.0,0.0,0.0,0.0,0.0,0.0,0.0,0.0,0.0,0.0,0.0,0.0,0.0,0.0,0.0,0.0,0.0,0.0,0.0,0.0,0.0,0.0,0.0,0.0,0.0,0.0,0.0,0.0,0.0,0.0,0.0,0.0,0.0,0.0,0.0,0.0,0.0,0.0,0.0,0.0,0.0,0.0,0.0,0.0,0.0,0.0,0.0,0.0,0.0,0.0,0.0,0.0,0.0,0.0,0.0,0.0,0.0,0.0,0.0,0.0,0.0,0.0,0.0,0.0,0.0,0.0,0.0,0.0,0.0,0.0,0.0,0.0,0.0,0.0,0.0,0.0,0.0,0.0,0.0,0.0,0.0,0.0,0.0,0.0,0.0,0.0,0.0,0.0,0.0,0.0,0.0,0.0,0.0,0.0,0.0,0.0,0.0,0.0,0.0,0.0,0.0,0.0,0.0,0.0,0.0,0.0,0.0,0.0,0.0,0.0,0.0,0.0,0.0,0.0,0.0,0.0,0.0,0.0,0.0,0.0,0.0,0.0,0.0,0.0,0.0,0.0,0.0,0.0,0.0,0.0,0.0,0.0,0.0,0.0,0.0,0.0,0.0,0.0,0.0,0.0,0.0,0.0,0.0,0.0,0.0,0.0,0.0,0.0,0.0,0.0,0.0,0.0,0.0,0.0,0.0,0.0,0.0,0.0,0.0,0.0,0.0,0.0,0.0,0.0,0.0,0.0,0.0,0.0,0.0,0.0,0.0,0.0,0.0,0.0,0.0,0.0,0.0,0.0,0.0,0.0,0.0,0.0,0.0,0.0,0.0,0.0,0.0,0.0,0.0,0.0,0.0,0.0,0.0,0.0,0.0,0.0,0.0,0.0,0.0,0.9799,0.0,0.0,0.0,0.0,0.0,0.0,0.0,0.0,0.0,0.0,0.0,0.0,0.0,0.0,0.0,0.0,0.0,0.0,0.0,0.0,0.0,0.0,0.0,0.0,0.0,0.0,0.0,0.0,0.0,0.0,0.0,0.0,0.0,0.0,0.0,0.0,0.0,0.0,0.0,0.0,0.0,0.0,0.0,0.0,0.0,0.0,0.0,0.0,0.0,0.0,0.0,0.0,0.0,0.0,0.0,0.0,0.0,0.0,0.0,0.0,0.0,0.0,0.0,0.0,0.0,0.0,0.0,0.0,0.0,0.0,0.0,0.0,0.0,0.0,0.0,0.0,0.0,0.0,0.0,0.0,0.0,0.0,0.0,0.0,0.0,0.0,0.0,0.0,0.0,0.0,0.0,0.0,0.0,0.0,0.0,0.0,0.0,0.0,0.0,0.0,0.0,0.0,0.0,0.0,0.0,0.0,0.0,0.0,0.0,0.0,0.9799,0.9799,0.9799,0.9799,0.9799,0.0,0.0,0.0,0.0,0.0,0.0,0.0,0.0,0.0,0.0,0.0,0.0,0.0,0.0,0.0,0.0,0.0,0.0,0.0,0.0,0.0,0.0,0.0,0.0,0.0,0.0,0.0,0.0,0.0,0.0,0.0,0.0,0.0,0.0,0.0,0.0,0.0,0.0,0.0,0.0,0.0,0.0,0.0,0.0,0.0,0.0,0.0,0.0,0.0,0.0,0.0,0.0,0.0,0.0,0.0,0.0,0.0,0.0,0.0,0.0,0.0,0.0,0.0,0.0,0.0,0.0,0.0,0.0,0.0,0.0,0.0,0.0,0.0,0.0,0.0,0.0,0.0,0.0,0.0,0.0,0.0,0.0,0.0,0.0,0.0,0.0,0.0,0.0,0.0,0.0,0.0,0.0,0.0,0.0,0.0,0.0,0.0,0.0,0.0,0.0,0.0,0.0,0.0,0.0,0.0,0.0,0.0,0.0,0.0,0.0,0.0,0.0,0.9799,0.9799,0.9799,0.0,0.0,0.0,0.0,0.0,0.0,0.0,0.0,0.0,0.0,0.0,0.0,0.0,0.0,0.0,0.0,0.0,0.0,0.0,0.0,0.0,0.0,0.0,0.0,0.0,0.0,0.0,0.0,0.0,0.0,0.0,0.0,0.0,0.0,0.0,0.0,0.0,0.0,0.0,0.0,0.0,0.0,0.0,0.0,0.0,0.0,0.0,0.0,0.0,0.0,0.0,0.0,0.0,0.0,0.0,0.0,0.0,0.0,0.0,0.0,0.0,0.0,0.0,0.0,0.0,0.0,0.0,0.0,0.0,0.0,0.0,0.0,0.0,0.0,0.0,0.0,0.0,0.0,0.0,0.0,0.0,0.0,0.0,0.0,0.0,0.0,0.0,0.0,0.0,0.0,0.0,0.0,0.0,0.0,0.0,0.0,0.0,0.0,0.0,0.0,0.0,0.0,0.0,0.0,0.0,0.0,0.0,0.0,0.0,0.0,0.9799,0.9799,0.9799,0.0,0.9799,0.0,0.0,0.0,0.0,0.0,0.0,0.0,0.0,0.0,0.0,0.0,0.0,0.0,0.0,0.0,0.0,0.0,0.0,0.0,0.0,0.0,0.0,0.0,0.0,0.0,0.0,0.0,0.0,0.0,0.0,0.0,0.0,0.0,0.0,0.0,0.0,0.0,0.0,0.0,0.0,0.0,0.0,0.0,0.0,0.0,0.0,0.0,0.0,0.0,0.0,0.0,0.0,0.0,0.0,0.0,0.0,0.0,0.0,0.0,0.0,0.0,0.0,0.0,0.0,0.0,0.0,0.0,0.0,0.0,0.0,0.0,0.0,0.0,0.0,0.0,0.0,0.0,0.0,0.0,0.0,0.0,0.0,0.0,0.0,0.0,0.0,0.0,0.0,0.0,0.0,0.0,0.0,0.0,0.0,0.0,0.0,0.0,0.0,0.0,0.0,0.0,0.0,0.0,0.0,0.0,0.0,0.0,0.0,0.0,0.0,0.9799,0.9799,0.9799,0.9799,0.0,0.0,0.0,0.0,0.0,0.0,0.0,0.0,0.0,0.0,0.0,0.0,0.0,0.0,0.0,0.0,0.0,0.0,0.0,0.0,0.0,0.0,0.0,0.0,0.0,0.0,0.0,0.0,0.0,0.0,0.0,0.0,0.0,0.0,0.0,0.0,0.0,0.0,0.0,0.0,0.0,0.0,0.0,0.0,0.0,0.0,0.0,0.0,0.0,0.0,0.0,0.0,0.0,0.0,0.0,0.0,0.0,0.0,0.0,0.0,0.0,0.0,0.0,0.0,0.0,0.0,0.0,0.0,0.0,0.0,0.0,0.0,0.0,0.0,0.0,0.0,0.0,0.0,0.0,0.0,0.0,0.0,0.0,0.0,0.0,0.0,0.0,0.0,0.0,0.0,0.0,0.0,0.0,0.0,0.0,0.0,0.0,0.0,0.0,0.0,0.0,0.0,0.0,0.0,0.0,0.0,0.0,0.0,0.0,0.0,0.9799,0.9799,0.9799,0.9799,0.9799,0.9799,0.0,0.0,0.0,0.0,0.0,0.0,0.0,0.0,0.0,0.0,0.0,0.0,0.0,0.0,0.0,0.0,0.0,0.0,0.0,0.0,0.0,0.0,0.0,0.0,0.0,0.0,0.0,0.0,0.0,0.0,0.0,0.0,0.0,0.0,0.0,0.0,0.0,0.0,0.0,0.0,0.0,0.0,0.0,0.0,0.0,0.0,0.0,0.0,0.0,0.0,0.0,0.0,0.0,0.0,0.0,0.0,0.0,0.0,0.0,0.0,0.0,0.0,0.0,0.0,0.0,0.0,0.0,0.0,0.0,0.0,0.0,0.0,0.0,0.0,0.0,0.0,0.0,0.0,0.0,0.0,0.0,0.0,0.0,0.0,0.0,0.0,0.0,0.0,0.0,0.0,0.0,0.0,0.0,0.0,0.0,0.0,0.0,0.0,0.0,0.0,0.0,0.0,0.0,0.0,0.0,0.0,0.0,0.0,0.9799,0.9799,0.9799,0.9799,0.9799,0.9799,0.0,0.0,0.0,0.0,0.0,0.0,0.0,0.0,0.0,0.0,0.0,0.0,0.0,0.0,0.0,0.0,0.0,0.0,0.0,0.0,0.0,0.0,0.0,0.0,0.0,0.0,0.0,0.0,0.0,0.0,0.0,0.0,0.0,0.0,0.0,0.0,0.0,0.0,0.0,0.0,0.0,0.0,0.0,0.0,0.0,0.0,0.0,0.0,0.0,0.0,0.0,0.0,0.0,0.0,0.0,0.0,0.0,0.0,0.0,0.0,0.0,0.0,0.0,0.0,0.0,0.0,0.0,0.0,0.0,0.0,0.0,0.0,0.0,0.0,0.0,0.0,0.0,0.0,0.0,0.0,0.0,0.0,0.0,0.0,0.0,0.0,0.0,0.0,0.0,0.0,0.0,0.0,0.0,0.0,0.0,0.0,0.0,0.0,0.0,0.0,0.0,0.0,0.0,0.0,0.0,0.0,0.0,0.0,0.0,0.9799,0.9799,0.9799,0.9799,0.9799,0.9799,0.0,0.0,0.0,0.0,0.0,0.0,0.0,0.0,0.0,0.0,0.0,0.0,0.0,0.0,0.0,0.0,0.0,0.0,0.0,0.0,0.0,0.0,0.0,0.0,0.0,0.0,0.0,0.0,0.0,0.0,0.0,0.0,0.0,0.0,0.0,0.0,0.0,0.0,0.0,0.0,0.0,0.0,0.0,0.0,0.0,0.0,0.0,0.0,0.0,0.0,0.0,0.0,0.0,0.0,0.0,0.0,0.0,0.0,0.0,0.0,0.0,0.0,0.0,0.0,0.0,0.0,0.0,0.0,0.0,0.0,0.0,0.0,0.0,0.0,0.0,0.0,0.0,0.0,0.0,0.0,0.0,0.0,0.0,0.0,0.0,0.0,0.0,0.0,0.0,0.0,0.0,0.0,0.0,0.0,0.0,0.0,0.0,0.0,0.0,0.0,0.0,0.0,0.0,0.0,0.0,0.0,0.0,0.0,0.0,0.9799,0.0,0.9799,0.9799,0.9799,0.9799,0.0,0.0,0.0,0.0,0.0,0.0,0.0,0.0,0.0,0.0,0.0,0.0,0.0,0.0,0.0,0.0,0.0,0.0,0.0,0.0,0.0,0.0,0.0,0.0,0.0,0.0,0.0,0.0,0.0,0.0,0.0,0.0,0.0,0.0,0.0,0.0,0.0,0.0,0.0,0.0,0.0,0.0,0.0,0.0,0.0,0.0,0.0,0.0,0.0,0.0,0.0,0.0,0.0,0.0,0.0,0.0,0.0,0.0,0.0,0.0,0.0,0.0,0.0,0.0,0.0,0.0,0.0,0.0,0.0,0.0,0.0,0.0,0.0,0.0,0.0,0.0,0.0,0.0,0.0,0.0,0.0,0.0,0.0,0.0,0.0,0.0,0.0,0.0,0.0,0.0,0.0,0.0,0.0,0.0,0.0,0.0,0.0,0.0,0.0,0.0,0.0,0.0,0.0,0.0,0.0,0.0,0.0,0.0,0.9821,0.9806,0.9792,0.9792,0.9799,0.9792,0.9799,0.0,0.0,0.0,0.0,0.0,0.0,0.0,0.0,0.0,0.0,0.0,0.0,0.0,0.0,0.0,0.0,0.0,0.0,0.0,0.0,0.0,0.0,0.0,0.0,0.0,0.0,0.0,0.0,0.0,0.0,0.0,0.0,0.0,0.0,0.0,0.0,0.0,0.0,0.0,0.0,0.0,0.0,0.0,0.0,0.0,0.0,0.0,0.0,0.0,0.0,0.0,0.0,0.0,0.0,0.0,0.0,0.0,0.0,0.0,0.0,0.0,0.0,0.0,0.0,0.0,0.0,0.0,0.0,0.0,0.0,0.0,0.0,0.0,0.0,0.0,0.0,0.0,0.0,0.0,0.0,0.0,0.0,0.0,0.0,0.0,0.0,0.0,0.0,0.0,0.0,0.0,0.0,0.0,0.0,0.0,0.0,0.0,0.0,0.0,0.0,0.0,0.0,0.0,0.0,0.0,0.0,0.0,0.0,0.0,1.015,0.9923,0.9838,0.9918,0.9838,0.9799,0.0,0.0,0.0,0.0,0.0,0.0,0.0,0.0,0.0,0.0,0.0,0.0,0.0,0.0,0.0,0.0,0.0,0.0,0.0,0.0,0.0,0.0,0.0,0.0,0.0,0.0,0.0,0.0,0.0,0.0,0.0,0.0,0.0,0.0,0.0,0.0,0.0,0.0,0.0,0.0,0.0,0.0,0.0,0.0,0.0,0.0,0.0,0.0,0.0,0.0,0.0,0.0,0.0,0.0,0.0,0.0,0.0,0.0,0.0,0.0,0.0,0.0,0.0,0.0,0.0,0.0,0.0,0.0,0.0,0.0,0.0,0.0,0.0,0.0,0.0,0.0,0.0,0.0,0.0,0.0,0.0,0.0,0.0,0.0,0.0,0.0,0.0,0.0,0.0,0.0,0.0,0.0,0.0,0.0,0.0,0.0,0.0,0.0,0.0,0.0,0.0,0.0,0.0,0.0,0.0,0.0,0.0,0.0,0.0,1.062,1.0302,1.0186,1.0257,1.0185,1.005,0.9879,0.0,0.0,0.0,0.0,0.0,0.0,0.0,0.0,0.0,0.0,0.0,0.0,0.0,0.0,0.0,0.0,0.0,0.0,0.0,0.0,0.0,0.0,0.0,0.0,0.0,0.0,0.0,0.0,0.0,0.0,0.0,0.0,0.0,0.0,0.0,0.0,0.0,0.0,0.0,0.0,0.0,0.0,0.0,0.0,0.0,0.0,0.0,0.0,0.0,0.0,0.0,0.0,0.0,0.0,0.0,0.0,0.0,0.0,0.0,0.0,0.0,0.0,0.0,0.0,0.0,0.0,0.0,0.0,0.0,0.0,0.0,0.0,0.0,0.0,0.0,0.0,0.0,0.0,0.0,0.0,0.0,0.0,0.0,0.0,0.0,0.0,0.0,0.0,0.0,0.0,0.0,0.0,0.0,0.0,0.0,0.0,0.0,0.0,0.0,0.0,0.0,0.0,0.0,0.0,0.0,0.0,0.0,0.0,1.122,1.0934,1.077,1.0728,1.0699,1.0504,0.0,0.0,0.0,0.0,0.0,0.0,0.0,0.0,0.0,0.0,0.0,0.0,0.0,0.0,0.0,0.0,0.0,0.0,0.0,0.0,0.0,0.0,0.0,0.0,0.0,0.0,0.0,0.0,0.0,0.0,0.0,0.0,0.0,0.0,0.0,0.0,0.0,0.0,0.0,0.0,0.0,0.0,0.0,0.0,0.0,0.0,0.0,0.0,0.0,0.0,0.0,0.0,0.0,0.0,0.0,0.0,0.0,0.0,0.0,0.0,0.0,0.0,0.0,0.0,0.0,0.0,0.0,0.0,0.0,0.0,0.0,0.0,0.0,0.0,0.0,0.0,0.0,0.0,0.0,0.0,0.0,0.0,0.0,0.0,0.0,0.0,0.0,0.0,0.0,0.0,0.0,0.0,0.0,0.0,0.0,0.0,0.0,0.0,0.0,0.0,0.0,0.0,0.0,0.0,0.0,0.0,0.0,0.0,0.0,1.1491,1.1658,1.1531,1.108,1.0823,1.0599,0.0,0.0,0.0,0.0,0.0,0.0,0.0,0.0,0.0,0.0,0.0,0.0,0.0,0.0,0.0,0.0,0.0,0.0,0.0,0.0,0.0,0.0,0.0,0.0,0.0,0.0,0.0,0.0,0.0,0.0,0.0,0.0,0.0,0.0,0.0,0.0,0.0,0.0,0.0,0.0,0.0,0.0,0.0,0.0,0.0,0.0,0.0,0.0,0.0,0.0,0.0,0.0,0.0,0.0,0.0,0.0,0.0,0.0,0.0,0.0,0.0,0.0,0.0,0.0,0.0,0.0,0.0,0.0,0.0,0.0,0.0,0.0,0.0,0.0,0.0,0.0,0.0,0.0,0.0,0.0,0.0,0.0,0.0,0.0,0.0,0.0,0.0,0.0,0.0,0.0,0.0,0.0,0.0,0.0,0.0,0.0,0.0,0.0,0.0,0.0,0.0,0.0,0.0,0.0,0.0,0.0,0.0,0.0,1.1576,1.1602,1.2043,1.2072,1.1683,1.1278,1.0951,0.0,0.0,0.0,0.0,0.0,0.0,0.0,0.0,0.0,0.0,0.0,0.0,0.0,0.0,0.0,0.0,0.0,0.0,0.0,0.0,0.0,0.0,0.0,0.0,0.0,0.0,0.0,0.0,0.0,0.0,0.0,0.0,0.0,0.0,0.0,0.0,0.0,0.0,0.0,0.0,0.0,0.0,0.0,0.0,0.0,0.0,0.0,0.0,0.0,0.0,0.0,0.0,0.0,0.0,0.0,0.0,0.0,0.0,0.0,0.0,0.0,0.0,0.0,0.0,0.0,0.0,0.0,0.0,0.0,0.0,0.0,0.0,0.0,0.0,0.0,0.0,0.0,0.0,0.0,0.0,0.0,0.0,0.0,0.0,0.0,0.0,0.0,0.0,0.0,0.0,0.0,0.0,0.0,0.0,0.0,0.0,0.0,0.0,0.0,0.0,0.0,0.0,0.0,0.0,0.0,0.0,0.0,0.0,1.1811,1.1656,1.22,1.245,1.2314,1.1854,1.1396,0.0,0.0,0.0,0.0,0.0,0.0,0.0,0.0,0.0,0.0,0.0,0.0,0.0,0.0,0.0,0.0,0.0,0.0,0.0,0.0,0.0,0.0,0.0,0.0,0.0,0.0,0.0,0.0,0.0,0.0,0.0,0.0,0.0,0.0,0.0,0.0,0.0,0.0,0.0,0.0,0.0,0.0,0.0,0.0,0.0,0.0,0.0,0.0,0.0,0.0,0.0,0.0,0.0,0.0,0.0,0.0,0.0,0.0,0.0,0.0,0.0,0.0,0.0,0.0,0.0,0.0,0.0,0.0,0.0,0.0,0.0,0.0,0.0,0.0,0.0,0.0,0.0,0.0,0.0,0.0,0.0,0.0,0.0,0.0,0.0,0.0,0.0,0.0,0.0,0.0,0.0,0.0,0.0,0.0,0.0,0.0,0.0,0.0,0.0,0.0,0.0,0.0,0.0,0.0,0.0,0.0,0.0,0.0,1.1771,1.1993,1.2337,1.2488,1.2444,1.1893,1.15,0.0,0.0,0.0,0.0,0.0,0.0,0.0,0.0,0.0,0.0,0.0,0.0,0.0,0.0,0.0,0.0,0.0,0.0,0.0,0.0,0.0,0.0,0.0,0.0,0.0,0.0,0.0,0.0,0.0,0.0,0.0,0.0,0.0,0.0,0.0,0.0,0.0,0.0,0.0,0.0,0.0,0.0,0.0,0.0,0.0,0.0,0.0,0.0,0.751,0.0,0.0,0.0,0.0,0.0,0.0,0.0,0.0,0.0,0.0,0.0,0.0,0.0,0.0,0.0,0.0,0.0,0.0,0.0,0.0,0.0,0.0,0.0,0.0,0.0,0.0,0.0,0.0,0.0,0.0,0.0,0.0,0.0,0.0,0.0,0.0,0.0,0.0,0.0,0.0,0.0,0.0,0.0,0.0,0.0,0.0,0.0,0.0,0.0,0.0,0.0,0.0,0.0,0.0,0.0,0.0,0.0,0.0,0.0,1.1762,1.2091,1.2362,1.2511,1.2488,1.206,1.173,0.0,0.0,0.0,0.0,0.0,0.0,0.0,0.0,0.0,0.0,0.0,0.0,0.0,0.0,0.0,0.0,0.0,0.0,0.0,0.0,0.0,0.0,0.0,0.0,0.0,0.0,0.0,0.0,0.0,0.0,0.0,0.0,0.0,0.0,0.0,0.0,0.0,0.0,0.0,0.0,0.0,0.0,0.0,0.0,0.0,0.0,0.0,0.0,0.0,0.0,0.0,0.0,0.0,0.0,0.0,0.0,0.0,0.0,0.0,0.0,0.0,0.0,0.0,0.0,0.0,0.0,0.0,0.0,0.0,0.0,0.0,0.0,0.0,0.0,0.0,0.0,0.0,0.0,0.0,0.0,0.0,0.0,0.0,0.0,0.0,0.0,0.0,0.0,0.0,0.0,0.0,0.0,0.0,0.0,0.0,0.0,0.0,0.0,0.0,0.0,0.0,0.0,0.0,0.0,0.0,0.0,0.0,1.1493,1.1793,1.215,1.2382,1.2511,1.2485,1.2245,1.1955,1.1599,0.0,0.0,0.0,0.0,0.0,0.0,0.0,0.0,0.0,0.0,0.0,0.0,0.0,0.0,0.0,0.0,0.0,0.0,0.0,0.0,0.0,0.0,0.0,0.0,0.0,0.0,0.0,0.0,0.0,0.0,0.0,0.0,0.0,0.0,0.0,0.0,0.0,0.0,0.0116,0.5744,0.0,0.0,0.0,0.0,0.0,0.0,0.0,0.0,1.0456,0.0,0.0,0.0,0.0,0.0,0.0,0.0,0.0,0.0,0.0,0.0,0.0,0.0,0.0,0.0,0.0,0.0,0.0,0.0,0.0,0.0,0.0,0.0,0.0,0.0,0.0,0.0,0.0,0.0,0.0,0.0,0.0,0.0,0.0,0.0,0.0,0.0,0.0,0.0,0.0,0.0,0.0,0.0,0.0,0.0,0.0,0.0,0.0,0.0,0.0,0.0,0.0,0.0,0.0,0.0,0.0,1.1538,1.1696,1.1981,1.2423,1.2484,1.2511,1.2494,1.2245,1.1943,1.1617,0.0,0.0,0.0,0.0,0.0,0.0,0.0,0.0,0.0,0.0,0.0,0.0,0.0,0.0,0.0,0.0,0.0,0.0,0.0,0.0,0.0,0.0,0.0,0.0,0.0,0.0,0.0,0.0,0.0,0.0,0.0,0.0,0.0,0.0,0.0,0.0,0.0,0.0,0.0,0.6089,0.9996,0.0,0.0,0.0,0.0,0.0,0.0,0.0,0.0,0.99,0.0,0.0,0.0,0.0,0.0,0.0,0.0,0.0,0.0,0.0,0.0,0.0,0.0,0.0,0.0,0.0,0.0,0.0,0.0,0.0,0.0,0.0,0.0,0.0,0.0,0.0,0.0,0.0,0.0,0.0,0.0,0.0,0.0,0.0,0.0,0.0,0.0,0.0,0.0,0.0,0.0,0.0,0.0,0.0,0.0,0.0,0.0,0.0,0.0,0.0,0.0,0.0,0.0,0.0,0.0,1.1846,1.2058,1.2359,1.2745,1.2758,1.2758,1.2742,1.2476,1.2105,0.0,0.0,0.0,0.0,0.0,0.0,0.0,0.0,0.0,0.0,0.0,0.0,0.0,0.0,0.0,0.0,0.0,0.0,0.0,0.0,0.0,0.0,0.0,0.0,0.0,0.0,0.0,0.0,0.0,0.0,0.0,0.0,0.0,0.0,0.0,0.0,0.0,0.0,0.0,0.0,0.8342,1.0483,0.9872,0.0,0.0,0.0,0.0,0.0,0.0,1.0197,1.0145,0.0,0.0,0.0,0.0,0.0,0.0,0.0,0.0,0.0,0.0,0.0,0.0,0.0,0.0,0.0,0.0,0.0,0.0,0.0,0.0,0.0,0.0,0.0,0.0,0.0,0.0,0.0,0.0,0.0,0.0,0.0,0.0,0.0,0.0,0.0,0.0,0.0,0.0,0.0,0.0,0.0,0.0,0.0,0.0,0.0,0.0,0.0,0.0,0.0,0.0,0.0,0.0,0.0,0.0,0.0,1.2091,1.2389,1.2687,1.2989,1.3003,1.3003,1.2996,1.2613,1.2244,0.0,0.0,0.0,0.0,0.0,0.0,0.0,0.0,0.0,0.0,0.0,0.0,0.0,0.0,0.0,0.0,0.0,0.0,0.0,0.0,0.0,0.0,0.0,0.0,0.0,0.0,0.0,0.0,0.0,0.0,0.0,0.0,0.0,0.0,0.0,0.0,0.0,0.0,0.0,0.0,0.0,0.9858,0.8098,0.9046,0.0,0.0,0.0,0.0,1.0157,1.0158,0.0,0.0,0.0,0.0,0.0,0.0,0.0,0.0,0.0,0.0,0.0,0.0,0.0,0.0,0.0,0.0,0.0,0.0,0.0,0.0,0.0,0.0,0.0,0.0,0.0,0.0,0.0,0.0,0.0,0.0,0.0,0.0,0.0,0.0,0.0,0.0,0.0,0.0,0.0,0.0,0.0,0.0,0.0,0.0,0.0,0.0,0.0,0.0,0.0,0.0,0.0,0.0,0.0,0.0,0.0,0.0,1.2095,1.2488,1.2786,1.2989,1.3003,1.3003,1.2989,1.2442,1.2116,0.0,0.0,0.0,0.0,0.0,0.0,0.0,0.0,0.0,0.0,0.0,0.0,0.0,0.0,0.0,0.0,0.0,0.0,0.0,0.0,0.0,0.0,0.0,0.0,0.0,0.0,0.0,0.0,0.0,0.0,0.0,0.0,0.0,0.0,0.0,0.0,0.0,0.0,0.0,0.0,0.0,0.7768,0.1951,0.6564,1.0422,0.0,0.0,1.054,1.0307,1.0572,0.0,0.0,0.0,0.0,0.0,0.0,0.0,0.0,0.0,0.0,0.0,0.0,0.0,0.0,0.0,0.0,0.0,0.0,0.0,0.0,0.0,0.0,0.0,0.0,0.0,0.0,0.0,0.0,0.0,0.0,0.0,0.0,0.0,0.0,0.0,0.0,0.0,0.0,0.0,0.0,0.0,0.0,0.0,0.0,0.0,0.0,0.0,0.0,0.0,0.0,0.0,0.0,0.0,0.0,0.0,1.2159,1.2334,1.284,1.3149,1.3227,1.3234,1.3227,1.3237,1.2643,1.229,0.0,0.0,0.0,0.0,0.0,0.0,0.0,0.0,0.0,0.0,0.0,0.0,0.0,0.0,0.0,0.0,0.0,0.0,0.0,0.0,0.0,0.0,0.0,0.0,0.0,0.0,0.0,0.0,0.0,0.0,0.0,0.0,0.0,0.0,0.0,0.0,0.0,0.0,0.0,0.0,0.0,0.0,0.6849,0.8822,0.0,0.0,0.0,1.053,1.0342,0.0,0.0,0.0,0.0,0.0,0.0,0.0,0.0,0.0,0.0,0.0,0.0,0.0,0.0,0.0,0.0,0.0,0.0,0.0,0.0,0.0,0.0,0.0,0.0,0.0,0.0,0.0,0.0,0.0,0.0,0.0,0.0,0.0,0.0,0.0,0.0,0.0,0.0,0.0,0.0,0.0,0.0,0.0,0.0,0.0,0.0,0.0,0.0,0.0,0.0,0.0,0.0,0.0,0.0,0.0,0.0,0.0,1.2505,1.3091,1.3397,1.3397,1.3397,1.3397,1.339,1.2888,0.0,0.0,0.0,0.0,0.0,0.0,0.0,0.0,0.0,0.0,0.0,0.0,0.0,0.0,0.0,0.0,0.0,0.0,0.0,0.0,0.0,0.0,0.0,0.0,0.0,0.0,0.0,0.9801,0.0,0.0,0.0,0.0,0.0,0.0,0.0,0.0,0.0,0.0,0.0,0.0,0.0,0.0,0.8388,1.1203,1.0793,0.9252,0.0,0.0,1.0586,1.0421,1.067,1.0751,0.0,0.0,0.0,0.0,0.0,0.0,0.0,0.0,0.0,0.0,0.0,0.0,0.0,0.0,0.0,0.0,0.0,0.0,0.0,0.0,0.0,0.0,0.0,0.0,0.0,0.0,0.0,0.0,0.0,0.0,0.0,0.0,0.0,0.0,0.0,0.0,0.0,0.0,0.0,0.0,0.0,0.0,0.0,0.0,0.0,0.0,0.0,0.0,0.0,0.0,0.0,0.0,0.0,0.0,0.0,1.2522,1.3091,1.3397,1.3397,1.3397,1.3397,1.3397,1.3129,1.2816,0.0,0.0,0.0,0.0,0.0,0.0,0.0,0.0,0.0,0.0,0.0,0.0,0.0,0.0,0.0,0.0,0.0,0.0,0.0,0.0,0.0,0.0,0.0,0.0,0.0,0.0,0.0,0.0,0.0,0.0,0.0,0.0,0.0,0.0,0.0,0.0,0.0,0.0,0.0,0.0,0.0,0.3351,1.0569,1.0587,0.9948,0.0,0.0,1.0889,1.0697,1.1056,1.1121,1.0407,0.0,0.0,0.0,0.0,0.0,0.0,0.0,0.0,0.0,0.0,0.0,0.0,0.0,0.0,0.0,0.0,0.0,0.0,0.0,0.0,0.0,0.0,0.0,0.0,0.0,0.0,0.0,0.0,0.0,0.0,0.0,0.0,0.0,0.0,0.0,0.0,0.0,0.0,0.0,0.0,0.0,0.0,0.0,0.0,0.0,0.0,0.0,0.0,0.0,0.0,0.0,0.0,0.0,1.2511,1.2518,1.3108,1.3397,1.3397,1.3397,1.3397,1.3397,1.3142,1.284,0.0,0.0,0.0,0.0,0.0,0.0,0.0,0.0,0.0,0.0,0.0,0.0,0.0,0.0,0.0,0.0,0.0,0.0,0.0,0.0,0.0,0.0,0.0,0.0,0.0,0.0,0.0,0.0,0.9912,1.0115,1.0431,0.0,0.0,0.0,0.0,0.0,0.0,0.0,0.0,0.0,0.0,0.7403,1.1091,1.1203,0.0,0.0,1.0732,1.0847,1.0625,1.0797,1.0819,1.0366,1.0384,0.0,0.0,0.0,0.0,0.0,0.0,0.0,0.0,0.0,0.0,0.0,0.0,0.0,0.0,0.0,0.0,0.0,0.0,0.0,0.0,0.0,0.0,0.0,0.0,0.0,0.0,0.0,0.0,0.0,0.0,0.0,0.0,0.0,0.0,0.0,0.0,0.0,0.0,0.0,0.0,0.0,0.0,0.0,0.0,0.0,0.0,0.0,0.0,0.0,0.0,0.0,0.0,1.2511,1.2511,1.3081,1.3397,1.3397,1.3397,1.3397,1.3397,1.322,1.2969,0.0,0.0,0.0,0.0,0.0,0.0,0.0,0.0,0.0,0.0,0.0,0.0,0.0,0.0,0.0,0.0,0.0,0.0,0.0,0.0,0.0,0.0,0.0,0.0,0.0,0.0,0.0,0.0,0.9852,0.9894,1.0136,0.0,0.0,0.0,0.0,0.0,0.0,0.0,0.0,0.0,0.0,1.0432,1.1443,1.1595,1.1308,1.0542,1.0548,1.0632,1.0529,1.0582,1.056,1.0341,0.0,0.0,0.0,0.0,0.0,0.0,0.0,0.0,0.0,0.0,0.0,0.0,0.0,0.0,0.0,0.0,0.0,0.0,0.0,0.0,0.0,0.0,0.0,0.0,0.0,0.0,0.0,0.0,0.0,0.0,1.3554,0.0,0.0,0.0,0.0,0.0,0.0,0.0,0.0,0.0,0.0,0.0,0.0,0.0,0.0,0.0,0.0,0.0,0.0,0.0,0.0,0.0,0.0,1.2559,1.2537,1.325,1.35,1.3511,1.3417,1.3469,1.3469,1.339,1.3268,1.3039,0.0,0.0,0.0,0.0,0.0,0.0,0.0,0.0,0.0,0.0,0.0,0.0,0.0,0.0,0.0,0.0,0.0,0.0,0.0,0.0,0.0,0.0,0.0,0.0,0.0,0.0,1.0265,0.9988,0.9796,0.0,0.0,0.0,0.0,0.0,0.0,0.0,0.0,0.0,0.0,1.0295,1.09,1.1508,1.1581,1.1332,1.0747,1.0365,1.021,1.0457,1.0502,1.0446,0.0,0.0,0.0,0.0,0.0,0.0,0.0,0.0,0.0,0.0,0.0,0.0,0.0,0.0,0.0,0.0,0.0,0.0,0.0,0.0,0.0,0.0,0.0,0.0,0.0,0.0,0.0,1.9685,2.0257,0.0,0.0,0.0,0.0,0.0,0.0,0.0,0.0,0.0,0.0,0.0,1.8256,1.9007,0.0,0.0,0.0,0.0,0.0,0.0,0.0,0.0,0.0,0.0,0.0,0.0,1.4731,1.4907,1.6745,1.7721,1.7689,1.6287,1.5525,1.5514,1.4145,1.3933,1.508,0.0,0.0,0.0,0.0,0.0,0.0,0.0,0.0,0.0,0.0,0.0,0.0,0.0,0.0,0.0,0.0,0.0,0.0,0.0,0.0,0.0,0.0,0.0,0.0,0.0,1.0079,0.0,0.0,0.0,0.0,0.0,0.0,0.0,0.0,0.0,0.0,0.0,1.0319,1.0399,1.0573,1.091,1.1527,1.0915,1.0412,0.0,0.0,0.0,0.0,0.0,0.0,0.0,0.0,0.0,0.0,0.0,0.0,0.0,0.0,0.9829,0.9921,0.9965,1.0024,1.0115,0.0,0.0,0.0,0.0,0.0,0.0,0.0,0.0,0.0,0.0,0.0,0.0,0.0,0.0,2.2245,0.0,2.2203,0.0,0.0,0.0,0.0,0.0,0.0,0.0,0.0,1.9503,2.0241,2.1227,2.1752,2.1851,0.0,2.0384,1.7841,0.0,0.0,0.0,0.0,0.0,0.0,0.0,0.0,1.5957,1.6211,1.7219,1.8244,1.9096,1.6875,1.602,1.679,1.6181,1.5959,1.6311,1.4688,1.3296,0.0,0.0,0.0,0.0,0.0,0.0,0.0,0.0,0.0,0.0,0.0,0.0,0.0,0.0,0.0,0.0,0.0,0.0,0.0,0.0,0.0,0.0,0.0,1.0018,0.0,0.0,0.0,0.0,0.0,0.0,0.0,0.0,0.0,1.0314,1.0428,1.0475,1.039,1.0576,1.0774,1.0948,0.0,0.0,0.0,0.0,0.0,0.0,0.0,1.0319,1.0139,1.0113,1.0206,1.0397,1.0262,1.0216,1.0552,0.0,0.0,1.0188,1.0231,1.0316,1.0292,1.0333,1.0409,1.0481,1.0291,1.012,0.0,0.0,0.0,0.0,0.0,0.0,0.0,0.0,2.3786,2.3465,0.0,2.354,0.0,0.0,0.0,0.0,0.0,1.8471,0.0,0.0,2.3017,2.4066,2.4532,2.3668,2.432,2.6119,2.3097,2.0792,1.9303,1.9267,0.0,0.0,0.0,0.0,0.0,0.0,1.6364,1.6722,1.5344,1.5616,1.8066,1.5616,1.5257,1.7387,1.9252,1.9174,1.6985,1.6458,1.5436,1.3769,1.2723,0.0,0.0,0.0,0.0,0.0,0.0,0.0,0.0,0.0,0.0,0.0,0.0,0.0,0.0,0.0,0.0,0.0,0.0,0.0,0.0,1.0205,0.0,0.0,0.0,0.0,0.0,0.0,0.0,0.0,0.0,0.0,1.0366,1.0653,1.0647,0.9953,0.0,0.0,0.0,0.0,0.9958,1.0307,1.0557,1.0636,1.0373,1.0449,1.0569,1.0665,0.0,0.0,1.063,1.0719,1.0821,1.1158,1.1823,1.2012,1.0603,1.0573,1.0676,1.0437,1.0503,1.0544,1.0549,1.0654,1.0695,2.4507,0.0,0.0,0.0,0.0,2.3915,2.4284,2.495,2.4145,2.4055,2.4462,2.4408,0.0,0.0,0.0,0.0,0.0,0.0,2.2149,2.4281,2.3434,2.4044,2.5872,2.5596,2.5796,2.6354,2.5423,2.4829,2.4572,2.4572,2.2241,1.7803,0.0,0.0,0.0,0.0,2.0764,2.0826,2.2506,2.28,2.1522,2.1233,2.0658,1.982,2.0336,2.0962,2.154,1.8538,1.772,1.9445,1.5218,0.0,0.0,0.0,0.0,0.0,0.0,0.0,0.0,0.0,0.0,0.0,0.0,0.0,0.0,0.0,0.0,0.0,0.0,0.0,1.056,1.1088,1.1129,0.0,0.0,0.0,0.0,0.0,0.0,0.0,0.0,0.0,1.076,1.073,1.0777,0.0,0.0,1.0587,1.1012,1.0713,1.0633,1.115,1.1288,0.0,1.0986,1.0983,1.0939,1.0735,1.0563,1.0636,1.125,1.1332,1.1376,1.1477,1.1692,1.1642,1.1136,1.1277,1.1452,1.129,1.1265,1.1276,1.1292,1.1161,1.1102,2.5487,2.5121,2.4746,2.4733,2.4929,2.4787,2.5148,2.5813,2.513,2.5011,2.5268,2.5306,2.4872,2.4115,2.4115,0.0,0.0,0.0,2.4201,2.5807,2.47,2.4957,2.6343,2.641,2.6526,2.6742,2.6513,2.661,2.6977,2.664,2.4934,2.195,0.0,0.0,2.0916,2.2383,2.3421,2.3967,2.4564,2.489,2.4996,2.4524,2.3597,2.2229,2.3056,2.3618,2.3713,2.1136,1.9356,1.8667,1.6699,1.5412,0.0,0.0,0.0,0.0,0.0,0.0,0.0,0.0,0.0,0.0,0.0,1.0904,1.1384,0.0,0.0,0.0,1.1272,1.1011,1.0948,1.1519,0.0,0.0,0.0,0.0,0.0,0.0,0.0,1.0969,1.1104,1.1157,1.1043,1.0938,1.0971,1.1169,1.0782,1.0651,1.117,0.0,1.1005,1.1826,1.1951,1.1839,1.1495,1.1438,1.1382,1.1204,1.1111,1.118,1.1501,1.1594,1.1642,1.1747,1.1694,1.1601,1.1626,1.1869,1.1912,1.1522,1.1482,1.1516,1.1522,1.1429,1.1402,2.6001,2.594,2.5094,2.5035,2.5495,2.5518,2.5806,2.6323,2.6384,2.6076,2.5546,2.6132,2.5784,2.4755,2.4733,0.0,2.5575,2.5585,2.5836,2.6396,2.6413,2.6416,2.6407,2.643,2.6753,2.728,2.673,2.6767,2.7272,2.6546,2.6389,2.683,2.6824,2.5759,2.3768,2.3865,2.4829,2.6468,2.3383,2.3818,2.8028,2.6102,2.4839,2.4549,2.6616,2.6633,2.4416,2.388,2.0816,1.5001,1.7565,1.7566,1.389,0.0,0.0,0.0,0.0,0.0,0.0,0.0,0.0,0.0,0.0,0.0,0.0,0.0,0.0,0.0,1.1599,0.0,1.1615,1.1605,0.0,0.0,0.0,1.0839,1.0845,1.1102,1.1347,1.1549,0.0,0.0,1.1205,1.1218,1.1234,1.1222,1.0941,1.0743,1.0767,1.0874,1.126,1.2405,1.255,1.2376,1.1948,1.1841,1.182,1.1859,1.1765,1.1653,1.17,1.1706,1.1826,1.2066,1.1879,1.181,1.2231,1.226,1.209,1.1487,1.144,1.1504,1.1525,1.1593,1.1635,2.6189,2.5998,2.5972,2.5798,2.5518,2.5518,2.5575,2.5751,2.6196,2.6063,2.5554,2.6122,2.6243,2.5972,2.5982,2.6039,2.6196,2.6196,2.6253,2.641,2.6603,2.6607,2.6413,2.6853,2.7145,2.7273,2.7165,2.7252,2.7575,2.7399,2.7262,2.7181,2.7181,2.6682,2.5736,2.575,2.6451,2.7747,2.6509,2.6606,2.8098,2.7659,2.7327,2.7272,2.7777,2.7697,2.6843,2.5174,2.4091,2.354,1.9824,1.8475,2.0218,1.5793,0.0,0.0,0.0,0.0,0.0,0.0,0.0,0.0,0.0,1.1207,1.2407,0.0,1.1253,0.0,1.1554,1.193,1.1759,1.1661,0.0,0.0,1.1587,1.2071,1.2082,1.1968,1.1752,1.1408,1.1442,1.1472,1.1357,1.1454,1.1498,1.1486,1.1269,1.1153,1.1363,1.1791,1.2337,1.2987,1.2999,1.2753,1.2392,1.2149,1.2073,1.211,1.2051,1.2042,1.2244,1.2291,1.231,1.2394,1.2338,1.2306,1.2306,1.2301,1.2303,1.2215,1.2216,1.2222,1.211,1.2026,1.1905,2.6493,2.6356,2.6383,2.6139,2.5718,2.5848,2.5905,2.5915,2.5964,2.5897,2.5738,2.5913,2.6091,2.6215,2.6219,2.6362,2.6573,2.6577,2.6643,2.6817,2.6957,2.6984,2.6943,2.7188,2.744,2.7698,2.7551,2.7626,2.7903,2.7917,2.7857,2.7707,2.7697,2.7403,2.6807,2.653,2.6733,2.7388,2.7605,2.7878,2.8186,2.8203,2.8069,2.7794,2.7801,2.759,2.7145,2.5867,2.5105,2.4893,2.1456,1.9533,1.9556,1.5952,1.3848,0.0,0.0,0.0,0.0,0.0,0.0,0.0,0.0,0.0,0.0,0.0,1.1474,1.1142,1.1707,1.1991,1.1746,1.1654,1.1461,1.1145,1.1942,1.2509,1.2514,1.2139,1.1827,1.1678,1.1755,1.1828,1.1805,1.1864,1.189,1.1838,1.1787,1.1928,1.2341,1.2707,1.3022,1.3327,1.3279,1.3073,1.2768,1.2508,1.2388,1.2407,1.234,1.234,1.2471,1.2516,1.2554,1.2673,1.2727,1.2718,1.2624,1.2538,1.2535,1.2667,1.2715,1.2623,1.2443,1.2236,1.2027,2.686,2.6844,2.6603,2.6379,2.6195,2.6429,2.6433,2.6236,2.5721,2.5652,2.5922,2.5601,2.5693,2.6041,2.6051,2.6312,2.674,2.679,2.6961,2.7232,2.7312,2.7447,2.7584,2.7467,2.7676,2.8167,2.7911,2.7914,2.8189,2.8203,2.8165,2.8136,2.8136,2.7847,2.7299,2.679,2.6513,2.6526,2.7551,2.8117,2.8197,2.8072,2.7764,2.7272,2.7195,2.6927,2.6423,2.6165,2.5173,2.3295,2.2742,2.0694,1.6816,1.5878,1.4745,0.0,1.2203,0.0,0.0,0.0,0.0,0.0,0.0,0.0,0.0,1.1314,1.1703,1.1674,1.193,1.1991,1.173,1.171,1.1727,1.1738,1.2187,1.2516,1.2491,1.2067,1.186,1.2073,1.2138,1.219,1.2235,1.2298,1.2303,1.2145,1.2348,1.2691,1.3239,1.3349,1.3377,1.3428,1.3438,1.3309,1.3054,1.2868,1.2753,1.2739,1.2574,1.2525,1.2581,1.2632,1.2715,1.2979,1.3035,1.3044,1.3033,1.2874,1.2831,1.3013,1.3047,1.2952,1.2648,1.2423,1.2226,2.7205,2.7195,2.7152,2.7098,2.7068,2.7111,2.658,2.5659,2.5549,2.5536,2.5575,2.5341,2.5664,2.6303,2.6326,2.6373,2.649,2.67,2.6834,2.6921,2.7388,2.7615,2.7618,2.7911,2.8087,2.8206,2.8143,2.8136,2.8203,2.8203,2.8069,2.7799,2.7799,2.7636,2.7312,0.0,0.0,0.0,2.7339,2.7717,2.8152,2.7439,2.7014,2.6887,2.668,0.0,2.641,2.6362,2.6144,2.5664,2.3553,0.0,0.0,0.0,0.0,0.0,0.0,0.0,0.0,0.0,0.0,0.0,1.2584,1.2272,1.0885,1.1696,1.2243,1.2035,1.2052,1.2173,1.2321,1.2338,1.233,1.233,1.2429,1.2515,1.2514,1.2616,1.26,1.2154,1.2291,1.2348,1.2211,1.2413,1.2491,1.2236,1.2567,1.3024,1.3361,1.3414,1.3476,1.3665,1.3637,1.3479,1.3214,1.3122,1.3061,1.2946,1.2679,1.2625,1.2835,1.3076,1.3207,1.3318,1.3329,1.3284,1.3183,1.3135,1.3135,1.3302,1.3329,1.3237,1.2972,1.2874,1.2831,2.7747,0.0,2.7737,2.7657,0.0,2.7502,2.7078,2.6383,2.6072,2.5948,2.5922,2.564,2.5753,2.6202,2.6202,2.6443,2.6857,2.6994,2.7201,2.7492,2.7797,2.793,2.7923,2.8112,2.8283,2.8395,2.8406,2.8465,2.8588,2.8601,2.85,2.8353,2.8342,2.8273,2.8139,2.8132,2.8018,2.775,2.8299,2.8575,2.8572,2.8139,2.7755,2.7492,2.7198,0.0,0.0,0.0,0.0,0.0,0.0,0.0,0.0,1.9221,0.0,1.7556,1.5428,1.3709,1.2839,1.2589,1.2616,1.2926,1.3232,1.2958,1.1912,1.2398,1.2696,1.2565,1.2459,1.2444,1.257,1.2549,1.2509,1.2518,1.2513,1.2512,1.2538,1.2808,1.2928,1.2764,1.2657,1.2576,1.2554,1.2704,1.2828,1.2752,1.2877,1.3208,1.3695,1.3596,1.3549,1.3963,1.3842,1.365,1.3532,1.3441,1.3387,1.3278,1.2983,1.285,1.2973,1.3215,1.3438,1.3552,1.3497,1.3384,1.3401,1.3363,1.3308,1.3376,1.3397,1.3373,1.3217,1.32,1.32,2.8203,2.8203,2.8203,2.8045,2.7786,2.7776,2.7667,2.7414,0.0,0.0,0.0,2.6221,2.6128,2.6235,2.6215,2.6626,2.7296,2.7406,2.7724,2.8203,2.8299,2.8339,2.8318,2.8353,2.8452,2.866,2.8663,2.8794,2.8988,2.9001,2.9039,2.9068,2.909,2.9106,2.9161,2.9163,2.8936,2.8561,2.9428,2.96,2.9018,2.8863,2.8553,2.8112,2.7797,2.7362,2.682,2.6587,2.645,2.6357,2.4701,2.3723,2.3602,2.1767,1.9629,1.7401,1.6756,1.5681,1.3774,1.302,1.2865,1.3362,1.3401,1.3313,1.3078,1.3079,1.3053,1.3003,1.2847,1.2753,1.2746,1.2638,1.2532,1.2516,1.2599,1.2635,1.2556,1.2852,1.3155,1.3331,1.3044,1.2858,1.2959,1.3061,1.3152,1.3258,1.3166,1.3346,1.4026,1.3895,1.3775,1.4143,1.4035,1.3846,1.3826,1.3717,1.3643,1.3609,1.3356,1.3147,1.3182,1.3377,1.3642,1.3854,1.3683,1.3615,1.3633,1.3545,1.3464,1.3468,1.3478,1.3478,1.3478,1.3457,1.3426,2.8203,2.8203,2.8203,2.8162,2.8125,2.8136,2.8111,2.799,2.6903,2.6772,2.7402,2.7186,2.7105,2.7111,2.7122,2.7178,2.7325,2.7831,2.8109,2.8229,2.8671,2.8879,2.889,2.889,2.8906,2.8935,2.8946,2.8959,2.8988,2.9001,2.9143,2.9392,2.9419,2.9539,2.9757,2.9766,2.9713,2.9659,2.9828,2.9596,2.901,2.8262,2.7832,2.7773,2.7529,2.7185,2.683,2.678,2.664,2.639,2.5456,2.5691,2.724,2.548,2.3853,2.2517,2.0501,1.8375,1.6204,1.4345,1.3302,1.3383,1.3404,1.3381,1.3348,1.3339,1.325,1.3033,1.2979,1.2959,1.2959,1.2835,1.2692,1.2579,1.2958,1.3072,1.2612,1.301,1.3353,1.3409,1.3353,1.32,1.3088,1.3288,1.3379,1.3185,1.3309,1.3582,1.4102,1.424,1.4218,1.4247,1.416,1.4074,1.4038,1.3891,1.3805,1.3789,1.3732,1.366,1.367,1.3901,1.41,1.4218,1.4155,1.4038,1.3832,1.3754,1.3724,1.3721,1.37,1.3728,1.3711,1.3686,1.3604,2.8203,2.8203,2.8203,2.8203,2.8203,2.8203,2.8199,2.8159,2.763,2.7432,2.7594,2.7727,2.7601,2.7319,2.7319,2.7483,2.7814,2.8082,2.8355,2.8641,2.8879,2.9001,2.9001,2.9001,2.9092,2.9272,2.9272,2.9355,2.9466,2.949,2.9582,2.9713,2.9702,2.9771,2.9902,2.9913,2.9913,2.9913,2.9909,2.976,2.9501,2.9101,2.8887,2.8887,2.8639,2.8425,2.8281,2.8089,2.7875,2.7602,2.7277,2.7362,2.7853,2.7219,2.5928,2.3922,2.1503,1.9168,1.6997,1.4695,1.3401,1.3397,1.3397,1.3397,1.3401,1.3394,1.3343,1.3224,1.3146,1.3098,1.3101,1.2993,1.2889,1.2775,1.304,1.3121,1.3071,1.3346,1.3597,1.3604,1.3548,1.3461,1.3332,1.3498,1.3572,1.343,1.3668,1.4002,1.4261,1.4311,1.4307,1.4307,1.4241,1.4219,1.4212,1.4132,1.4074,1.4056,1.4067,1.4067,1.4078,1.4226,1.4291,1.4317,1.4306,1.425,1.4074,1.3913,1.3819,1.3795,1.3795,1.3795,1.3795,1.3773,1.3673,2.8203,2.8203,2.8203,2.8203,2.8203,2.8203,2.8203,2.8203,2.8189,2.8021,2.78,2.8081,2.7931,2.753,2.7576,2.7857,2.8272,2.8433,2.8719,2.9079,2.9183,2.9212,2.921,2.9188,2.933,2.9577,2.9579,2.97,2.9887,2.9913,2.9913,2.9913,2.9913,2.9913,2.9913,2.9913,2.9913,2.9913,2.9913,2.9913,2.9913,2.9913,2.9913,2.99,2.97,2.9553,2.9508,2.9259,2.8994,2.877,2.8644,2.839,2.7957,2.7954,2.7039,2.4899,2.2912,2.056,1.7856,1.4993,1.3398,1.3404,1.3404,1.3415,1.3478,1.3498,1.3454,1.3393,1.3298,1.3248,1.3231,1.3193,1.3129,1.3094,1.3084,1.3182,1.3385,1.3582,1.378,1.3848,1.3701,1.3566,1.3633,1.3654,1.3698,1.3842,1.41,1.4293,1.4309,1.431,1.431,1.4292,1.4272,1.4269,1.4296,1.4262,1.4245,1.4296,1.4296,1.4283,1.4283,1.4296,1.4314,1.4309,1.4314,1.43,1.4268,1.4106,1.3962,1.3941,1.3948,1.3945,1.3941,1.3941,1.3815,2.8203,2.8203,2.8203,2.8203,2.8203,2.8203,2.8203,2.8203,2.8203,2.8197,2.8137,2.8175,2.8172,2.816,2.8345,2.8481,2.8615,2.9123,2.9388,2.9459,2.9702,2.9811,2.9784,2.9809,2.9835,2.9849,2.9849,2.9873,2.9913,2.9913,2.9913,2.9913,2.9913,2.9913,2.9913,2.9913,2.9913,2.9913,2.9913,2.9913,2.9913,2.9913,2.9913,2.9913,2.9875,2.9753,2.9535,2.9481,2.9378,2.9208,2.8619,2.8371,2.85,2.7859,2.7387,2.7284,2.649,2.4314,1.9911,1.5732,1.3417,1.3403,1.3429,1.3525,1.3751,1.3779,1.366,1.3478,1.3407,1.339,1.338,1.3457,1.3483,1.3364,1.3367,1.338,1.3441,1.3417,1.363,1.4202,1.3767,1.3515,1.3747,1.3805,1.3918,1.4147,1.4236,1.4314,1.4309,1.431,1.431,1.429,1.4208,1.4188,1.4251,1.4205,1.4201,1.4283,1.431,1.431,1.431,1.431,1.431,1.4314,1.4307,1.4313,1.432,1.4269,1.4249,1.419,1.4204,1.4249,1.4251,1.4231,1.4092,2.8353,2.8203,2.8203,2.8203,2.8203,2.8203,2.8203,2.8203,2.8203,2.8203,2.8203,2.8203,2.8203,2.8192,2.8326,2.8521,2.885,2.909,2.9408,2.9715,2.9849,2.9913,2.9913,2.9913,2.9913,2.9913,2.9913,2.9913,2.9913,2.9913,2.9913,2.9913,2.9913,2.9913,2.9913,2.9913,2.9913,2.9913,2.9913,2.9913,2.9913,2.9913,2.9913,2.9913,2.9913,2.9838,2.9753,2.9729,2.9628,2.9438,2.9282,2.9032,2.8652,2.8127,2.7866,2.7813,2.5031,2.2516,2.0533,1.6192,1.3728,1.3922,1.3934,1.399,1.4071,1.4088,1.3971,1.3688,1.3651,1.364,1.363,1.3673,1.3692,1.365,1.3654,1.3709,1.3902,1.3932,1.3984,1.402,1.3981,1.396,1.4071,1.4098,1.4152,1.429,1.4315,1.4306,1.431,1.431,1.431,1.4292,1.4245,1.4238,1.4278,1.4258,1.4256,1.429,1.431,1.431,1.431,1.431,1.431,1.431,1.431,1.431,1.4314,1.431,1.431,1.431,1.431,1.431,1.431,1.431,1.4224,2.8551,2.8326,2.8253,2.8203,2.8203,2.8203,2.8203,2.8203,2.8203,2.8203,2.8203,2.8203,2.8203,2.8216,2.8353,2.8692,2.9103,2.9212,2.9477,2.9887,2.9913,2.9913,2.9913,2.9913,2.9913,2.9913,2.9913,2.9913,2.9913,2.9913,2.9913,2.9913,2.9913,2.9913,2.9913,2.9913,2.9913,2.9913,2.9913,2.9913,2.9913,2.9913,2.9913,2.9913,2.9913,2.9913,2.9913,2.9913,2.9809,2.9617,2.9796,2.9589,2.8906,2.8566,2.835,2.7984,2.4969,2.2319,2.1053,1.8921,1.786,1.809,1.81,1.6942,1.4886,1.4309,1.4211,1.3977,1.3934,1.3914,1.3802,1.3846,1.3862,1.3819,1.3857,1.4053,1.4246,1.4315,1.4191,1.3998,1.4037,1.4186,1.4238,1.4281,1.4349,1.4304,1.4305,1.4309,1.4332,1.4361,1.4405,1.441,1.4417,1.4376,1.4337,1.4303,1.431,1.431,1.431,1.431,1.431,1.431,1.431,1.431,1.431,1.431,1.431,1.431,1.431,1.431,1.431,1.431,1.431,1.431,1.431,2.8823,2.8564,2.8312,2.8203,2.8203,2.8203,2.8203,2.8203,2.8203,2.8203,2.8203,2.8203,2.8203,2.8256,2.87,2.913,2.9457,2.9686,2.9822,2.9913,2.9913,2.9913,2.9913,2.9913,2.9913,2.9913,2.9913,2.9913,2.9913,2.9913,2.9913,2.9913,2.9913,2.9913,2.9913,2.9913,2.9913,2.9913,2.9913,2.9913,2.9913,2.9913,2.9913,2.9913,2.9913,2.9913,2.9913,2.9913,2.9889,2.9875,2.9884,2.9753,2.9447,2.9122,2.8713,2.8227,2.7862,2.5766,2.262,2.4527,2.6344,2.6596,2.5232,2.3314,1.5239,1.4316,1.4293,1.4276,1.4227,1.4143,1.39,1.3994,1.4,1.3877,1.4085,1.4245,1.4298,1.4314,1.431,1.4215,1.4052,1.4033,1.4131,1.4355,1.4419,1.4365,1.4328,1.4356,1.4434,1.4572,1.4674,1.4685,1.4661,1.4602,1.4373,1.4367,1.4364,1.4326,1.4335,1.4317,1.431,1.431,1.431,1.431,1.431,1.431,1.431,1.431,1.431,1.431,1.431,1.431,1.431,1.431,1.431,2.9032,2.8593,2.8494,2.8355,2.8203,2.8203,2.8203,2.8203,2.8203,2.8203,2.8203,2.8203,2.8299,2.8468,2.8836,2.9066,2.9197,2.9488,2.9729,2.9889,2.9913,2.9913,2.9913,2.9913,2.9913,2.9913,2.9913,2.9913,2.9913,2.9913,2.9913,2.9913,2.9913,2.9913,2.9913,2.9913,2.9913,2.9913,2.9913,2.9913,2.9913,2.9913,2.9913,2.9913,2.9913,2.9913,2.9913,2.9913,2.9913,2.9913,2.9909,2.9775,2.9495,2.9177,2.8944,2.8593,2.7137,2.6043,2.5712,2.5292,2.3361,1.9743,1.9309,1.8621,1.5148,1.4316,1.431,1.4317,1.431,1.4231,1.4183,1.419,1.4195,1.4169,1.4232,1.4317,1.4314,1.4317,1.4311,1.4307,1.4236,1.4295,1.4342,1.4518,1.4606,1.4556,1.4558,1.4649,1.4826,1.4975,1.4995,1.4963,1.4831,1.466,1.459,1.455,1.453,1.443,1.439,1.4336,1.4315,1.4306,1.4306,1.4311,1.4308,1.4312,1.4312,1.431,1.431,1.431,1.431,1.431,1.431,1.431,1.431,2.927,2.8898,2.8684,2.8484,2.8329,2.8229,2.8203,2.8203,2.8203,2.8203,2.8203,2.8203,2.8355,2.8593,2.8796,2.901,2.917,2.9475,2.9726,2.9878,2.9913,2.9913,2.9913,2.9913,2.9913,2.9913,2.9913,2.9913,2.9913,2.9913,2.9913,2.9913,2.9913,2.9913,2.9913,2.9913,2.9913,2.9913,2.9913,2.9913,2.9913,2.9913,2.9913,2.9913,2.9913,2.9913,2.9913,2.9913,2.9913,2.9913,2.9913,2.9809,2.9619,2.9328,2.9168,2.8944,2.7461,2.6893,2.7909,2.6341,2.3419,1.939,1.8802,1.7984,1.5133,1.4409,1.442,1.4428,1.443,1.4419,1.443,1.4441,1.441,1.4336,1.4311,1.4316,1.4323,1.4363,1.4415,1.4457,1.4511,1.4548,1.4581,1.4697,1.4737,1.4723,1.4773,1.4974,1.5142,1.52,1.52,1.5184,1.5006,1.4909,1.4871,1.4864,1.4726,1.4613,1.4448,1.4392,1.4354,1.4338,1.4356,1.4347,1.4327,1.4317,1.4308,1.4317,1.431,1.431,1.431,1.431,1.431,1.431,1.431,2.9497,2.9388,2.8869,2.8631,2.8537,2.8329,2.8216,2.8203,2.8203,2.8203,2.8203,2.8226,2.8417,2.8577,2.8724,2.8965,2.943,2.974,2.9862,2.9913,2.9913,2.9913,2.9913,2.9913,2.9913,2.9913,2.9913,2.9913,2.9913,2.9913,2.9913,2.9913,2.9913,2.9913,2.9913,2.9913,2.9913,2.9913,2.9913,2.9913,2.9913,2.9913,2.9913,2.9913,2.9913,2.9913,2.9913,2.9913,2.9913,2.9913,2.9913,2.9913,2.9849,2.9633,2.9497,2.9446,2.9063,2.886,2.8705,2.85,2.7938,2.6815,2.75,2.3764,1.8079,1.5906,1.5503,1.558,1.5434,1.5131,1.5097,1.5044,1.4808,1.4368,1.4341,1.4361,1.4416,1.456,1.471,1.469,1.4692,1.4706,1.4751,1.4875,1.4929,1.4856,1.497,1.5143,1.5183,1.5199,1.52,1.52,1.5141,1.5084,1.5131,1.5165,1.4972,1.4789,1.4607,1.4483,1.447,1.4464,1.4581,1.4577,1.446,1.4451,1.4358,1.436,1.4337,1.433,1.4323,1.431,1.431,1.431,1.431,2.9684,2.9483,2.9296,2.8965,2.8617,2.8508,2.8382,2.8192,2.8203,2.8203,2.8274,2.8592,2.8687,2.8719,2.9016,2.931,2.9513,2.9769,2.9913,2.9902,2.9913,2.9913,2.9913,2.9913,2.9913,2.9913,2.9913,2.9913,2.9913,2.9913,2.9913,2.9913,2.9913,2.9913,2.9913,2.9913,2.9913,2.9913,2.9913,2.9913,2.9913,2.9913,2.9913,2.9913,2.9913,2.9913,2.9913,2.9913,2.9913,2.9913,2.9913,2.9913,2.9875,2.9833,2.978,2.9753,2.9513,2.9328,2.9224,2.9052,2.889,2.878,2.876,2.7889,2.5174,2.1854,2.0083,1.9785,1.9754,1.9238,1.769,1.7257,1.6439,1.4529,1.4461,1.4663,1.4833,1.4954,1.4918,1.4765,1.4823,1.4889,1.4934,1.5048,1.5099,1.5041,1.5142,1.5192,1.5192,1.5192,1.5204,1.5204,1.5192,1.5192,1.5192,1.5192,1.5099,1.4991,1.4849,1.4703,1.4656,1.468,1.4788,1.479,1.4672,1.4559,1.4473,1.4419,1.441,1.4357,1.4337,1.4323,1.4317,1.431,1.431,2.9795,2.9635,2.9526,2.9285,2.8914,2.882,2.8591,2.8347,2.8233,2.8201,2.828,2.8544,2.8673,2.8676,2.8906,2.9189,2.9481,2.9557,2.9691,2.9864,2.9913,2.9913,2.9913,2.9913,2.9913,2.9913,2.9913,2.9913,2.9913,2.9913,2.9913,2.9913,2.9913,2.9913,2.9913,2.9913,2.9913,2.9913,2.9913,2.9913,2.9913,2.9913,2.9913,2.9913,2.9913,2.9913,2.9913,2.9913,2.9913,2.9913,2.9913,2.9913,2.9913,2.9913,2.9913,2.9862,2.9755,2.9646,2.9619,2.9477,2.9333,2.9348,2.9329,2.9429,2.9237,2.654,2.4969,2.3431,2.2476,2.1601,2.0243,1.9914,1.8351,1.4972,1.4656,1.4848,1.5119,1.5197,1.5135,1.4989,1.4997,1.5061,1.5102,1.5136,1.5204,1.5192,1.5192,1.5192,1.5192,1.5192,1.5192,1.5192,1.5192,1.5192,1.5192,1.5192,1.5192,1.5168,1.5121,1.5008,1.4926,1.4989,1.5066,1.5037,1.4947,1.4763,1.4661,1.4586,1.4543,1.4464,1.4373,1.4353,1.4353,1.4317,1.431,2.9913,2.9875,2.9644,2.9521,2.9417,2.9143,2.8876,2.8601,2.8312,2.8217,2.8254,2.8273,2.838,2.8511,2.8519,2.8837,2.931,2.9197,2.9333,2.9675,2.9782,2.9782,2.9891,2.9898,2.9913,2.9913,2.9913,2.9913,2.9913,2.9913,2.9913,2.9913,2.9913,2.9913,2.9913,2.9913,2.9913,2.9913,2.9913,2.9913,2.9913,2.9913,2.9913,2.9913,2.9913,2.9913,2.9913,2.9913,2.9913,2.9913,2.9913,2.9913,2.9913,2.9913,2.9913,2.9913,2.9913,2.9887,2.99,2.9833,2.9811,2.9809,2.98,2.9915,2.9677,2.9243,2.7993,2.573,2.4319,2.319,2.2871,2.2677,2.0361,1.6159,1.4931,1.492,1.5135,1.5195,1.5161,1.5182,1.5186,1.5192,1.5172,1.5197,1.5204,1.5192,1.5192,1.5192,1.5192,1.5192,1.5192,1.5192,1.5192,1.5192,1.5192,1.5192,1.5192,1.5197,1.5194,1.5161,1.5111,1.5158,1.5204,1.5176,1.5144,1.4982,1.4851,1.4765,1.467,1.4561,1.4491,1.443,1.4394,1.4364,1.431,2.9913,2.9889,2.9822,2.9697,2.9499,2.9403,2.9181,2.8851,2.8417,2.8377,2.8433,2.8295,2.8391,2.8607,2.8751,2.8941,2.9077,2.9028,2.9041,2.9202,2.9239,2.9507,2.9835,2.9911,2.9913,2.9913,2.9913,2.9913,2.9913,2.9913,2.9913,2.9913,2.9913,2.9913,2.9913,2.9913,2.9913,2.9913,2.9913,2.9913,2.9913,2.9913,2.9913,2.9913,2.9913,2.9913,2.9913,2.9913,2.9913,2.9913,2.9913,2.9913,2.9913,2.9913,2.9913,2.9913,2.9913,2.9913,2.9913,2.9913,2.9913,2.9913,2.9913,2.9906,2.9915,2.9904,2.9452,2.8544,2.8111,2.7057,2.5684,2.5229,2.2143,1.6586,1.5424,1.5066,1.5155,1.5192,1.5192,1.5192,1.5192,1.5192,1.5192,1.5192,1.5192,1.5192,1.5192,1.5192,1.5192,1.5192,1.5192,1.5192,1.5192,1.5192,1.5192,1.5192,1.5192,1.5192,1.5197,1.5191,1.5165,1.5189,1.52,1.519,1.5182,1.506,1.4994,1.4932,1.4812,1.4694,1.4618,1.455,1.4462,1.4401,1.4333,2.9913,2.9913,2.9913,2.9809,2.9684,2.9671,2.9499,2.9226,2.9017,2.8836,2.8761,2.8621,2.8619,2.8772,2.881,2.8916,2.8986,2.8879,2.8903,2.9001,2.9015,2.9355,2.9769,2.9905,2.9913,2.9913,2.9902,2.9913,2.9913,2.9913,2.9913,2.9913,2.9913,2.9913,2.9913,2.9913,2.9913,2.9913,2.9913,2.9913,2.9913,2.9913,2.9913,2.9913,2.9913,2.9913,2.9913,2.9913,2.9913,2.9913,2.9913,2.9913,2.9913,2.9913,2.9913,2.9913,2.9913,2.9913,2.9913,2.9913,2.9913,2.9913,2.9913,2.9913,2.9902,2.9913,2.9913,2.9779,2.9902,2.9171,2.8201,2.7754,2.5753,2.226,1.7775,1.5466,1.5237,1.5192,1.5192,1.5192,1.5192,1.5192,1.5192,1.5192,1.5192,1.5192,1.5192,1.5192,1.5192,1.5192,1.5192,1.5192,1.5192,1.5192,1.5192,1.5192,1.5192,1.5192,1.5192,1.5192,1.5192,1.5192,1.5204,1.5197,1.5204,1.5184,1.5109,1.5059,1.5,1.4887,1.4765,1.4649,1.455,1.441,1.4336,2.9913,2.9913,2.9913,2.9913,2.99,2.99,2.9753,2.9621,2.9705,2.9511,2.9149,2.9087,2.9039,2.8986,2.881,2.8807,2.8986,2.8754,2.874,2.8812,2.8906,2.9164,2.949,2.9659,2.9775,2.9864,2.9884,2.9864,2.9889,2.9913,2.9913,2.9913,2.9913,2.9913,2.9913,2.9913,2.9913,2.9913,2.9913,2.9913,2.9913,2.9913,2.9913,2.9913,2.9913,2.9913,2.9913,2.9913,2.9913,2.9913,2.9913,2.9913,2.9913,2.9913,2.9913,2.9913,2.9913,2.9913,2.9913,2.9913,2.9913,2.9913,2.9913,2.9913,2.9913,2.9913,2.9913,2.9913,2.9913,2.9756,2.9646,2.9735,2.9281,2.7271,2.1411,1.7558,1.5933,1.5537,1.5202,1.5192,1.5192,1.5192,1.5192,1.5192,1.5192,1.5192,1.5192,1.5192,1.5192,1.5192,1.5192,1.5192,1.5192,1.5192,1.5192,1.5192,1.5192,1.5192,1.5192,1.5192,1.5192,1.5192,1.5192,1.5192,1.5192,1.5192,1.5184,1.5143,1.5109,1.5055,1.4932,1.4771,1.4613,1.4422,1.4307,2.9913,2.9913,2.9913,2.9913,2.9913,2.9902,2.9862,2.982,2.9864,2.9702,2.949,2.9617,2.9417,2.9026,2.8961,2.8959,2.8986,2.8754,2.8537,2.8393,2.8604,2.8579,2.8736,2.9003,2.9456,2.9708,2.9659,2.97,2.986,2.9913,2.9913,2.9913,2.9913,2.9913,2.9913,2.9913,2.9913,2.9913,2.9913,2.9913,2.9913,2.9913,2.9913,2.9913,2.9913,2.9913,2.9913,2.9913,2.9913,2.9913,2.9913,2.9913,2.9913,2.9913,2.9913,2.9913,2.9913,2.9913,2.9913,2.9913,2.9913,2.9913,2.9913,2.9913,2.9913,2.9913,2.9913,2.9913,2.9913,2.9913,2.9915,2.9909,2.9903,2.9083,2.7532,2.4543,2.1347,1.7495,1.5438,1.52,1.5192,1.5192,1.5192,1.5192,1.5192,1.5192,1.5192,1.5192,1.5192,1.5192,1.5192,1.5192,1.5192,1.5192,1.5192,1.5192,1.5192,1.5192,1.5192,1.5192,1.5192,1.5192,1.5192,1.5192,1.5192,1.5192,1.5192,1.5192,1.5163,1.5116,1.5068,1.4907,1.4719,1.4507,1.4316,2.9913,2.9913,2.9913,2.9913,2.9913,2.9913,2.9913,2.9913,2.9913,2.9833,2.9724,2.9844,2.9706,2.9435,2.929,2.9223,2.9157,2.8916,2.8633,2.8492,2.8551,2.8446,2.8316,2.8593,2.9056,2.9454,2.9668,2.978,2.9875,2.9913,2.9913,2.9913,2.9913,2.9913,2.9913,2.9913,2.9913,2.9913,2.9913,2.9913,2.9913,2.9913,2.9913,2.9913,2.9913,2.9913,2.9913,2.9913,2.9913,2.9913,2.9913,2.9913,2.9913,2.9913,2.9913,2.9913,2.9913,2.9913,2.9913,2.9913,2.9913,2.9913,2.9913,2.9913,2.9913,2.9913,2.9913,2.9913,2.9913,2.9913,2.9913,2.9902,2.9904,2.9912,2.9907,2.8606,2.5525,1.9731,1.5198,1.5194,1.5192,1.5192,1.5192,1.5192,1.5192,1.5192,1.5192,1.5192,1.5192,1.5192,1.5192,1.5192,1.5192,1.5192,1.5192,1.5192,1.5192,1.5192,1.5192,1.5192,1.5192,1.5192,1.5192,1.5192,1.5192,1.5192,1.5192,1.5192,1.5192,1.517,1.5097,1.4991,1.4864,1.4694,1.4484,2.9913,2.9913,2.9913,2.9913,2.9913,2.9913,2.9913,2.9913,2.9913,2.99,2.9913,2.9913,2.9871,2.9822,2.9646,2.955,2.9406,2.9223,2.8941,2.87,2.8593,2.8444,2.8329,2.8556,2.8941,2.9172,2.9557,2.9795,2.9875,2.9913,2.9913,2.9913,2.9913,2.9913,2.9913,2.9913,2.9913,2.9913,2.9913,2.9913,2.9913,2.9913,2.9913,2.9913,2.9913,2.9913,2.9913,2.9913,2.9913,2.9913,2.9913,2.9913,2.9913,2.9913,2.9913,2.9913,2.9913,2.9913,2.9913,2.9913,2.9913,2.9913,2.9913,2.9913,2.9913,2.9913,2.9913,2.9913,2.9913,2.9913,2.9913,2.9913,2.9913,2.9904,2.9915,2.9908,2.8321,2.1733,1.7618,1.5924,1.5584,1.5192,1.5192,1.5192,1.5192,1.5192,1.5192,1.5192,1.5192,1.5192,1.5192,1.5192,1.5192,1.5192,1.5192,1.5192,1.5192,1.5192,1.5192,1.5192,1.5192,1.5192,1.5192,1.5192,1.5192,1.5192,1.5192,1.5192,1.5192,1.5192,1.517,1.507,1.498,1.4876,1.4651,2.9913,2.9913,2.9913,2.9913,2.9913,2.9913,2.9913,2.9913,2.9913,2.9913,2.9913,2.9913,2.9913,2.9875,2.9875,2.9713,2.9539,2.9408,2.9234,2.8954,2.877,2.8529,2.831,2.8721,2.9213,2.9588,2.9718,2.9715,2.9862,2.9913,2.9913,2.9913,2.9913,2.9913,2.9913,2.9913,2.9913,2.9913,2.9913,2.9913,2.9913,2.9913,2.9913,2.9913,2.9913,2.9913,2.9913,2.9913,2.9913,2.9913,2.9913,2.9913,2.9913,2.9913,2.9913,2.9913,2.9913,2.9913,2.9913,2.9913,2.9913,2.9913,2.9913,2.9913,2.9913,2.9913,2.9913,2.9913,2.9913,2.9913,2.9913,2.9913,2.9913,2.9913,2.9904,2.9904,2.8752,2.4726,2.0057,1.8499,1.6892,1.5192,1.5192,1.5192,1.5192,1.5192,1.5192,1.5192,1.5192,1.5192,1.5192,1.5192,1.5192,1.5192,1.5192,1.5192,1.5192,1.5192,1.5192,1.5192,1.5192,1.5192,1.5192,1.5123,1.5149,1.5192,1.5192,1.5204,1.5192,1.5192,1.5184,1.5168,1.5076,1.497,1.4776,2.9913,2.9913,2.9913,2.9913,2.9913,2.9913,2.9913,2.9913,2.9913,2.9913,2.9913,2.9913,2.9913,2.9913,2.9913,2.9809,2.9726,2.9702,2.9528,2.9272,2.9114,2.8721,2.8388,2.8915,2.9445,2.9769,2.977,2.9742,2.9878,2.9913,2.9913,2.9913,2.9913,2.9913,2.9913,2.9913,2.9913,2.9913,2.9913,2.9913,2.9913,2.9913,2.9913,2.9913,2.9913,2.9913,2.9913,2.9913,2.9913,2.9913,2.9913,2.9913,2.9913,2.9913,2.9913,2.9913,2.9913,2.9913,2.9913,2.9913,2.9913,2.9913,2.9913,2.9913,2.9913,2.9913,2.9913,2.9913,2.9913,2.9913,2.9913,2.9913,2.9913,2.9913,2.9913,2.9911,2.889,2.5309,2.276,2.0437,1.7573,1.5772,1.5192,1.5192,1.5192,1.5192,1.5192,1.5192,1.5192,1.5192,1.5192,1.5192,1.5192,1.5192,1.5192,1.5192,1.5192,1.5192,1.5192,1.5192,1.5192,1.5192,1.5061,1.4919,1.4999,1.5186,1.5197,1.5197,1.5204,1.5192,1.5191,1.5175,1.5145,1.5045,1.487,2.9913,2.9913,2.9913,2.9913,2.9913,2.9913,2.9913,2.9913,2.9913,2.9913,2.9913,2.9913,2.9913,2.9913,2.9913,2.99,2.9913,2.9889,2.9755,2.9604,2.947,2.909,2.8947,2.909,2.9616,2.9855,2.9887,2.9913,2.9902,2.9913,2.9913,2.9913,2.9913,2.9913,2.9913,2.9913,2.9913,2.9913,2.9913,2.9913,2.9913,2.9913,2.9913,2.9913,2.9913,2.9913,2.9913,2.9913,2.9913,2.9913,2.9913,2.9913,2.9913,2.9913,2.9913,2.9913,2.9913,2.9913,2.9913,2.9913,2.9913,2.9913,2.9913,2.9913,2.9913,2.9913,2.9913,2.9913,2.9913,2.9913,2.9913,2.9913,2.9913,2.9913,2.9913,2.9734,2.9086,2.6844,2.4019,2.1277,1.8019,1.6315,1.5666,1.5192,1.5192,1.5192,1.5192,1.5192,1.5192,1.5192,1.5192,1.5192,1.5192,1.5192,1.5192,1.5192,1.5192,1.5192,1.5192,1.5192,1.5192,1.5192,1.5048,1.4947,1.5043,1.5204,1.5197,1.5177,1.5152,1.514,1.5179,1.5189,1.5169,1.513,1.5007,2.9913,2.9913,2.9913,2.9913,2.9913,2.9913,2.9913,2.9913,2.9913,2.9913,2.9913,2.9913,2.9913,2.9913,2.9913,2.9913,2.9913,2.9953,2.9902,2.9793,2.9697,2.9646,2.9591,2.9479,2.971,2.9886,2.9907,2.9911,2.9913,2.9913,2.9913,2.9913,2.9913,2.9913,2.9913,2.9913,2.9913,2.9913,2.9913,2.9913,2.9913,2.9913,2.9913,2.9913,2.9913,2.9913,2.9913,2.9913,2.9913,2.9913,2.9913,2.9913,2.9913,2.9913,2.9913,2.9913,2.9913,2.9913,2.9913,2.9913,2.9913,2.9913,2.9913,2.9913,2.9913,2.9913,2.9913,2.9913,2.9913,2.9913,2.9913,2.9913,2.9913,2.9913,2.9913,2.9913,2.9465,2.8928,2.605,2.2897,1.9911,1.7515,1.6022,1.5573,1.5192,1.5192,1.5192,1.5192,1.5192,1.5192,1.5192,1.5192,1.5192,1.5192,1.5192,1.5192,1.5204,1.5204,1.52,1.52,1.5198,1.5197,1.5198,1.5141,1.5194,1.5161,1.5114,1.5089,1.5079,1.512,1.5179,1.5192,1.5197,1.5143,1.5089,2.9913,2.9913,2.9913,2.9913,2.9913,2.9913,2.9913,2.9913,2.9913,2.9913,2.9913,2.9913,2.9913,2.9913,2.9913,2.9913,2.9942,3.006,3.006,3.0049,3.0058,3.0088,2.9936,2.9954,3.0063,2.9878,2.9914,2.99,2.9913,2.9913,2.9913,2.9913,2.9913,2.9913,2.9913,2.9913,2.9913,2.9913,2.9913,2.9913,2.9913,2.9913,2.9913,2.9913,2.9913,2.9913,2.9913,2.9913,2.9913,2.9913,2.9913,2.9913,2.9913,2.9913,2.9913,2.9913,2.9913,2.9913,2.9913,2.9913,2.9913,2.9913,2.9913,2.9913,2.9913,2.9913,2.9913,2.9913,2.9913,2.9913,2.9913,2.9913,2.9913,2.9913,2.9913,2.9913,2.9886,2.9809,2.82,2.4988,2.1759,1.9053,1.6623,1.569,1.5286,1.5192,1.5192,1.5192,1.5192,1.5192,1.5192,1.5192,1.5192,1.5192,1.5192,1.5192,1.5197,1.52,1.5193,1.5205,1.5191,1.5203,1.5126,1.5159,1.5197,1.5135,1.504,1.5055,1.5118,1.5158,1.5192,1.5192,1.5197,1.5191,1.5066,2.9913,2.9913,2.9913,2.9913,2.9913,2.9913,2.9913,2.9913,2.9913,2.9913,2.9913,2.9913,2.9913,2.9913,2.9913,2.9902,2.9904,3.0165,3.01,3.0156,3.0339,3.0394,3.0238,3.0278,3.019,2.9915,2.9911,2.9913,2.9913,2.9913,2.9913,2.9913,2.9913,2.9913,2.9913,2.9913,2.9913,2.9913,2.9913,2.9913,2.9913,2.9913,2.9913,2.9913,2.9913,2.9913,2.9913,2.9913,2.9913,2.9913,2.9913,2.9913,2.9913,2.9913,2.9913,2.9913,2.9913,2.9913,2.9913,2.9913,2.9913,2.9913,2.9913,2.9913,2.9913,2.9913,2.9913,2.9913,2.9913,2.9913,2.9913,2.9913,2.9913,2.9913,2.9913,2.9913,2.9893,2.9833,2.8378,2.4703,2.1692,1.9636,1.7503,1.6041,1.5404,1.5239,1.5192,1.5192,1.5192,1.5192,1.5192,1.5192,1.5192,1.5192,1.5192,1.5204,1.5197,1.5178,1.5171,1.5112,1.5057,1.5004,1.4928,1.4999,1.5138,1.5169,1.511,1.5134,1.5163,1.5184,1.5192,1.5192,1.5205,1.5194,1.4999,2.9913,2.9913,2.9913,2.9913,2.9913,2.9913,2.9913,2.9913,2.9913,2.9913,2.9913,2.9913,2.9913,2.9913,2.9913,2.9913,2.9902,2.9929,2.9942,3.0047,3.0239,3.044,3.0391,3.0348,3.023,2.9953,2.9913,2.9913,2.9913,2.9913,2.9913,2.9913,2.9913,2.9913,2.9913,2.9913,2.9913,2.9913,2.9913,2.9913,2.9913,2.9913,2.9913,2.9913,2.9913,2.9913,2.9913,2.9913,2.9913,2.9913,2.9913,2.9913,2.9913,2.9913,2.9913,2.9913,2.9913,2.9913,2.9913,2.9913,2.9913,2.9913,2.9913,2.9913,2.9913,2.9913,2.9913,2.9913,2.9913,2.9913,2.9913,2.9913,2.9913,2.9913,2.9913,2.9913,2.9913,2.9904,2.8092,2.4317,2.1864,2.0273,1.8182,1.667,1.5462,1.5216,1.5192,1.5192,1.5192,1.5192,1.5192,1.5192,1.5192,1.5192,1.5192,1.5197,1.5177,1.5112,1.5068,1.4947,1.4831,1.4762,1.4687,1.4906,1.5048,1.5109,1.5164,1.5148,1.515,1.5184,1.5192,1.5192,1.5193,1.5197,1.4892,2.9913,2.9913,2.9913,2.9913,2.9913,2.9913,2.9913,2.9913,2.9913,2.9913,2.9913,2.9913,2.9913,2.9913,2.9913,2.9913,2.994,3.015,3.0047,3.0116,3.0346,3.0555,3.0542,3.0382,3.0219,2.9967,2.9913,2.9913,2.9913,2.9913,2.9913,2.9913,2.9913,2.9913,2.9913,2.9913,2.9913,2.9913,2.9913,2.9913,2.9913,2.9913,2.9913,2.9913,2.9913,2.9913,2.9913,2.9913,2.9913,2.9913,2.9913,2.9913,2.9913,2.9913,2.9913,2.9913,2.9913,2.9913,2.9913,2.9913,2.9913,2.9913,2.9913,2.9913,2.9913,2.9913,2.9913,2.9913,2.9913,2.9913,2.9913,2.9913,2.9913,2.9913,2.9913,2.9913,2.9913,2.9913,2.948,2.6448,2.3882,2.1786,1.952,1.7258,1.6116,1.5192,1.5192,1.5192,1.5192,1.5192,1.5192,1.5192,1.5192,1.5192,1.5192,1.5165,1.5138,1.5046,1.4965,1.4813,1.4663,1.4514,1.45,1.4738,1.4952,1.5024,1.5083,1.5095,1.5131,1.5191,1.5204,1.5192,1.52,1.5197,1.4835,2.9913,2.9913,2.9913,2.9913,2.9913,2.9913,2.9913,2.9913,2.9913,2.9913,2.9913,2.9913,2.9913,2.9913,2.9913,2.9913,2.9953,3.0074,3.0047,3.0154,3.0348,3.0511,3.0422,3.0323,3.0219,2.998,2.9913,2.9913,2.9913,2.9913,2.9913,2.9913,2.9913,2.9913,2.9913,2.9913,2.9913,2.9913,2.9913,2.9913,2.9913,2.9913,2.9913,2.9913,2.9913,2.9913,2.9913,2.9913,2.9913,2.9913,2.9913,2.9913,2.9913,2.9913,2.9913,2.9913,2.9913,2.9913,2.9913,2.9913,2.9913,2.9913,2.9913,2.9913,2.9913,2.9913,2.9913,2.9913,2.9913,2.9913,2.9913,2.9913,2.9913,2.9913,2.9913,2.9913,2.9913,2.9902,2.9915,2.8904,2.5867,2.2106,1.9578,1.7176,1.6022,1.5192,1.5192,1.5192,1.5192,1.5192,1.5192,1.5192,1.5192,1.5192,1.5192,1.5172,1.5118,1.4898,1.4799,1.4686,1.4539,1.4395,1.4309,1.4478,1.4685,1.4894,1.5008,1.5041,1.5116,1.5197,1.5204,1.5192,1.5197,1.5162,1.4844,2.9913,2.9913,2.9913,2.9913,2.9913,2.9913,2.9913,2.9913,2.9913,2.9913,2.9913,2.9913,2.9913,2.9913,2.9913,2.9913,2.9913,2.9953,2.994,3.0034,3.0194,3.0186,3.0159,3.015,3.0165,2.9967,2.9913,2.9913,2.9913,2.9913,2.9913,2.9913,2.9913,2.9913,2.9913,2.9913,2.9913,2.9913,2.9913,2.9913,2.9913,2.9913,2.9913,2.9913,2.9913,2.9913,2.9913,2.9913,2.9913,2.9913,2.9913,2.9913,2.9913,2.9913,2.9913,2.9913,2.9913,2.9913,2.9913,2.9913,2.9913,2.9913,2.9913,2.9913,2.9913,2.9913,2.9913,2.9913,2.9913,2.9913,2.9913,2.9913,2.9913,2.9913,2.9913,2.9913,2.9913,2.9902,2.9902,2.9251,2.548,2.168,1.9161,1.7009,1.583,1.5192,1.5192,1.5192,1.5192,1.5192,1.5192,1.5192,1.5192,1.5192,1.5192,1.5172,1.5079,1.4846,1.4681,1.4597,1.4488,1.4358,1.4307,1.4307,1.4419,1.4631,1.483,1.4993,1.5082,1.517,1.5197,1.5197,1.5192,1.5147,1.4903,2.9913,2.9913,2.9913,2.9913,2.9913,2.9913,2.9913,2.9913,2.9913,2.9913,2.9913,2.9913,2.9913,2.9913,2.9915,2.9915,2.9902,2.9913,2.9913,2.9927,3.0047,3.0007,2.998,3.0007,3.002,2.994,2.9913,2.9913,2.9913,2.9913,2.9913,2.9913,2.9913,2.9913,2.9913,2.9913,2.9913,2.9913,2.9913,2.9913,2.9913,2.9913,2.9913,2.9913,2.9913,2.9913,2.9913,2.9913,2.9913,2.9913,2.9913,2.9913,2.9913,2.9913,2.9913,2.9913,2.9913,2.9913,2.9913,2.9913,2.9913,2.9913,2.9913,2.9913,2.9913,2.9913,2.9913,2.9913,2.9913,2.9913,2.9913,2.9913,2.9913,2.9913,2.9913,2.9913,2.9913,2.9902,2.9727,2.8486,2.5719,2.0896,1.7515,1.6565,1.5549,1.5192,1.5192,1.5192,1.5192,1.5192,1.5192,1.5192,1.5192,1.5192,1.5186,1.5165,1.5038,1.4798,1.4656,1.4574,1.4461,1.4335,1.4308,1.4309,1.4327,1.4363,1.4595,1.4812,1.5041,1.5155,1.5157,1.5191,1.5195,1.52,1.5131,2.9913,2.9913,2.9913,2.9913,2.9913,2.9913,2.9913,2.9913,2.9913,2.9913,2.9913,2.9913,2.9913,2.994,3.002,2.9944,2.9929,3.0045,2.9953,2.994,2.9913,2.9927,2.9927,2.9913,2.994,2.9913,2.9913,2.9913,2.9913,2.9913,2.9913,2.9913,2.9913,2.9913,2.9913,2.9913,2.9913,2.9913,2.9913,2.9913,2.9913,2.9913,2.9913,2.9913,2.9913,2.9913,2.9913,2.9913,2.9913,2.9913,2.9913,2.9913,2.9913,2.9913,2.9913,2.9913,2.9913,2.9913,2.9913,2.9913,2.9913,2.9913,2.9913,2.9913,2.9913,2.9913,2.9913,2.9913,2.9913,2.9913,2.9913,2.9913,2.9913,2.9913,2.9913,2.9913,2.9913,2.9902,2.9801,2.8483,2.5559,2.0668,1.6409,1.5913,1.5239,1.5192,1.5192,1.5192,1.5192,1.5192,1.5192,1.5192,1.5192,1.5192,1.5179,1.5152,1.4991,1.4751,1.4642,1.4552,1.444,1.431,1.431,1.431,1.4336,1.4372,1.4455,1.4631,1.4884,1.5041,1.5095,1.5136,1.5191,1.5197,1.5197,2.9913,2.9913,2.9913,2.9913,2.9913,2.9913,2.9913,2.9913,2.9913,2.9913,2.9913,2.9913,2.9913,2.9956,3.0205,3.0152,2.998,3.019,3.0098,2.998,2.9913,2.9913,2.9913,2.9913,2.9913,2.9913,2.9913,2.9913,2.9913,2.9913,2.9913,2.9913,2.9913,2.9913,2.9913,2.9913,2.9913,2.9913,2.9913,2.9913,2.9913,2.9913,2.9913,2.9913,2.9913,2.9913,2.9913,2.9913,2.9913,2.9913,2.9913,2.9913,2.9913,2.9913,2.9913,2.9913,2.9913,2.9913,2.9913,2.9913,2.9913,2.9913,2.9913,2.9913,2.9913,2.9913,2.9913,2.9913,2.9913,2.9913,2.9913,2.9913,2.9913,2.9913,2.9913,2.9913,2.9913,2.9902,2.9902,2.8222,2.5013,2.0841,1.6619,1.5228,1.5192,1.5192,1.5192,1.5192,1.5192,1.5192,1.5192,1.5192,1.5192,1.5192,1.5172,1.5138,1.4966,1.4733,1.4622,1.4523,1.4399,1.431,1.431,1.4317,1.4335,1.4401,1.4525,1.4629,1.4753,1.4889,1.4989,1.5109,1.5165,1.5191,1.5177,2.9913,2.9913,2.9913,2.9913,2.9913,2.9913,2.9913,2.9913,2.9913,2.9913,2.9913,2.9913,2.99,2.9915,3.0018,2.9969,2.9956,2.9958,2.998,2.9915,2.9913,2.9913,2.9913,2.9913,2.9913,2.9913,2.9913,2.9913,2.9913,2.9913,2.9913,2.9913,2.9913,2.9913,2.9913,2.9913,2.9913,2.9913,2.9913,2.9913,2.9913,2.9913,2.9913,2.9913,2.9913,2.9913,2.9913,2.9913,2.9913,2.9913,2.9913,2.9913,2.9913,2.9913,2.9913,2.9913,2.9913,2.9913,2.9913,2.9913,2.9913,2.9913,2.9913,2.9913,2.9913,2.9913,2.9913,2.9913,2.9913,2.9913,2.9913,2.9913,2.9913,2.9913,2.9913,2.9913,2.9913,2.9913,2.9812,2.82,2.4968,2.1152,1.6951,1.5192,1.5192,1.5192,1.5192,1.5192,1.5192,1.5192,1.5192,1.5192,1.5192,1.5192,1.5152,1.5111,1.4932,1.4753,1.4631,1.4509,1.4372,1.431,1.431,1.4357,1.441,1.452,1.4636,1.4697,1.4663,1.4771,1.4871,1.5029,1.5138,1.517,1.5186,2.9913,2.9913,2.9913,2.9913,2.9913,2.9913,2.9913,2.9913,2.9913,2.9913,2.9913,2.9913,2.9847,2.9778,2.9835,2.9849,2.9764,2.9887,2.9927,2.9927,2.9913,2.9913,2.9913,2.9913,2.9913,2.9913,2.9913,2.9913,2.9913,2.9913,2.9913,2.9913,2.9913,2.9913,2.9913,2.9913,2.9913,2.9913,2.9913,2.9913,2.9913,2.9913,2.9913,2.9913,2.9913,2.9913,2.9913,2.9913,2.9913,2.9913,2.9913,2.9913,2.9913,2.9913,2.9913,2.9913,2.9913,2.9913,2.9913,2.9913,2.9913,2.9913,2.9913,2.9913,2.9913,2.9913,2.9913,2.9913,2.9913,2.9913,2.9913,2.9913,2.9913,2.9913,2.9913,2.9913,2.9913,2.9913,2.9045,2.7871,2.4899,2.1164,1.8298,1.6409,1.5192,1.5192,1.5192,1.5192,1.5192,1.5192,1.5192,1.5192,1.5192,1.5192,1.5145,1.5097,1.4945,1.4793,1.4669,1.4539,1.4387,1.431,1.4317,1.4403,1.4526,1.4583,1.4595,1.4539,1.4532,1.464,1.4742,1.4855,1.5009,1.5163,1.5171,2.9913,2.9913,2.9913,2.9913,2.9913,2.9913,2.9915,2.9929,2.9929,2.9915,2.9942,2.9909,2.9788,2.9702,2.9766,2.97,2.9671,2.974,2.986,2.99,2.9913,2.9913,2.9913,2.9913,2.9913,2.9913,2.9913,2.9913,2.9913,2.9913,2.9913,2.9913,2.9913,2.9913,2.9913,2.9913,2.9913,2.9913,2.9913,2.9913,2.9913,2.9913,2.9913,2.9913,2.9913,2.9913,2.9913,2.9913,2.9913,2.9913,2.9913,2.9913,2.9913,2.9913,2.9913,2.9913,2.9913,2.9913,2.9913,2.9913,2.9913,2.9913,2.9913,2.9913,2.9913,2.9913,2.9913,2.9913,2.9913,2.9913,2.9913,2.9913,2.9913,2.9913,2.9913,2.9913,2.9913,2.9496,2.8414,2.6944,2.4352,2.0702,1.7713,1.5737,1.5204,1.5192,1.5192,1.5192,1.5192,1.5192,1.5192,1.5192,1.5192,1.5192,1.5186,1.5124,1.4986,1.4841,1.4703,1.4532,1.4349,1.4312,1.4306,1.4393,1.4459,1.4462,1.447,1.4457,1.4468,1.4482,1.4577,1.4661,1.4828,1.5034,1.5171,2.9913,2.9913,2.9913,2.9913,2.9913,2.9913,3.0047,3.0268,3.0007,3.0047,3.0185,3.0011,2.984,2.9731,2.9566,2.9472,2.9526,2.9526,2.9724,2.9847,2.9913,2.9913,2.9913,2.9913,2.9913,2.9913,2.9913,2.9913,2.9913,2.9913,2.9913,2.9913,2.9913,2.9913,2.9913,2.9913,2.9913,2.9913,2.9913,2.9913,2.9913,2.9913,2.9913,2.9913,2.9913,2.9913,2.9913,2.9913,2.9913,2.9913,2.9913,2.9913,2.9913,2.9913,2.9913,2.9913,2.9913,2.9913,2.9913,2.9913,2.9913,2.9913,2.9913,2.9913,2.9913,2.9913,2.9913,2.9913,2.9913,2.9913,2.9913,2.9913,2.9913,2.9913,2.9913,2.9913,2.9913,2.8955,2.7894,2.5753,2.3415,2.0587,1.7526,1.5905,1.5404,1.5192,1.5192,1.5192,1.5192,1.5192,1.5192,1.5192,1.5192,1.5192,1.5192,1.5145,1.5013,1.4859,1.4719,1.4523,1.4324,1.4319,1.4312,1.4314,1.4345,1.4374,1.442,1.4473,1.4475,1.4439,1.4441,1.4539,1.4681,1.4874,1.5059,2.9913,2.9913,2.9913,2.9913,2.9913,2.9913,3.0007,3.0174,3.0253,3.0253,3.0161,2.9962,2.9773,2.9526,2.9208,2.9234,2.9274,2.9263,2.9555,2.9795,2.9913,2.9913,2.9913,2.9913,2.9913,2.9913,2.9913,2.9913,2.9913,2.9913,2.9913,2.9913,2.9913,2.9913,2.9913,2.9913,2.9913,2.9913,2.9913,2.9913,2.9913,2.9913,2.9913,2.9913,2.9913,2.9913,2.9913,2.9913,2.9913,2.9913,2.9913,2.9913,2.9913,2.9913,2.9913,2.9913,2.9913,2.9913,2.9913,2.9913,2.9913,2.9913,2.9913,2.9913,2.9913,2.9913,2.9913,2.9913,2.9913,2.9913,2.9913,2.9913,2.9913,2.9913,2.9913,2.9913,2.9913,2.9508,2.8018,2.6048,2.369,2.121,1.8345,1.5987,1.5502,1.5192,1.5192,1.5192,1.5192,1.5192,1.5192,1.5192,1.5192,1.5192,1.5192,1.5145,1.5052,1.4891,1.4706,1.4534,1.4358,1.4333,1.4311,1.4309,1.4314,1.432,1.4378,1.4423,1.4414,1.4364,1.438,1.4423,1.4572,1.4715,1.4853,2.9875,2.9849,2.9849,2.9811,2.9784,2.9782,2.9809,2.9945,3.0393,3.0346,2.9891,2.9792,2.9466,2.9129,2.8785,2.8892,2.9039,2.921,2.9504,2.9771,2.99,2.9913,2.9913,2.9913,2.9913,2.9913,2.9913,2.9913,2.9913,2.9913,2.9913,2.9913,2.9913,2.9913,2.9913,2.9913,2.9913,2.9913,2.9913,2.9913,2.9913,2.9913,2.9913,2.9913,2.9913,2.9913,2.9913,2.9913,2.9913,2.9913,2.9913,2.9913,2.9913,2.9913,2.9913,2.9913,2.9913,2.9913,2.9913,2.9913,2.9913,2.9913,2.9913,2.9913,2.9913,2.9913,2.9913,2.9913,2.9913,2.9913,2.9913,2.9913,2.9913,2.9913,2.9913,2.9913,2.9913,2.9779,2.8074,2.6184,2.3701,2.1302,1.8569,1.6221,1.5608,1.531,1.5192,1.5192,1.5192,1.5192,1.5192,1.5192,1.5192,1.5192,1.5192,1.5145,1.5065,1.4871,1.469,1.4527,1.4392,1.434,1.431,1.4317,1.4308,1.4311,1.4315,1.4357,1.4323,1.4317,1.4344,1.4376,1.4444,1.457,1.464,2.978,2.9577,2.9577,2.9432,2.9212,2.9186,2.9306,2.9603,2.9909,2.9873,2.9558,2.931,2.9179,2.9379,2.9063,2.9077,2.9285,2.9341,2.9555,2.9873,2.9913,2.9913,2.9913,2.9913,2.9913,2.9913,2.9913,2.9913,2.9913,2.9913,2.9913,2.9913,2.9913,2.9913,2.9913,2.9913,2.9913,2.9913,2.9913,2.9913,2.9913,2.9913,2.9913,2.9913,2.9913,2.9913,2.9913,2.9913,2.9913,2.9913,2.9913,2.9913,2.9913,2.9913,2.9913,2.9913,2.9913,2.9913,2.9913,2.9913,2.9913,2.9913,2.9913,2.9913,2.9913,2.9913,2.9913,2.9913,2.9913,2.9913,2.9913,2.9913,2.9913,2.9913,2.9913,2.9913,2.9913,2.9294,2.8153,2.5684,2.3037,2.0018,1.6658,1.5415,1.5404,1.5192,1.5192,1.5192,1.5192,1.5192,1.5192,1.5192,1.5192,1.5192,1.5192,1.5158,1.5077,1.4864,1.4663,1.4505,1.4376,1.4337,1.431,1.431,1.431,1.4312,1.431,1.431,1.431,1.431,1.431,1.4346,1.4397,1.4457,1.4558]}]]